<?xml version="1.0" encoding="UTF-8" standalone="no" ?>
<gpx xmlns="http://www.topografix.com/GPX/1/1" xmlns:xsi="http://www.w3.org/2001/XMLSchema-instance" xsi:schemaLocation="http://www.topografix.com/GPX/1/1 http://www.topografix.com/GPX/1/1/gpx.xsd" version="1.1" creator="VisuGPX - https://www.visugpx.com">
  <metadata>
    <name>CO Chasselay</name>
    <desc><![CDATA[fait le 16/11/14]]></desc>
  </metadata>
  <trk>
    <name><![CDATA[2014-11-16T08:49:12Z]]></name>
    <trkseg>
      <trkpt lat="45.87381" lon="4.77076">
        <ele>234</ele>
        <time>2014-11-16T08:49:12Z</time>
      </trkpt>
      <trkpt lat="45.87375" lon="4.77072">
        <ele>235</ele>
        <time>2014-11-16T08:49:14Z</time>
      </trkpt>
      <trkpt lat="45.87365" lon="4.77065">
        <ele>235</ele>
        <time>2014-11-16T08:49:19Z</time>
      </trkpt>
      <trkpt lat="45.87363" lon="4.77066">
        <ele>235</ele>
        <time>2014-11-16T08:49:20Z</time>
      </trkpt>
      <trkpt lat="45.87357" lon="4.77073">
        <ele>235</ele>
        <time>2014-11-16T08:49:23Z</time>
      </trkpt>
      <trkpt lat="45.87354" lon="4.77085">
        <ele>236</ele>
        <time>2014-11-16T08:49:26Z</time>
      </trkpt>
      <trkpt lat="45.87354" lon="4.77089">
        <ele>236</ele>
        <time>2014-11-16T08:49:27Z</time>
      </trkpt>
      <trkpt lat="45.8735" lon="4.77098">
        <ele>236</ele>
        <time>2014-11-16T08:49:30Z</time>
      </trkpt>
      <trkpt lat="45.87348" lon="4.771">
        <ele>236</ele>
        <time>2014-11-16T08:49:31Z</time>
      </trkpt>
      <trkpt lat="45.8734" lon="4.77108">
        <ele>237</ele>
        <time>2014-11-16T08:49:35Z</time>
      </trkpt>
      <trkpt lat="45.87339" lon="4.77111">
        <ele>237</ele>
        <time>2014-11-16T08:49:36Z</time>
      </trkpt>
      <trkpt lat="45.8733" lon="4.77116">
        <ele>239</ele>
        <time>2014-11-16T08:49:40Z</time>
      </trkpt>
      <trkpt lat="45.87324" lon="4.77117">
        <ele>239</ele>
        <time>2014-11-16T08:49:42Z</time>
      </trkpt>
      <trkpt lat="45.87315" lon="4.77119">
        <ele>240</ele>
        <time>2014-11-16T08:49:45Z</time>
      </trkpt>
      <trkpt lat="45.87308" lon="4.7713">
        <ele>240</ele>
        <time>2014-11-16T08:49:49Z</time>
      </trkpt>
      <trkpt lat="45.87298" lon="4.77137">
        <ele>240</ele>
        <time>2014-11-16T08:49:54Z</time>
      </trkpt>
      <trkpt lat="45.87295" lon="4.77135">
        <ele>240</ele>
        <time>2014-11-16T08:49:55Z</time>
      </trkpt>
      <trkpt lat="45.87291" lon="4.77129">
        <ele>240</ele>
        <time>2014-11-16T08:49:57Z</time>
      </trkpt>
      <trkpt lat="45.8729" lon="4.77128">
        <ele>240</ele>
        <time>2014-11-16T08:49:58Z</time>
      </trkpt>
      <trkpt lat="45.87273" lon="4.77122">
        <ele>241</ele>
        <time>2014-11-16T08:50:02Z</time>
      </trkpt>
      <trkpt lat="45.87265" lon="4.7713">
        <ele>241</ele>
        <time>2014-11-16T08:50:06Z</time>
      </trkpt>
      <trkpt lat="45.87262" lon="4.77143">
        <ele>242</ele>
        <time>2014-11-16T08:50:11Z</time>
      </trkpt>
      <trkpt lat="45.87262" lon="4.77145">
        <ele>242</ele>
        <time>2014-11-16T08:50:12Z</time>
      </trkpt>
      <trkpt lat="45.87265" lon="4.7716">
        <ele>242</ele>
        <time>2014-11-16T08:50:16Z</time>
      </trkpt>
      <trkpt lat="45.87268" lon="4.7717">
        <ele>244</ele>
        <time>2014-11-16T08:50:19Z</time>
      </trkpt>
      <trkpt lat="45.87269" lon="4.77176">
        <ele>244</ele>
        <time>2014-11-16T08:50:21Z</time>
      </trkpt>
      <trkpt lat="45.87272" lon="4.77193">
        <ele>244</ele>
        <time>2014-11-16T08:50:26Z</time>
      </trkpt>
      <trkpt lat="45.87274" lon="4.77196">
        <ele>244</ele>
        <time>2014-11-16T08:50:27Z</time>
      </trkpt>
      <trkpt lat="45.87277" lon="4.77206">
        <ele>244</ele>
        <time>2014-11-16T08:50:30Z</time>
      </trkpt>
      <trkpt lat="45.87282" lon="4.77217">
        <ele>244</ele>
        <time>2014-11-16T08:50:34Z</time>
      </trkpt>
      <trkpt lat="45.87284" lon="4.7722">
        <ele>244</ele>
        <time>2014-11-16T08:50:35Z</time>
      </trkpt>
      <trkpt lat="45.87295" lon="4.77228">
        <ele>244</ele>
        <time>2014-11-16T08:50:39Z</time>
      </trkpt>
      <trkpt lat="45.873" lon="4.77233">
        <ele>244</ele>
        <time>2014-11-16T08:50:41Z</time>
      </trkpt>
      <trkpt lat="45.87305" lon="4.77242">
        <ele>244</ele>
        <time>2014-11-16T08:50:44Z</time>
      </trkpt>
      <trkpt lat="45.87308" lon="4.77254">
        <ele>245</ele>
        <time>2014-11-16T08:50:48Z</time>
      </trkpt>
      <trkpt lat="45.87308" lon="4.77258">
        <ele>245</ele>
        <time>2014-11-16T08:50:49Z</time>
      </trkpt>
      <trkpt lat="45.87307" lon="4.77271">
        <ele>245</ele>
        <time>2014-11-16T08:50:53Z</time>
      </trkpt>
      <trkpt lat="45.87304" lon="4.77284">
        <ele>245</ele>
        <time>2014-11-16T08:50:57Z</time>
      </trkpt>
      <trkpt lat="45.87303" lon="4.7729">
        <ele>245</ele>
        <time>2014-11-16T08:50:59Z</time>
      </trkpt>
      <trkpt lat="45.87302" lon="4.77301">
        <ele>245</ele>
        <time>2014-11-16T08:51:02Z</time>
      </trkpt>
      <trkpt lat="45.87303" lon="4.7731">
        <ele>245</ele>
        <time>2014-11-16T08:51:05Z</time>
      </trkpt>
      <trkpt lat="45.87303" lon="4.77317">
        <ele>245</ele>
        <time>2014-11-16T08:51:07Z</time>
      </trkpt>
      <trkpt lat="45.87303" lon="4.77332">
        <ele>245</ele>
        <time>2014-11-16T08:51:12Z</time>
      </trkpt>
      <trkpt lat="45.87303" lon="4.77338">
        <ele>245</ele>
        <time>2014-11-16T08:51:14Z</time>
      </trkpt>
      <trkpt lat="45.87302" lon="4.77348">
        <ele>245</ele>
        <time>2014-11-16T08:51:17Z</time>
      </trkpt>
      <trkpt lat="45.87302" lon="4.77366">
        <ele>245</ele>
        <time>2014-11-16T08:51:22Z</time>
      </trkpt>
      <trkpt lat="45.873" lon="4.77383">
        <ele>245</ele>
        <time>2014-11-16T08:51:27Z</time>
      </trkpt>
      <trkpt lat="45.873" lon="4.77392">
        <ele>245</ele>
        <time>2014-11-16T08:51:30Z</time>
      </trkpt>
      <trkpt lat="45.87301" lon="4.77398">
        <ele>245</ele>
        <time>2014-11-16T08:51:32Z</time>
      </trkpt>
      <trkpt lat="45.87301" lon="4.77413">
        <ele>245</ele>
        <time>2014-11-16T08:51:36Z</time>
      </trkpt>
      <trkpt lat="45.873" lon="4.77421">
        <ele>245</ele>
        <time>2014-11-16T08:51:38Z</time>
      </trkpt>
      <trkpt lat="45.87299" lon="4.77426">
        <ele>245</ele>
        <time>2014-11-16T08:51:40Z</time>
      </trkpt>
      <trkpt lat="45.87297" lon="4.77445">
        <ele>245</ele>
        <time>2014-11-16T08:51:45Z</time>
      </trkpt>
      <trkpt lat="45.87296" lon="4.77448">
        <ele>246</ele>
        <time>2014-11-16T08:51:46Z</time>
      </trkpt>
      <trkpt lat="45.87297" lon="4.77462">
        <ele>246</ele>
        <time>2014-11-16T08:51:50Z</time>
      </trkpt>
      <trkpt lat="45.873" lon="4.77475">
        <ele>246</ele>
        <time>2014-11-16T08:51:54Z</time>
      </trkpt>
      <trkpt lat="45.87302" lon="4.7749">
        <ele>245</ele>
        <time>2014-11-16T08:51:59Z</time>
      </trkpt>
      <trkpt lat="45.87302" lon="4.77504">
        <ele>247</ele>
        <time>2014-11-16T08:52:03Z</time>
      </trkpt>
      <trkpt lat="45.87302" lon="4.77508">
        <ele>247</ele>
        <time>2014-11-16T08:52:04Z</time>
      </trkpt>
      <trkpt lat="45.87302" lon="4.77525">
        <ele>248</ele>
        <time>2014-11-16T08:52:09Z</time>
      </trkpt>
      <trkpt lat="45.87301" lon="4.77531">
        <ele>248</ele>
        <time>2014-11-16T08:52:11Z</time>
      </trkpt>
      <trkpt lat="45.87297" lon="4.7754">
        <ele>249</ele>
        <time>2014-11-16T08:52:14Z</time>
      </trkpt>
      <trkpt lat="45.87289" lon="4.77553">
        <ele>249</ele>
        <time>2014-11-16T08:52:19Z</time>
      </trkpt>
      <trkpt lat="45.87286" lon="4.77557">
        <ele>250</ele>
        <time>2014-11-16T08:52:21Z</time>
      </trkpt>
      <trkpt lat="45.87274" lon="4.77568">
        <ele>251</ele>
        <time>2014-11-16T08:52:27Z</time>
      </trkpt>
      <trkpt lat="45.87264" lon="4.77581">
        <ele>253</ele>
        <time>2014-11-16T08:52:34Z</time>
      </trkpt>
      <trkpt lat="45.87263" lon="4.77586">
        <ele>255</ele>
        <time>2014-11-16T08:52:36Z</time>
      </trkpt>
      <trkpt lat="45.87264" lon="4.77597">
        <ele>254</ele>
        <time>2014-11-16T08:52:40Z</time>
      </trkpt>
      <trkpt lat="45.87264" lon="4.776">
        <ele>254</ele>
        <time>2014-11-16T08:52:41Z</time>
      </trkpt>
      <trkpt lat="45.87267" lon="4.77607">
        <ele>254</ele>
        <time>2014-11-16T08:52:44Z</time>
      </trkpt>
      <trkpt lat="45.87268" lon="4.77613">
        <ele>254</ele>
        <time>2014-11-16T08:52:46Z</time>
      </trkpt>
      <trkpt lat="45.87268" lon="4.77618">
        <ele>254</ele>
        <time>2014-11-16T08:52:48Z</time>
      </trkpt>
      <trkpt lat="45.87269" lon="4.77623">
        <ele>254</ele>
        <time>2014-11-16T08:52:50Z</time>
      </trkpt>
      <trkpt lat="45.87271" lon="4.77639">
        <ele>255</ele>
        <time>2014-11-16T08:52:56Z</time>
      </trkpt>
      <trkpt lat="45.87271" lon="4.77641">
        <ele>255</ele>
        <time>2014-11-16T08:52:57Z</time>
      </trkpt>
      <trkpt lat="45.87273" lon="4.77656">
        <ele>256</ele>
        <time>2014-11-16T08:53:03Z</time>
      </trkpt>
      <trkpt lat="45.87274" lon="4.77664">
        <ele>256</ele>
        <time>2014-11-16T08:53:06Z</time>
      </trkpt>
      <trkpt lat="45.87275" lon="4.7767">
        <ele>258</ele>
        <time>2014-11-16T08:53:08Z</time>
      </trkpt>
      <trkpt lat="45.87275" lon="4.77675">
        <ele>258</ele>
        <time>2014-11-16T08:53:10Z</time>
      </trkpt>
      <trkpt lat="45.87276" lon="4.7768">
        <ele>258</ele>
        <time>2014-11-16T08:53:12Z</time>
      </trkpt>
      <trkpt lat="45.87277" lon="4.77688">
        <ele>257</ele>
        <time>2014-11-16T08:53:15Z</time>
      </trkpt>
      <trkpt lat="45.87276" lon="4.77691">
        <ele>257</ele>
        <time>2014-11-16T08:53:16Z</time>
      </trkpt>
      <trkpt lat="45.87276" lon="4.77693">
        <ele>257</ele>
        <time>2014-11-16T08:53:17Z</time>
      </trkpt>
      <trkpt lat="45.87276" lon="4.77704">
        <ele>258</ele>
        <time>2014-11-16T08:53:21Z</time>
      </trkpt>
      <trkpt lat="45.87278" lon="4.77718">
        <ele>258</ele>
        <time>2014-11-16T08:53:26Z</time>
      </trkpt>
      <trkpt lat="45.87278" lon="4.77721">
        <ele>258</ele>
        <time>2014-11-16T08:53:27Z</time>
      </trkpt>
      <trkpt lat="45.8728" lon="4.77736">
        <ele>258</ele>
        <time>2014-11-16T08:53:32Z</time>
      </trkpt>
      <trkpt lat="45.8728" lon="4.77745">
        <ele>259</ele>
        <time>2014-11-16T08:53:35Z</time>
      </trkpt>
      <trkpt lat="45.87279" lon="4.77755">
        <ele>261</ele>
        <time>2014-11-16T08:53:38Z</time>
      </trkpt>
      <trkpt lat="45.87279" lon="4.77766">
        <ele>261</ele>
        <time>2014-11-16T08:53:42Z</time>
      </trkpt>
      <trkpt lat="45.87279" lon="4.77769">
        <ele>261</ele>
        <time>2014-11-16T08:53:43Z</time>
      </trkpt>
      <trkpt lat="45.87279" lon="4.77772">
        <ele>261</ele>
        <time>2014-11-16T08:53:44Z</time>
      </trkpt>
      <trkpt lat="45.87275" lon="4.7779">
        <ele>261</ele>
        <time>2014-11-16T08:53:50Z</time>
      </trkpt>
      <trkpt lat="45.87274" lon="4.77799">
        <ele>262</ele>
        <time>2014-11-16T08:53:53Z</time>
      </trkpt>
      <trkpt lat="45.87273" lon="4.77805">
        <ele>262</ele>
        <time>2014-11-16T08:53:55Z</time>
      </trkpt>
      <trkpt lat="45.87272" lon="4.77817">
        <ele>263</ele>
        <time>2014-11-16T08:53:59Z</time>
      </trkpt>
      <trkpt lat="45.87273" lon="4.77827">
        <ele>263</ele>
        <time>2014-11-16T08:54:02Z</time>
      </trkpt>
      <trkpt lat="45.87273" lon="4.77833">
        <ele>264</ele>
        <time>2014-11-16T08:54:04Z</time>
      </trkpt>
      <trkpt lat="45.87274" lon="4.77844">
        <ele>264</ele>
        <time>2014-11-16T08:54:08Z</time>
      </trkpt>
      <trkpt lat="45.87275" lon="4.77848">
        <ele>264</ele>
        <time>2014-11-16T08:54:09Z</time>
      </trkpt>
      <trkpt lat="45.87277" lon="4.77854">
        <ele>264</ele>
        <time>2014-11-16T08:54:11Z</time>
      </trkpt>
      <trkpt lat="45.87279" lon="4.77864">
        <ele>264</ele>
        <time>2014-11-16T08:54:14Z</time>
      </trkpt>
      <trkpt lat="45.8728" lon="4.77877">
        <ele>264</ele>
        <time>2014-11-16T08:54:18Z</time>
      </trkpt>
      <trkpt lat="45.8728" lon="4.7788">
        <ele>264</ele>
        <time>2014-11-16T08:54:19Z</time>
      </trkpt>
      <trkpt lat="45.87283" lon="4.77891">
        <ele>264</ele>
        <time>2014-11-16T08:54:22Z</time>
      </trkpt>
      <trkpt lat="45.87286" lon="4.77906">
        <ele>263</ele>
        <time>2014-11-16T08:54:26Z</time>
      </trkpt>
      <trkpt lat="45.87287" lon="4.77918">
        <ele>264</ele>
        <time>2014-11-16T08:54:30Z</time>
      </trkpt>
      <trkpt lat="45.8729" lon="4.77933">
        <ele>264</ele>
        <time>2014-11-16T08:54:35Z</time>
      </trkpt>
      <trkpt lat="45.87294" lon="4.77948">
        <ele>263</ele>
        <time>2014-11-16T08:54:40Z</time>
      </trkpt>
      <trkpt lat="45.87294" lon="4.77958">
        <ele>263</ele>
        <time>2014-11-16T08:54:44Z</time>
      </trkpt>
      <trkpt lat="45.87295" lon="4.77961">
        <ele>263</ele>
        <time>2014-11-16T08:54:45Z</time>
      </trkpt>
      <trkpt lat="45.87298" lon="4.7798">
        <ele>263</ele>
        <time>2014-11-16T08:54:51Z</time>
      </trkpt>
      <trkpt lat="45.87297" lon="4.77985">
        <ele>263</ele>
        <time>2014-11-16T08:54:53Z</time>
      </trkpt>
      <trkpt lat="45.87294" lon="4.77992">
        <ele>263</ele>
        <time>2014-11-16T08:54:56Z</time>
      </trkpt>
      <trkpt lat="45.87284" lon="4.77995">
        <ele>265</ele>
        <time>2014-11-16T08:55:01Z</time>
      </trkpt>
      <trkpt lat="45.87282" lon="4.77994">
        <ele>265</ele>
        <time>2014-11-16T08:55:03Z</time>
      </trkpt>
      <trkpt lat="45.87277" lon="4.77992">
        <ele>266</ele>
        <time>2014-11-16T08:55:06Z</time>
      </trkpt>
      <trkpt lat="45.87268" lon="4.77993">
        <ele>267</ele>
        <time>2014-11-16T08:55:11Z</time>
      </trkpt>
      <trkpt lat="45.87266" lon="4.77994">
        <ele>268</ele>
        <time>2014-11-16T08:55:12Z</time>
      </trkpt>
      <trkpt lat="45.87263" lon="4.77995">
        <ele>268</ele>
        <time>2014-11-16T08:55:14Z</time>
      </trkpt>
      <trkpt lat="45.87258" lon="4.77997">
        <ele>270</ele>
        <time>2014-11-16T08:55:17Z</time>
      </trkpt>
      <trkpt lat="45.87249" lon="4.78002">
        <ele>272</ele>
        <time>2014-11-16T08:55:22Z</time>
      </trkpt>
      <trkpt lat="45.87246" lon="4.78003">
        <ele>273</ele>
        <time>2014-11-16T08:55:24Z</time>
      </trkpt>
      <trkpt lat="45.8724" lon="4.78005">
        <ele>274</ele>
        <time>2014-11-16T08:55:28Z</time>
      </trkpt>
      <trkpt lat="45.87231" lon="4.78005">
        <ele>274</ele>
        <time>2014-11-16T08:55:33Z</time>
      </trkpt>
      <trkpt lat="45.87227" lon="4.78006">
        <ele>275</ele>
        <time>2014-11-16T08:55:35Z</time>
      </trkpt>
      <trkpt lat="45.87222" lon="4.78006">
        <ele>276</ele>
        <time>2014-11-16T08:55:38Z</time>
      </trkpt>
      <trkpt lat="45.8722" lon="4.78007">
        <ele>276</ele>
        <time>2014-11-16T08:55:39Z</time>
      </trkpt>
      <trkpt lat="45.87212" lon="4.78009">
        <ele>277</ele>
        <time>2014-11-16T08:55:43Z</time>
      </trkpt>
      <trkpt lat="45.87209" lon="4.7801">
        <ele>277</ele>
        <time>2014-11-16T08:55:45Z</time>
      </trkpt>
      <trkpt lat="45.87202" lon="4.78012">
        <ele>278</ele>
        <time>2014-11-16T08:55:49Z</time>
      </trkpt>
      <trkpt lat="45.87199" lon="4.78015">
        <ele>278</ele>
        <time>2014-11-16T08:55:51Z</time>
      </trkpt>
      <trkpt lat="45.87194" lon="4.78022">
        <ele>278</ele>
        <time>2014-11-16T08:55:55Z</time>
      </trkpt>
      <trkpt lat="45.87192" lon="4.78024">
        <ele>278</ele>
        <time>2014-11-16T08:55:56Z</time>
      </trkpt>
      <trkpt lat="45.87188" lon="4.78036">
        <ele>278</ele>
        <time>2014-11-16T08:56:01Z</time>
      </trkpt>
      <trkpt lat="45.87182" lon="4.78044">
        <ele>278</ele>
        <time>2014-11-16T08:56:05Z</time>
      </trkpt>
      <trkpt lat="45.87179" lon="4.78048">
        <ele>278</ele>
        <time>2014-11-16T08:56:07Z</time>
      </trkpt>
      <trkpt lat="45.87167" lon="4.78052">
        <ele>278</ele>
        <time>2014-11-16T08:56:13Z</time>
      </trkpt>
      <trkpt lat="45.87164" lon="4.78053">
        <ele>287</ele>
        <time>2014-11-16T08:56:15Z</time>
      </trkpt>
      <trkpt lat="45.87156" lon="4.78056">
        <ele>287</ele>
        <time>2014-11-16T08:56:19Z</time>
      </trkpt>
      <trkpt lat="45.87149" lon="4.78057">
        <ele>287</ele>
        <time>2014-11-16T08:56:23Z</time>
      </trkpt>
      <trkpt lat="45.87148" lon="4.78058">
        <ele>287</ele>
        <time>2014-11-16T08:56:24Z</time>
      </trkpt>
      <trkpt lat="45.87139" lon="4.78062">
        <ele>288</ele>
        <time>2014-11-16T08:56:29Z</time>
      </trkpt>
      <trkpt lat="45.87128" lon="4.78066">
        <ele>289</ele>
        <time>2014-11-16T08:56:36Z</time>
      </trkpt>
      <trkpt lat="45.87126" lon="4.78066">
        <ele>289</ele>
        <time>2014-11-16T08:56:37Z</time>
      </trkpt>
      <trkpt lat="45.8712" lon="4.78068">
        <ele>290</ele>
        <time>2014-11-16T08:56:42Z</time>
      </trkpt>
      <trkpt lat="45.87116" lon="4.78069">
        <ele>290</ele>
        <time>2014-11-16T08:56:45Z</time>
      </trkpt>
      <trkpt lat="45.87114" lon="4.78068">
        <ele>291</ele>
        <time>2014-11-16T08:56:47Z</time>
      </trkpt>
      <trkpt lat="45.87109" lon="4.78067">
        <ele>291</ele>
        <time>2014-11-16T08:56:52Z</time>
      </trkpt>
      <trkpt lat="45.87107" lon="4.78066">
        <ele>291</ele>
        <time>2014-11-16T08:56:53Z</time>
      </trkpt>
      <trkpt lat="45.871" lon="4.78066">
        <ele>292</ele>
        <time>2014-11-16T08:56:59Z</time>
      </trkpt>
      <trkpt lat="45.8709" lon="4.78067">
        <ele>293</ele>
        <time>2014-11-16T08:57:07Z</time>
      </trkpt>
      <trkpt lat="45.87088" lon="4.78068">
        <ele>293</ele>
        <time>2014-11-16T08:57:09Z</time>
      </trkpt>
      <trkpt lat="45.87082" lon="4.7807">
        <ele>299</ele>
        <time>2014-11-16T08:57:14Z</time>
      </trkpt>
      <trkpt lat="45.87073" lon="4.78073">
        <ele>299</ele>
        <time>2014-11-16T08:57:21Z</time>
      </trkpt>
      <trkpt lat="45.8707" lon="4.78073">
        <ele>299</ele>
        <time>2014-11-16T08:57:23Z</time>
      </trkpt>
      <trkpt lat="45.87065" lon="4.78074">
        <ele>300</ele>
        <time>2014-11-16T08:57:27Z</time>
      </trkpt>
      <trkpt lat="45.87061" lon="4.78073">
        <ele>300</ele>
        <time>2014-11-16T08:57:31Z</time>
      </trkpt>
      <trkpt lat="45.87058" lon="4.78072">
        <ele>301</ele>
        <time>2014-11-16T08:57:35Z</time>
      </trkpt>
      <trkpt lat="45.87052" lon="4.78074">
        <ele>301</ele>
        <time>2014-11-16T08:57:38Z</time>
      </trkpt>
      <trkpt lat="45.87051" lon="4.78075">
        <ele>302</ele>
        <time>2014-11-16T08:57:39Z</time>
      </trkpt>
      <trkpt lat="45.87041" lon="4.78077">
        <ele>303</ele>
        <time>2014-11-16T08:57:47Z</time>
      </trkpt>
      <trkpt lat="45.87038" lon="4.78078">
        <ele>303</ele>
        <time>2014-11-16T08:57:49Z</time>
      </trkpt>
      <trkpt lat="45.87034" lon="4.7808">
        <ele>304</ele>
        <time>2014-11-16T08:57:51Z</time>
      </trkpt>
      <trkpt lat="45.87032" lon="4.78081">
        <ele>304</ele>
        <time>2014-11-16T08:57:53Z</time>
      </trkpt>
      <trkpt lat="45.87029" lon="4.78083">
        <ele>304</ele>
        <time>2014-11-16T08:57:55Z</time>
      </trkpt>
      <trkpt lat="45.8702" lon="4.78091">
        <ele>303</ele>
        <time>2014-11-16T08:58:00Z</time>
      </trkpt>
      <trkpt lat="45.87018" lon="4.78092">
        <ele>304</ele>
        <time>2014-11-16T08:58:02Z</time>
      </trkpt>
      <trkpt lat="45.87011" lon="4.78093">
        <ele>305</ele>
        <time>2014-11-16T08:58:07Z</time>
      </trkpt>
      <trkpt lat="45.87006" lon="4.78093">
        <ele>306</ele>
        <time>2014-11-16T08:58:12Z</time>
      </trkpt>
      <trkpt lat="45.86999" lon="4.78094">
        <ele>310</ele>
        <time>2014-11-16T08:58:17Z</time>
      </trkpt>
      <trkpt lat="45.86998" lon="4.78094">
        <ele>310</ele>
        <time>2014-11-16T08:58:18Z</time>
      </trkpt>
      <trkpt lat="45.86991" lon="4.78093">
        <ele>310</ele>
        <time>2014-11-16T08:58:24Z</time>
      </trkpt>
      <trkpt lat="45.86981" lon="4.78093">
        <ele>310</ele>
        <time>2014-11-16T08:58:31Z</time>
      </trkpt>
      <trkpt lat="45.86973" lon="4.78095">
        <ele>310</ele>
        <time>2014-11-16T08:58:37Z</time>
      </trkpt>
      <trkpt lat="45.86963" lon="4.78096">
        <ele>311</ele>
        <time>2014-11-16T08:58:45Z</time>
      </trkpt>
      <trkpt lat="45.86962" lon="4.78096">
        <ele>311</ele>
        <time>2014-11-16T08:58:46Z</time>
      </trkpt>
      <trkpt lat="45.86952" lon="4.78096">
        <ele>311</ele>
        <time>2014-11-16T08:58:53Z</time>
      </trkpt>
      <trkpt lat="45.86944" lon="4.78097">
        <ele>312</ele>
        <time>2014-11-16T08:58:59Z</time>
      </trkpt>
      <trkpt lat="45.86942" lon="4.78097">
        <ele>312</ele>
        <time>2014-11-16T08:59:00Z</time>
      </trkpt>
      <trkpt lat="45.86929" lon="4.781">
        <ele>314</ele>
        <time>2014-11-16T08:59:09Z</time>
      </trkpt>
      <trkpt lat="45.86925" lon="4.781">
        <ele>314</ele>
        <time>2014-11-16T08:59:13Z</time>
      </trkpt>
      <trkpt lat="45.86922" lon="4.78099">
        <ele>314</ele>
        <time>2014-11-16T08:59:16Z</time>
      </trkpt>
      <trkpt lat="45.86914" lon="4.78095">
        <ele>319</ele>
        <time>2014-11-16T08:59:22Z</time>
      </trkpt>
      <trkpt lat="45.86908" lon="4.78092">
        <ele>320</ele>
        <time>2014-11-16T08:59:27Z</time>
      </trkpt>
      <trkpt lat="45.86906" lon="4.78091">
        <ele>320</ele>
        <time>2014-11-16T08:59:29Z</time>
      </trkpt>
      <trkpt lat="45.86901" lon="4.7809">
        <ele>320</ele>
        <time>2014-11-16T08:59:33Z</time>
      </trkpt>
      <trkpt lat="45.86895" lon="4.78088">
        <ele>320</ele>
        <time>2014-11-16T08:59:37Z</time>
      </trkpt>
      <trkpt lat="45.86893" lon="4.78088">
        <ele>320</ele>
        <time>2014-11-16T08:59:38Z</time>
      </trkpt>
      <trkpt lat="45.8689" lon="4.78087">
        <ele>321</ele>
        <time>2014-11-16T08:59:40Z</time>
      </trkpt>
      <trkpt lat="45.86882" lon="4.78087">
        <ele>321</ele>
        <time>2014-11-16T08:59:46Z</time>
      </trkpt>
      <trkpt lat="45.86872" lon="4.78089">
        <ele>322</ele>
        <time>2014-11-16T08:59:54Z</time>
      </trkpt>
      <trkpt lat="45.86861" lon="4.78092">
        <ele>324</ele>
        <time>2014-11-16T09:00:03Z</time>
      </trkpt>
      <trkpt lat="45.86854" lon="4.78095">
        <ele>325</ele>
        <time>2014-11-16T09:00:09Z</time>
      </trkpt>
      <trkpt lat="45.86853" lon="4.78096">
        <ele>325</ele>
        <time>2014-11-16T09:00:10Z</time>
      </trkpt>
      <trkpt lat="45.86846" lon="4.781">
        <ele>325</ele>
        <time>2014-11-16T09:00:16Z</time>
      </trkpt>
      <trkpt lat="45.86845" lon="4.781">
        <ele>325</ele>
        <time>2014-11-16T09:00:18Z</time>
      </trkpt>
      <trkpt lat="45.86836" lon="4.78103">
        <ele>325</ele>
        <time>2014-11-16T09:00:24Z</time>
      </trkpt>
      <trkpt lat="45.86835" lon="4.78104">
        <ele>325</ele>
        <time>2014-11-16T09:00:25Z</time>
      </trkpt>
      <trkpt lat="45.86829" lon="4.78105">
        <ele>333</ele>
        <time>2014-11-16T09:00:30Z</time>
      </trkpt>
      <trkpt lat="45.86828" lon="4.78104">
        <ele>333</ele>
        <time>2014-11-16T09:00:32Z</time>
      </trkpt>
      <trkpt lat="45.86823" lon="4.78107">
        <ele>333</ele>
        <time>2014-11-16T09:00:37Z</time>
      </trkpt>
      <trkpt lat="45.86819" lon="4.78107">
        <ele>333</ele>
        <time>2014-11-16T09:00:41Z</time>
      </trkpt>
      <trkpt lat="45.86818" lon="4.78106">
        <ele>333</ele>
        <time>2014-11-16T09:00:42Z</time>
      </trkpt>
      <trkpt lat="45.86813" lon="4.78099">
        <ele>334</ele>
        <time>2014-11-16T09:00:49Z</time>
      </trkpt>
      <trkpt lat="45.86812" lon="4.78098">
        <ele>334</ele>
        <time>2014-11-16T09:00:51Z</time>
      </trkpt>
      <trkpt lat="45.86806" lon="4.78097">
        <ele>335</ele>
        <time>2014-11-16T09:00:55Z</time>
      </trkpt>
      <trkpt lat="45.86802" lon="4.78096">
        <ele>335</ele>
        <time>2014-11-16T09:00:58Z</time>
      </trkpt>
      <trkpt lat="45.86798" lon="4.78096">
        <ele>336</ele>
        <time>2014-11-16T09:01:01Z</time>
      </trkpt>
      <trkpt lat="45.86795" lon="4.78097">
        <ele>336</ele>
        <time>2014-11-16T09:01:03Z</time>
      </trkpt>
      <trkpt lat="45.86794" lon="4.78097">
        <ele>336</ele>
        <time>2014-11-16T09:01:04Z</time>
      </trkpt>
      <trkpt lat="45.86792" lon="4.78095">
        <ele>337</ele>
        <time>2014-11-16T09:01:07Z</time>
      </trkpt>
      <trkpt lat="45.86786" lon="4.78094">
        <ele>338</ele>
        <time>2014-11-16T09:01:13Z</time>
      </trkpt>
      <trkpt lat="45.86785" lon="4.78093">
        <ele>338</ele>
        <time>2014-11-16T09:01:14Z</time>
      </trkpt>
      <trkpt lat="45.86784" lon="4.78092">
        <ele>338</ele>
        <time>2014-11-16T09:01:16Z</time>
      </trkpt>
      <trkpt lat="45.86783" lon="4.78092">
        <ele>338</ele>
        <time>2014-11-16T09:01:17Z</time>
      </trkpt>
      <trkpt lat="45.86778" lon="4.7809">
        <ele>339</ele>
        <time>2014-11-16T09:01:23Z</time>
      </trkpt>
      <trkpt lat="45.86772" lon="4.78091">
        <ele>341</ele>
        <time>2014-11-16T09:01:29Z</time>
      </trkpt>
      <trkpt lat="45.86767" lon="4.78089">
        <ele>342</ele>
        <time>2014-11-16T09:01:34Z</time>
      </trkpt>
      <trkpt lat="45.86766" lon="4.78088">
        <ele>343</ele>
        <time>2014-11-16T09:01:35Z</time>
      </trkpt>
      <trkpt lat="45.86766" lon="4.78088">
        <ele>343</ele>
        <time>2014-11-16T09:01:36Z</time>
      </trkpt>
      <trkpt lat="45.86761" lon="4.78089">
        <ele>344</ele>
        <time>2014-11-16T09:01:41Z</time>
      </trkpt>
      <trkpt lat="45.86757" lon="4.78088">
        <ele>346</ele>
        <time>2014-11-16T09:01:46Z</time>
      </trkpt>
      <trkpt lat="45.86756" lon="4.78087">
        <ele>346</ele>
        <time>2014-11-16T09:01:47Z</time>
      </trkpt>
      <trkpt lat="45.86754" lon="4.78085">
        <ele>348</ele>
        <time>2014-11-16T09:01:50Z</time>
      </trkpt>
      <trkpt lat="45.86751" lon="4.78085">
        <ele>349</ele>
        <time>2014-11-16T09:01:53Z</time>
      </trkpt>
      <trkpt lat="45.86748" lon="4.78085">
        <ele>351</ele>
        <time>2014-11-16T09:01:56Z</time>
      </trkpt>
      <trkpt lat="45.86745" lon="4.78086">
        <ele>351</ele>
        <time>2014-11-16T09:01:59Z</time>
      </trkpt>
      <trkpt lat="45.86743" lon="4.78087">
        <ele>351</ele>
        <time>2014-11-16T09:02:00Z</time>
      </trkpt>
      <trkpt lat="45.86739" lon="4.78086">
        <ele>352</ele>
        <time>2014-11-16T09:02:05Z</time>
      </trkpt>
      <trkpt lat="45.86738" lon="4.78087">
        <ele>352</ele>
        <time>2014-11-16T09:02:06Z</time>
      </trkpt>
      <trkpt lat="45.86731" lon="4.7809">
        <ele>353</ele>
        <time>2014-11-16T09:02:12Z</time>
      </trkpt>
      <trkpt lat="45.8673" lon="4.78091">
        <ele>354</ele>
        <time>2014-11-16T09:02:13Z</time>
      </trkpt>
      <trkpt lat="45.86727" lon="4.78093">
        <ele>354</ele>
        <time>2014-11-16T09:02:16Z</time>
      </trkpt>
      <trkpt lat="45.86724" lon="4.78093">
        <ele>355</ele>
        <time>2014-11-16T09:02:18Z</time>
      </trkpt>
      <trkpt lat="45.86722" lon="4.78092">
        <ele>355</ele>
        <time>2014-11-16T09:02:20Z</time>
      </trkpt>
      <trkpt lat="45.86717" lon="4.78092">
        <ele>356</ele>
        <time>2014-11-16T09:02:25Z</time>
      </trkpt>
      <trkpt lat="45.86714" lon="4.78093">
        <ele>356</ele>
        <time>2014-11-16T09:02:29Z</time>
      </trkpt>
      <trkpt lat="45.86712" lon="4.78094">
        <ele>357</ele>
        <time>2014-11-16T09:02:31Z</time>
      </trkpt>
      <trkpt lat="45.8671" lon="4.78093">
        <ele>357</ele>
        <time>2014-11-16T09:02:33Z</time>
      </trkpt>
      <trkpt lat="45.86708" lon="4.78093">
        <ele>358</ele>
        <time>2014-11-16T09:02:35Z</time>
      </trkpt>
      <trkpt lat="45.867" lon="4.78094">
        <ele>359</ele>
        <time>2014-11-16T09:02:44Z</time>
      </trkpt>
      <trkpt lat="45.86694" lon="4.78095">
        <ele>361</ele>
        <time>2014-11-16T09:02:50Z</time>
      </trkpt>
      <trkpt lat="45.86693" lon="4.78095">
        <ele>361</ele>
        <time>2014-11-16T09:02:51Z</time>
      </trkpt>
      <trkpt lat="45.86686" lon="4.78095">
        <ele>363</ele>
        <time>2014-11-16T09:02:57Z</time>
      </trkpt>
      <trkpt lat="45.86682" lon="4.78093">
        <ele>364</ele>
        <time>2014-11-16T09:03:02Z</time>
      </trkpt>
      <trkpt lat="45.86676" lon="4.78092">
        <ele>366</ele>
        <time>2014-11-16T09:03:09Z</time>
      </trkpt>
      <trkpt lat="45.86675" lon="4.78092">
        <ele>366</ele>
        <time>2014-11-16T09:03:11Z</time>
      </trkpt>
      <trkpt lat="45.86671" lon="4.78093">
        <ele>367</ele>
        <time>2014-11-16T09:03:15Z</time>
      </trkpt>
      <trkpt lat="45.86668" lon="4.78093">
        <ele>367</ele>
        <time>2014-11-16T09:03:19Z</time>
      </trkpt>
      <trkpt lat="45.86666" lon="4.78092">
        <ele>375</ele>
        <time>2014-11-16T09:03:21Z</time>
      </trkpt>
      <trkpt lat="45.86663" lon="4.78092">
        <ele>375</ele>
        <time>2014-11-16T09:03:24Z</time>
      </trkpt>
      <trkpt lat="45.86662" lon="4.78093">
        <ele>376</ele>
        <time>2014-11-16T09:03:26Z</time>
      </trkpt>
      <trkpt lat="45.86658" lon="4.78094">
        <ele>376</ele>
        <time>2014-11-16T09:03:31Z</time>
      </trkpt>
      <trkpt lat="45.86658" lon="4.78094">
        <ele>376</ele>
        <time>2014-11-16T09:03:32Z</time>
      </trkpt>
      <trkpt lat="45.86655" lon="4.78095">
        <ele>377</ele>
        <time>2014-11-16T09:03:36Z</time>
      </trkpt>
    </trkseg>
    </trkseg>
      <trkpt lat="45.86554" lon="4.78149">
        <ele>402</ele>
        <time>2014-11-16T09:36:16Z</time>
      </trkpt>
      <trkpt lat="45.86551" lon="4.78153">
        <ele>402</ele>
        <time>2014-11-16T09:36:19Z</time>
      </trkpt>
      <trkpt lat="45.86546" lon="4.78161">
        <ele>403</ele>
        <time>2014-11-16T09:36:26Z</time>
      </trkpt>
      <trkpt lat="45.86547" lon="4.78164">
        <ele>403</ele>
        <time>2014-11-16T09:36:29Z</time>
      </trkpt>
      <trkpt lat="45.86548" lon="4.78166">
        <ele>403</ele>
        <time>2014-11-16T09:36:30Z</time>
      </trkpt>
      <trkpt lat="45.86549" lon="4.78168">
        <ele>398</ele>
        <time>2014-11-16T09:36:32Z</time>
      </trkpt>
      <trkpt lat="45.86549" lon="4.78171">
        <ele>398</ele>
        <time>2014-11-16T09:36:33Z</time>
      </trkpt>
      <trkpt lat="45.86549" lon="4.78172">
        <ele>398</ele>
        <time>2014-11-16T09:36:34Z</time>
      </trkpt>
      <trkpt lat="45.86547" lon="4.78178">
        <ele>397</ele>
        <time>2014-11-16T09:36:38Z</time>
      </trkpt>
      <trkpt lat="45.86547" lon="4.78179">
        <ele>397</ele>
        <time>2014-11-16T09:36:39Z</time>
      </trkpt>
      <trkpt lat="45.86546" lon="4.78181">
        <ele>398</ele>
        <time>2014-11-16T09:36:41Z</time>
      </trkpt>
      <trkpt lat="45.86545" lon="4.78185">
        <ele>397</ele>
        <time>2014-11-16T09:36:44Z</time>
      </trkpt>
      <trkpt lat="45.86545" lon="4.7819">
        <ele>397</ele>
        <time>2014-11-16T09:36:50Z</time>
      </trkpt>
      <trkpt lat="45.86542" lon="4.78196">
        <ele>397</ele>
        <time>2014-11-16T09:36:55Z</time>
      </trkpt>
      <trkpt lat="45.86543" lon="4.782">
        <ele>396</ele>
        <time>2014-11-16T09:37:00Z</time>
      </trkpt>
      <trkpt lat="45.86542" lon="4.78202">
        <ele>396</ele>
        <time>2014-11-16T09:37:02Z</time>
      </trkpt>
      <trkpt lat="45.86541" lon="4.78204">
        <ele>396</ele>
        <time>2014-11-16T09:37:04Z</time>
      </trkpt>
      <trkpt lat="45.86543" lon="4.78206">
        <ele>395</ele>
        <time>2014-11-16T09:37:09Z</time>
      </trkpt>
      <trkpt lat="45.86543" lon="4.78211">
        <ele>394</ele>
        <time>2014-11-16T09:37:15Z</time>
      </trkpt>
      <trkpt lat="45.86542" lon="4.78214">
        <ele>394</ele>
        <time>2014-11-16T09:37:19Z</time>
      </trkpt>
      <trkpt lat="45.86545" lon="4.78217">
        <ele>393</ele>
        <time>2014-11-16T09:37:22Z</time>
      </trkpt>
      <trkpt lat="45.86545" lon="4.78219">
        <ele>393</ele>
        <time>2014-11-16T09:37:23Z</time>
      </trkpt>
      <trkpt lat="45.86546" lon="4.78219">
        <ele>393</ele>
        <time>2014-11-16T09:37:25Z</time>
      </trkpt>
      <trkpt lat="45.86547" lon="4.78221">
        <ele>392</ele>
        <time>2014-11-16T09:37:28Z</time>
      </trkpt>
      <trkpt lat="45.86548" lon="4.78222">
        <ele>392</ele>
        <time>2014-11-16T09:37:29Z</time>
      </trkpt>
      <trkpt lat="45.86548" lon="4.78226">
        <ele>391</ele>
        <time>2014-11-16T09:37:32Z</time>
      </trkpt>
      <trkpt lat="45.86548" lon="4.78232">
        <ele>391</ele>
        <time>2014-11-16T09:37:36Z</time>
      </trkpt>
      <trkpt lat="45.86547" lon="4.78233">
        <ele>390</ele>
        <time>2014-11-16T09:37:37Z</time>
      </trkpt>
      <trkpt lat="45.86547" lon="4.78234">
        <ele>390</ele>
        <time>2014-11-16T09:37:38Z</time>
      </trkpt>
      <trkpt lat="45.86545" lon="4.7824">
        <ele>390</ele>
        <time>2014-11-16T09:37:42Z</time>
      </trkpt>
      <trkpt lat="45.86546" lon="4.78243">
        <ele>390</ele>
        <time>2014-11-16T09:37:47Z</time>
      </trkpt>
      <trkpt lat="45.86545" lon="4.78246">
        <ele>390</ele>
        <time>2014-11-16T09:37:49Z</time>
      </trkpt>
      <trkpt lat="45.86545" lon="4.78248">
        <ele>390</ele>
        <time>2014-11-16T09:37:50Z</time>
      </trkpt>
      <trkpt lat="45.86543" lon="4.78254">
        <ele>377</ele>
        <time>2014-11-16T09:37:55Z</time>
      </trkpt>
      <trkpt lat="45.86543" lon="4.78256">
        <ele>377</ele>
        <time>2014-11-16T09:37:56Z</time>
      </trkpt>
      <trkpt lat="45.86543" lon="4.78258">
        <ele>377</ele>
        <time>2014-11-16T09:37:58Z</time>
      </trkpt>
      <trkpt lat="45.86545" lon="4.78261">
        <ele>376</ele>
        <time>2014-11-16T09:38:00Z</time>
      </trkpt>
      <trkpt lat="45.86545" lon="4.78262">
        <ele>376</ele>
        <time>2014-11-16T09:38:01Z</time>
      </trkpt>
      <trkpt lat="45.86544" lon="4.78266">
        <ele>376</ele>
        <time>2014-11-16T09:38:04Z</time>
      </trkpt>
      <trkpt lat="45.86543" lon="4.78271">
        <ele>376</ele>
        <time>2014-11-16T09:38:08Z</time>
      </trkpt>
      <trkpt lat="45.86542" lon="4.78272">
        <ele>376</ele>
        <time>2014-11-16T09:38:09Z</time>
      </trkpt>
      <trkpt lat="45.86542" lon="4.78275">
        <ele>376</ele>
        <time>2014-11-16T09:38:11Z</time>
      </trkpt>
      <trkpt lat="45.86549" lon="4.78285">
        <ele>373</ele>
        <time>2014-11-16T09:38:15Z</time>
      </trkpt>
      <trkpt lat="45.86552" lon="4.78296">
        <ele>372</ele>
        <time>2014-11-16T09:38:20Z</time>
      </trkpt>
      <trkpt lat="45.86552" lon="4.78299">
        <ele>371</ele>
        <time>2014-11-16T09:38:22Z</time>
      </trkpt>
      <trkpt lat="45.86553" lon="4.78303">
        <ele>371</ele>
        <time>2014-11-16T09:38:26Z</time>
      </trkpt>
      <trkpt lat="45.86554" lon="4.78307">
        <ele>370</ele>
        <time>2014-11-16T09:38:30Z</time>
      </trkpt>
      <trkpt lat="45.86554" lon="4.78309">
        <ele>370</ele>
        <time>2014-11-16T09:38:31Z</time>
      </trkpt>
      <trkpt lat="45.86554" lon="4.78313">
        <ele>369</ele>
        <time>2014-11-16T09:38:34Z</time>
      </trkpt>
      <trkpt lat="45.86554" lon="4.78314">
        <ele>369</ele>
        <time>2014-11-16T09:38:35Z</time>
      </trkpt>
      <trkpt lat="45.86555" lon="4.78322">
        <ele>368</ele>
        <time>2014-11-16T09:38:41Z</time>
      </trkpt>
      <trkpt lat="45.86553" lon="4.78328">
        <ele>368</ele>
        <time>2014-11-16T09:38:46Z</time>
      </trkpt>
      <trkpt lat="45.86553" lon="4.78329">
        <ele>367</ele>
        <time>2014-11-16T09:38:47Z</time>
      </trkpt>
      <trkpt lat="45.86552" lon="4.78334">
        <ele>364</ele>
        <time>2014-11-16T09:38:51Z</time>
      </trkpt>
      <trkpt lat="45.86551" lon="4.78336">
        <ele>364</ele>
        <time>2014-11-16T09:38:59Z</time>
      </trkpt>
      <trkpt lat="45.86552" lon="4.78339">
        <ele>364</ele>
        <time>2014-11-16T09:39:02Z</time>
      </trkpt>
      <trkpt lat="45.86554" lon="4.78345">
        <ele>364</ele>
        <time>2014-11-16T09:39:05Z</time>
      </trkpt>
      <trkpt lat="45.86554" lon="4.78347">
        <ele>364</ele>
        <time>2014-11-16T09:39:08Z</time>
      </trkpt>
      <trkpt lat="45.86556" lon="4.7835">
        <ele>364</ele>
        <time>2014-11-16T09:39:10Z</time>
      </trkpt>
      <trkpt lat="45.86562" lon="4.78354">
        <ele>363</ele>
        <time>2014-11-16T09:39:23Z</time>
      </trkpt>
      <trkpt lat="45.86563" lon="4.78359">
        <ele>363</ele>
        <time>2014-11-16T09:39:26Z</time>
      </trkpt>
      <trkpt lat="45.86563" lon="4.7836">
        <ele>364</ele>
        <time>2014-11-16T09:39:27Z</time>
      </trkpt>
      <trkpt lat="45.86565" lon="4.7836">
        <ele>363</ele>
        <time>2014-11-16T09:39:34Z</time>
      </trkpt>
      <trkpt lat="45.86571" lon="4.78368">
        <ele>364</ele>
        <time>2014-11-16T09:39:53Z</time>
      </trkpt>
      <trkpt lat="45.86568" lon="4.7837">
        <ele>364</ele>
        <time>2014-11-16T09:39:54Z</time>
      </trkpt>
      <trkpt lat="45.86564" lon="4.78376">
        <ele>365</ele>
        <time>2014-11-16T09:39:59Z</time>
      </trkpt>
      <trkpt lat="45.86564" lon="4.78376">
        <ele>365</ele>
        <time>2014-11-16T09:40:00Z</time>
      </trkpt>
      <trkpt lat="45.8656" lon="4.78377">
        <ele>366</ele>
        <time>2014-11-16T09:40:04Z</time>
      </trkpt>
      <trkpt lat="45.86554" lon="4.7838">
        <ele>366</ele>
        <time>2014-11-16T09:40:14Z</time>
      </trkpt>
      <trkpt lat="45.86553" lon="4.78378">
        <ele>366</ele>
        <time>2014-11-16T09:40:17Z</time>
      </trkpt>
      <trkpt lat="45.86552" lon="4.7837">
        <ele>366</ele>
        <time>2014-11-16T09:40:20Z</time>
      </trkpt>
      <trkpt lat="45.8655" lon="4.78368">
        <ele>366</ele>
        <time>2014-11-16T09:40:21Z</time>
      </trkpt>
      <trkpt lat="45.86549" lon="4.78366">
        <ele>366</ele>
        <time>2014-11-16T09:40:22Z</time>
      </trkpt>
      <trkpt lat="45.86551" lon="4.78363">
        <ele>366</ele>
        <time>2014-11-16T09:40:23Z</time>
      </trkpt>
      <trkpt lat="45.86562" lon="4.78356">
        <ele>363</ele>
        <time>2014-11-16T09:40:26Z</time>
      </trkpt>
      <trkpt lat="45.8657" lon="4.7835">
        <ele>361</ele>
        <time>2014-11-16T09:40:29Z</time>
      </trkpt>
      <trkpt lat="45.86571" lon="4.78348">
        <ele>360</ele>
        <time>2014-11-16T09:40:31Z</time>
      </trkpt>
      <trkpt lat="45.86571" lon="4.78348">
        <ele>360</ele>
        <time>2014-11-16T09:40:33Z</time>
      </trkpt>
      <trkpt lat="45.86575" lon="4.78343">
        <ele>358</ele>
        <time>2014-11-16T09:40:40Z</time>
      </trkpt>
      <trkpt lat="45.86576" lon="4.78341">
        <ele>357</ele>
        <time>2014-11-16T09:40:45Z</time>
      </trkpt>
      <trkpt lat="45.86588" lon="4.78344">
        <ele>354</ele>
        <time>2014-11-16T09:41:09Z</time>
      </trkpt>
      <trkpt lat="45.86587" lon="4.78346">
        <ele>354</ele>
        <time>2014-11-16T09:41:11Z</time>
      </trkpt>
      <trkpt lat="45.86589" lon="4.78341">
        <ele>353</ele>
        <time>2014-11-16T09:41:22Z</time>
      </trkpt>
      <trkpt lat="45.86587" lon="4.78341">
        <ele>353</ele>
        <time>2014-11-16T09:41:25Z</time>
      </trkpt>
      <trkpt lat="45.86587" lon="4.78343">
        <ele>354</ele>
        <time>2014-11-16T09:41:28Z</time>
      </trkpt>
      <trkpt lat="45.86584" lon="4.78343">
        <ele>353</ele>
        <time>2014-11-16T09:41:39Z</time>
      </trkpt>
      <trkpt lat="45.86587" lon="4.78344">
        <ele>354</ele>
        <time>2014-11-16T09:41:48Z</time>
      </trkpt>
      <trkpt lat="45.86596" lon="4.78342">
        <ele>354</ele>
        <time>2014-11-16T09:42:17Z</time>
      </trkpt>
      <trkpt lat="45.86597" lon="4.78344">
        <ele>355</ele>
        <time>2014-11-16T09:42:23Z</time>
      </trkpt>
      <trkpt lat="45.86592" lon="4.78353">
        <ele>356</ele>
        <time>2014-11-16T09:42:26Z</time>
      </trkpt>
      <trkpt lat="45.86589" lon="4.78366">
        <ele>358</ele>
        <time>2014-11-16T09:42:29Z</time>
      </trkpt>
      <trkpt lat="45.86585" lon="4.78375">
        <ele>359</ele>
        <time>2014-11-16T09:42:31Z</time>
      </trkpt>
      <trkpt lat="45.86579" lon="4.78381">
        <ele>365</ele>
        <time>2014-11-16T09:42:33Z</time>
      </trkpt>
      <trkpt lat="45.86575" lon="4.78383">
        <ele>365</ele>
        <time>2014-11-16T09:42:35Z</time>
      </trkpt>
      <trkpt lat="45.86575" lon="4.78385">
        <ele>365</ele>
        <time>2014-11-16T09:42:36Z</time>
      </trkpt>
      <trkpt lat="45.86574" lon="4.78389">
        <ele>366</ele>
        <time>2014-11-16T09:42:40Z</time>
      </trkpt>
      <trkpt lat="45.86577" lon="4.78387">
        <ele>365</ele>
        <time>2014-11-16T09:42:45Z</time>
      </trkpt>
      <trkpt lat="45.86576" lon="4.78386">
        <ele>365</ele>
        <time>2014-11-16T09:42:47Z</time>
      </trkpt>
      <trkpt lat="45.86579" lon="4.78383">
        <ele>365</ele>
        <time>2014-11-16T09:42:55Z</time>
      </trkpt>
      <trkpt lat="45.86576" lon="4.78382">
        <ele>365</ele>
        <time>2014-11-16T09:43:01Z</time>
      </trkpt>
      <trkpt lat="45.86578" lon="4.78376">
        <ele>364</ele>
        <time>2014-11-16T09:43:11Z</time>
      </trkpt>
      <trkpt lat="45.86576" lon="4.78376">
        <ele>364</ele>
        <time>2014-11-16T09:43:17Z</time>
      </trkpt>
      <trkpt lat="45.86576" lon="4.78379">
        <ele>365</ele>
        <time>2014-11-16T09:43:26Z</time>
      </trkpt>
      <trkpt lat="45.86574" lon="4.78382">
        <ele>365</ele>
        <time>2014-11-16T09:43:28Z</time>
      </trkpt>
      <trkpt lat="45.86572" lon="4.78385">
        <ele>365</ele>
        <time>2014-11-16T09:43:30Z</time>
      </trkpt>
      <trkpt lat="45.8657" lon="4.7839">
        <ele>366</ele>
        <time>2014-11-16T09:43:33Z</time>
      </trkpt>
      <trkpt lat="45.86564" lon="4.78397">
        <ele>366</ele>
        <time>2014-11-16T09:43:37Z</time>
      </trkpt>
      <trkpt lat="45.86559" lon="4.78401">
        <ele>367</ele>
        <time>2014-11-16T09:43:40Z</time>
      </trkpt>
      <trkpt lat="45.86557" lon="4.78402">
        <ele>367</ele>
        <time>2014-11-16T09:43:43Z</time>
      </trkpt>
      <trkpt lat="45.86554" lon="4.78403">
        <ele>367</ele>
        <time>2014-11-16T09:43:45Z</time>
      </trkpt>
      <trkpt lat="45.86552" lon="4.78401">
        <ele>367</ele>
        <time>2014-11-16T09:43:48Z</time>
      </trkpt>
      <trkpt lat="45.8655" lon="4.78399">
        <ele>367</ele>
        <time>2014-11-16T09:43:49Z</time>
      </trkpt>
      <trkpt lat="45.86544" lon="4.78395">
        <ele>368</ele>
        <time>2014-11-16T09:43:52Z</time>
      </trkpt>
      <trkpt lat="45.86539" lon="4.78391">
        <ele>368</ele>
        <time>2014-11-16T09:43:54Z</time>
      </trkpt>
      <trkpt lat="45.8653" lon="4.78388">
        <ele>369</ele>
        <time>2014-11-16T09:43:58Z</time>
      </trkpt>
      <trkpt lat="45.86521" lon="4.7839">
        <ele>370</ele>
        <time>2014-11-16T09:44:03Z</time>
      </trkpt>
      <trkpt lat="45.8652" lon="4.7839">
        <ele>370</ele>
        <time>2014-11-16T09:44:04Z</time>
      </trkpt>
      <trkpt lat="45.86519" lon="4.7839">
        <ele>370</ele>
        <time>2014-11-16T09:44:05Z</time>
      </trkpt>
      <trkpt lat="45.86513" lon="4.78392">
        <ele>370</ele>
        <time>2014-11-16T09:44:10Z</time>
      </trkpt>
      <trkpt lat="45.86511" lon="4.78393">
        <ele>370</ele>
        <time>2014-11-16T09:44:12Z</time>
      </trkpt>
      <trkpt lat="45.86508" lon="4.78395">
        <ele>371</ele>
        <time>2014-11-16T09:44:15Z</time>
      </trkpt>
      <trkpt lat="45.86501" lon="4.78396">
        <ele>371</ele>
        <time>2014-11-16T09:44:19Z</time>
      </trkpt>
      <trkpt lat="45.86499" lon="4.78398">
        <ele>379</ele>
        <time>2014-11-16T09:44:20Z</time>
      </trkpt>
      <trkpt lat="45.86492" lon="4.78402">
        <ele>379</ele>
        <time>2014-11-16T09:44:23Z</time>
      </trkpt>
      <trkpt lat="45.8649" lon="4.78403">
        <ele>379</ele>
        <time>2014-11-16T09:44:25Z</time>
      </trkpt>
      <trkpt lat="45.86487" lon="4.78402">
        <ele>380</ele>
        <time>2014-11-16T09:44:27Z</time>
      </trkpt>
      <trkpt lat="45.86483" lon="4.784">
        <ele>380</ele>
        <time>2014-11-16T09:44:29Z</time>
      </trkpt>
      <trkpt lat="45.86481" lon="4.78399">
        <ele>381</ele>
        <time>2014-11-16T09:44:30Z</time>
      </trkpt>
      <trkpt lat="45.86476" lon="4.78399">
        <ele>382</ele>
        <time>2014-11-16T09:44:32Z</time>
      </trkpt>
      <trkpt lat="45.86471" lon="4.78402">
        <ele>382</ele>
        <time>2014-11-16T09:44:35Z</time>
      </trkpt>
      <trkpt lat="45.86469" lon="4.78403">
        <ele>382</ele>
        <time>2014-11-16T09:44:37Z</time>
      </trkpt>
      <trkpt lat="45.86464" lon="4.78405">
        <ele>383</ele>
        <time>2014-11-16T09:44:41Z</time>
      </trkpt>
      <trkpt lat="45.86462" lon="4.78405">
        <ele>383</ele>
        <time>2014-11-16T09:44:42Z</time>
      </trkpt>
      <trkpt lat="45.86461" lon="4.78406">
        <ele>383</ele>
        <time>2014-11-16T09:44:43Z</time>
      </trkpt>
      <trkpt lat="45.86455" lon="4.78408">
        <ele>383</ele>
        <time>2014-11-16T09:44:47Z</time>
      </trkpt>
      <trkpt lat="45.86454" lon="4.78409">
        <ele>384</ele>
        <time>2014-11-16T09:44:48Z</time>
      </trkpt>
      <trkpt lat="45.8645" lon="4.78408">
        <ele>384</ele>
        <time>2014-11-16T09:44:51Z</time>
      </trkpt>
      <trkpt lat="45.86446" lon="4.78408">
        <ele>384</ele>
        <time>2014-11-16T09:44:53Z</time>
      </trkpt>
      <trkpt lat="45.86446" lon="4.78409">
        <ele>384</ele>
        <time>2014-11-16T09:44:55Z</time>
      </trkpt>
      <trkpt lat="45.86445" lon="4.7841">
        <ele>384</ele>
        <time>2014-11-16T09:44:56Z</time>
      </trkpt>
      <trkpt lat="45.86439" lon="4.7841">
        <ele>384</ele>
        <time>2014-11-16T09:45:01Z</time>
      </trkpt>
      <trkpt lat="45.86434" lon="4.78411">
        <ele>385</ele>
        <time>2014-11-16T09:45:04Z</time>
      </trkpt>
      <trkpt lat="45.86434" lon="4.78412">
        <ele>385</ele>
        <time>2014-11-16T09:45:08Z</time>
      </trkpt>
      <trkpt lat="45.86435" lon="4.78414">
        <ele>384</ele>
        <time>2014-11-16T09:45:14Z</time>
      </trkpt>
      <trkpt lat="45.86431" lon="4.78416">
        <ele>384</ele>
        <time>2014-11-16T09:45:18Z</time>
      </trkpt>
      <trkpt lat="45.8643" lon="4.78417">
        <ele>385</ele>
        <time>2014-11-16T09:45:20Z</time>
      </trkpt>
      <trkpt lat="45.8643" lon="4.7842">
        <ele>385</ele>
        <time>2014-11-16T09:45:25Z</time>
      </trkpt>
      <trkpt lat="45.86436" lon="4.78424">
        <ele>385</ele>
        <time>2014-11-16T09:45:31Z</time>
      </trkpt>
      <trkpt lat="45.86436" lon="4.78425">
        <ele>385</ele>
        <time>2014-11-16T09:45:33Z</time>
      </trkpt>
      <trkpt lat="45.86437" lon="4.78426">
        <ele>385</ele>
        <time>2014-11-16T09:45:36Z</time>
      </trkpt>
      <trkpt lat="45.86438" lon="4.78421">
        <ele>385</ele>
        <time>2014-11-16T09:45:40Z</time>
      </trkpt>
      <trkpt lat="45.86439" lon="4.78421">
        <ele>385</ele>
        <time>2014-11-16T09:45:41Z</time>
      </trkpt>
      <trkpt lat="45.8644" lon="4.78421">
        <ele>385</ele>
        <time>2014-11-16T09:45:42Z</time>
      </trkpt>
      <trkpt lat="45.86442" lon="4.78426">
        <ele>385</ele>
        <time>2014-11-16T09:45:45Z</time>
      </trkpt>
      <trkpt lat="45.86438" lon="4.7843">
        <ele>386</ele>
        <time>2014-11-16T09:45:52Z</time>
      </trkpt>
      <trkpt lat="45.86437" lon="4.78432">
        <ele>386</ele>
        <time>2014-11-16T09:45:54Z</time>
      </trkpt>
      <trkpt lat="45.8644" lon="4.78437">
        <ele>386</ele>
        <time>2014-11-16T09:45:58Z</time>
      </trkpt>
      <trkpt lat="45.8644" lon="4.78441">
        <ele>386</ele>
        <time>2014-11-16T09:46:00Z</time>
      </trkpt>
      <trkpt lat="45.86441" lon="4.78447">
        <ele>387</ele>
        <time>2014-11-16T09:46:03Z</time>
      </trkpt>
      <trkpt lat="45.8644" lon="4.7845">
        <ele>387</ele>
        <time>2014-11-16T09:46:04Z</time>
      </trkpt>
      <trkpt lat="45.8644" lon="4.78455">
        <ele>388</ele>
        <time>2014-11-16T09:46:09Z</time>
      </trkpt>
      <trkpt lat="45.86441" lon="4.78458">
        <ele>388</ele>
        <time>2014-11-16T09:46:12Z</time>
      </trkpt>
      <trkpt lat="45.86442" lon="4.78459">
        <ele>388</ele>
        <time>2014-11-16T09:46:15Z</time>
      </trkpt>
      <trkpt lat="45.86443" lon="4.78463">
        <ele>388</ele>
        <time>2014-11-16T09:46:21Z</time>
      </trkpt>
      <trkpt lat="45.86443" lon="4.78463">
        <ele>388</ele>
        <time>2014-11-16T09:46:23Z</time>
      </trkpt>
      <trkpt lat="45.86446" lon="4.78464">
        <ele>388</ele>
        <time>2014-11-16T09:46:26Z</time>
      </trkpt>
      <trkpt lat="45.86447" lon="4.78465">
        <ele>388</ele>
        <time>2014-11-16T09:46:27Z</time>
      </trkpt>
      <trkpt lat="45.86447" lon="4.78467">
        <ele>389</ele>
        <time>2014-11-16T09:46:29Z</time>
      </trkpt>
      <trkpt lat="45.86446" lon="4.78469">
        <ele>389</ele>
        <time>2014-11-16T09:46:32Z</time>
      </trkpt>
      <trkpt lat="45.86446" lon="4.7847">
        <ele>389</ele>
        <time>2014-11-16T09:46:33Z</time>
      </trkpt>
      <trkpt lat="45.86445" lon="4.78475">
        <ele>390</ele>
        <time>2014-11-16T09:46:39Z</time>
      </trkpt>
      <trkpt lat="45.86446" lon="4.7848">
        <ele>390</ele>
        <time>2014-11-16T09:46:44Z</time>
      </trkpt>
      <trkpt lat="45.86448" lon="4.78483">
        <ele>390</ele>
        <time>2014-11-16T09:46:51Z</time>
      </trkpt>
      <trkpt lat="45.86448" lon="4.78483">
        <ele>390</ele>
        <time>2014-11-16T09:46:52Z</time>
      </trkpt>
      <trkpt lat="45.86446" lon="4.78483">
        <ele>390</ele>
        <time>2014-11-16T09:47:09Z</time>
      </trkpt>
      <trkpt lat="45.86451" lon="4.78488">
        <ele>390</ele>
        <time>2014-11-16T09:47:17Z</time>
      </trkpt>
      <trkpt lat="45.86451" lon="4.7849">
        <ele>390</ele>
        <time>2014-11-16T09:47:18Z</time>
      </trkpt>
      <trkpt lat="45.86455" lon="4.78493">
        <ele>390</ele>
        <time>2014-11-16T09:47:25Z</time>
      </trkpt>
      <trkpt lat="45.8646" lon="4.78497">
        <ele>390</ele>
        <time>2014-11-16T09:47:29Z</time>
      </trkpt>
      <trkpt lat="45.86461" lon="4.78498">
        <ele>390</ele>
        <time>2014-11-16T09:47:30Z</time>
      </trkpt>
      <trkpt lat="45.86462" lon="4.78498">
        <ele>390</ele>
        <time>2014-11-16T09:47:31Z</time>
      </trkpt>
      <trkpt lat="45.86466" lon="4.78498">
        <ele>390</ele>
        <time>2014-11-16T09:48:03Z</time>
      </trkpt>
      <trkpt lat="45.86468" lon="4.78502">
        <ele>403</ele>
        <time>2014-11-16T09:48:10Z</time>
      </trkpt>
      <trkpt lat="45.86472" lon="4.78504">
        <ele>402</ele>
        <time>2014-11-16T09:48:17Z</time>
      </trkpt>
      <trkpt lat="45.86471" lon="4.78504">
        <ele>402</ele>
        <time>2014-11-16T09:48:52Z</time>
      </trkpt>
      <trkpt lat="45.86472" lon="4.78507">
        <ele>402</ele>
        <time>2014-11-16T09:48:54Z</time>
      </trkpt>
      <trkpt lat="45.86472" lon="4.78509">
        <ele>403</ele>
        <time>2014-11-16T09:48:56Z</time>
      </trkpt>
      <trkpt lat="45.86474" lon="4.78512">
        <ele>403</ele>
        <time>2014-11-16T09:48:58Z</time>
      </trkpt>
      <trkpt lat="45.86475" lon="4.78514">
        <ele>403</ele>
        <time>2014-11-16T09:49:00Z</time>
      </trkpt>
      <trkpt lat="45.86475" lon="4.78514">
        <ele>403</ele>
        <time>2014-11-16T09:49:01Z</time>
      </trkpt>
      <trkpt lat="45.8648" lon="4.78512">
        <ele>402</ele>
        <time>2014-11-16T09:49:06Z</time>
      </trkpt>
      <trkpt lat="45.86482" lon="4.78513">
        <ele>402</ele>
        <time>2014-11-16T09:49:08Z</time>
      </trkpt>
      <trkpt lat="45.86486" lon="4.78516">
        <ele>401</ele>
        <time>2014-11-16T09:49:13Z</time>
      </trkpt>
      <trkpt lat="45.8649" lon="4.78516">
        <ele>401</ele>
        <time>2014-11-16T09:49:18Z</time>
      </trkpt>
      <trkpt lat="45.86491" lon="4.78519">
        <ele>402</ele>
        <time>2014-11-16T09:49:21Z</time>
      </trkpt>
      <trkpt lat="45.86492" lon="4.78523">
        <ele>403</ele>
        <time>2014-11-16T09:49:23Z</time>
      </trkpt>
      <trkpt lat="45.86492" lon="4.78529">
        <ele>404</ele>
        <time>2014-11-16T09:49:25Z</time>
      </trkpt>
      <trkpt lat="45.86492" lon="4.78531">
        <ele>404</ele>
        <time>2014-11-16T09:49:26Z</time>
      </trkpt>
      <trkpt lat="45.86492" lon="4.78533">
        <ele>405</ele>
        <time>2014-11-16T09:49:27Z</time>
      </trkpt>
      <trkpt lat="45.86494" lon="4.78538">
        <ele>406</ele>
        <time>2014-11-16T09:49:33Z</time>
      </trkpt>
      <trkpt lat="45.86494" lon="4.78544">
        <ele>407</ele>
        <time>2014-11-16T09:49:38Z</time>
      </trkpt>
      <trkpt lat="45.86496" lon="4.78549">
        <ele>408</ele>
        <time>2014-11-16T09:49:43Z</time>
      </trkpt>
      <trkpt lat="45.86499" lon="4.78552">
        <ele>409</ele>
        <time>2014-11-16T09:49:46Z</time>
      </trkpt>
      <trkpt lat="45.865" lon="4.78555">
        <ele>405</ele>
        <time>2014-11-16T09:49:48Z</time>
      </trkpt>
      <trkpt lat="45.86502" lon="4.78555">
        <ele>405</ele>
        <time>2014-11-16T09:49:52Z</time>
      </trkpt>
      <trkpt lat="45.86503" lon="4.78557">
        <ele>405</ele>
        <time>2014-11-16T09:49:53Z</time>
      </trkpt>
      <trkpt lat="45.86504" lon="4.78565">
        <ele>407</ele>
        <time>2014-11-16T09:49:58Z</time>
      </trkpt>
      <trkpt lat="45.86506" lon="4.78568">
        <ele>408</ele>
        <time>2014-11-16T09:50:01Z</time>
      </trkpt>
      <trkpt lat="45.86506" lon="4.78569">
        <ele>409</ele>
        <time>2014-11-16T09:50:02Z</time>
      </trkpt>
      <trkpt lat="45.86505" lon="4.78571">
        <ele>409</ele>
        <time>2014-11-16T09:50:03Z</time>
      </trkpt>
      <trkpt lat="45.86506" lon="4.78572">
        <ele>410</ele>
        <time>2014-11-16T09:50:04Z</time>
      </trkpt>
      <trkpt lat="45.86506" lon="4.78574">
        <ele>410</ele>
        <time>2014-11-16T09:50:05Z</time>
      </trkpt>
      <trkpt lat="45.86508" lon="4.78578">
        <ele>411</ele>
        <time>2014-11-16T09:50:08Z</time>
      </trkpt>
      <trkpt lat="45.86512" lon="4.78586">
        <ele>415</ele>
        <time>2014-11-16T09:50:14Z</time>
      </trkpt>
      <trkpt lat="45.86516" lon="4.78588">
        <ele>415</ele>
        <time>2014-11-16T09:50:20Z</time>
      </trkpt>
      <trkpt lat="45.86517" lon="4.7859">
        <ele>414</ele>
        <time>2014-11-16T09:50:22Z</time>
      </trkpt>
      <trkpt lat="45.86519" lon="4.78592">
        <ele>414</ele>
        <time>2014-11-16T09:50:24Z</time>
      </trkpt>
      <trkpt lat="45.86522" lon="4.78595">
        <ele>414</ele>
        <time>2014-11-16T09:50:27Z</time>
      </trkpt>
      <trkpt lat="45.86522" lon="4.78596">
        <ele>414</ele>
        <time>2014-11-16T09:50:28Z</time>
      </trkpt>
      <trkpt lat="45.86525" lon="4.78601">
        <ele>414</ele>
        <time>2014-11-16T09:50:35Z</time>
      </trkpt>
      <trkpt lat="45.86528" lon="4.78599">
        <ele>414</ele>
        <time>2014-11-16T09:50:40Z</time>
      </trkpt>
      <trkpt lat="45.86531" lon="4.78598">
        <ele>413</ele>
        <time>2014-11-16T09:50:43Z</time>
      </trkpt>
      <trkpt lat="45.86533" lon="4.78599">
        <ele>413</ele>
        <time>2014-11-16T09:50:45Z</time>
      </trkpt>
      <trkpt lat="45.86536" lon="4.786">
        <ele>413</ele>
        <time>2014-11-16T09:50:47Z</time>
      </trkpt>
      <trkpt lat="45.86538" lon="4.786">
        <ele>413</ele>
        <time>2014-11-16T09:50:49Z</time>
      </trkpt>
      <trkpt lat="45.8654" lon="4.78599">
        <ele>412</ele>
        <time>2014-11-16T09:50:51Z</time>
      </trkpt>
      <trkpt lat="45.86541" lon="4.786">
        <ele>412</ele>
        <time>2014-11-16T09:50:53Z</time>
      </trkpt>
      <trkpt lat="45.86549" lon="4.786">
        <ele>411</ele>
        <time>2014-11-16T09:50:59Z</time>
      </trkpt>
      <trkpt lat="45.86551" lon="4.786">
        <ele>411</ele>
        <time>2014-11-16T09:51:01Z</time>
      </trkpt>
      <trkpt lat="45.86553" lon="4.786">
        <ele>411</ele>
        <time>2014-11-16T09:51:04Z</time>
      </trkpt>
      <trkpt lat="45.86553" lon="4.786">
        <ele>411</ele>
        <time>2014-11-16T09:51:06Z</time>
      </trkpt>
      <trkpt lat="45.86558" lon="4.78601">
        <ele>410</ele>
        <time>2014-11-16T09:51:13Z</time>
      </trkpt>
      <trkpt lat="45.86561" lon="4.78602">
        <ele>410</ele>
        <time>2014-11-16T09:51:15Z</time>
      </trkpt>
      <trkpt lat="45.86562" lon="4.78603">
        <ele>409</ele>
        <time>2014-11-16T09:51:16Z</time>
      </trkpt>
      <trkpt lat="45.86567" lon="4.78601">
        <ele>409</ele>
        <time>2014-11-16T09:51:20Z</time>
      </trkpt>
      <trkpt lat="45.8657" lon="4.78602">
        <ele>408</ele>
        <time>2014-11-16T09:51:22Z</time>
      </trkpt>
      <trkpt lat="45.86572" lon="4.78603">
        <ele>408</ele>
        <time>2014-11-16T09:51:24Z</time>
      </trkpt>
      <trkpt lat="45.86573" lon="4.78602">
        <ele>408</ele>
        <time>2014-11-16T09:51:25Z</time>
      </trkpt>
      <trkpt lat="45.86578" lon="4.78592">
        <ele>405</ele>
        <time>2014-11-16T09:51:30Z</time>
      </trkpt>
      <trkpt lat="45.86583" lon="4.78588">
        <ele>403</ele>
        <time>2014-11-16T09:51:33Z</time>
      </trkpt>
      <trkpt lat="45.86585" lon="4.78587">
        <ele>400</ele>
        <time>2014-11-16T09:51:34Z</time>
      </trkpt>
      <trkpt lat="45.86587" lon="4.78586">
        <ele>400</ele>
        <time>2014-11-16T09:51:35Z</time>
      </trkpt>
      <trkpt lat="45.86588" lon="4.78586">
        <ele>399</ele>
        <time>2014-11-16T09:51:36Z</time>
      </trkpt>
      <trkpt lat="45.86592" lon="4.78589">
        <ele>398</ele>
        <time>2014-11-16T09:51:39Z</time>
      </trkpt>
      <trkpt lat="45.86593" lon="4.7859">
        <ele>397</ele>
        <time>2014-11-16T09:51:40Z</time>
      </trkpt>
      <trkpt lat="45.86593" lon="4.78591">
        <ele>397</ele>
        <time>2014-11-16T09:51:41Z</time>
      </trkpt>
      <trkpt lat="45.86594" lon="4.78595">
        <ele>396</ele>
        <time>2014-11-16T09:51:44Z</time>
      </trkpt>
      <trkpt lat="45.86595" lon="4.786">
        <ele>396</ele>
        <time>2014-11-16T09:51:49Z</time>
      </trkpt>
      <trkpt lat="45.86595" lon="4.78596">
        <ele>396</ele>
        <time>2014-11-16T09:51:51Z</time>
      </trkpt>
      <trkpt lat="45.86597" lon="4.78591">
        <ele>396</ele>
        <time>2014-11-16T09:51:53Z</time>
      </trkpt>
      <trkpt lat="45.86604" lon="4.78593">
        <ele>395</ele>
        <time>2014-11-16T09:51:57Z</time>
      </trkpt>
      <trkpt lat="45.86612" lon="4.78592">
        <ele>393</ele>
        <time>2014-11-16T09:52:01Z</time>
      </trkpt>
      <trkpt lat="45.86613" lon="4.78591">
        <ele>393</ele>
        <time>2014-11-16T09:52:02Z</time>
      </trkpt>
      <trkpt lat="45.86615" lon="4.7859">
        <ele>393</ele>
        <time>2014-11-16T09:52:03Z</time>
      </trkpt>
      <trkpt lat="45.86616" lon="4.78591">
        <ele>392</ele>
        <time>2014-11-16T09:52:05Z</time>
      </trkpt>
      <trkpt lat="45.86616" lon="4.78593">
        <ele>392</ele>
        <time>2014-11-16T09:52:06Z</time>
      </trkpt>
      <trkpt lat="45.86619" lon="4.78593">
        <ele>392</ele>
        <time>2014-11-16T09:52:08Z</time>
      </trkpt>
      <trkpt lat="45.8662" lon="4.78594">
        <ele>391</ele>
        <time>2014-11-16T09:52:09Z</time>
      </trkpt>
      <trkpt lat="45.86628" lon="4.78596">
        <ele>390</ele>
        <time>2014-11-16T09:52:14Z</time>
      </trkpt>
      <trkpt lat="45.86629" lon="4.78596">
        <ele>390</ele>
        <time>2014-11-16T09:52:15Z</time>
      </trkpt>
      <trkpt lat="45.8663" lon="4.78596">
        <ele>390</ele>
        <time>2014-11-16T09:52:16Z</time>
      </trkpt>
      <trkpt lat="45.86634" lon="4.78601">
        <ele>389</ele>
        <time>2014-11-16T09:52:19Z</time>
      </trkpt>
      <trkpt lat="45.86635" lon="4.78603">
        <ele>389</ele>
        <time>2014-11-16T09:52:20Z</time>
      </trkpt>
      <trkpt lat="45.86636" lon="4.78607">
        <ele>389</ele>
        <time>2014-11-16T09:52:22Z</time>
      </trkpt>
      <trkpt lat="45.86639" lon="4.7861">
        <ele>388</ele>
        <time>2014-11-16T09:52:25Z</time>
      </trkpt>
      <trkpt lat="45.86643" lon="4.78616">
        <ele>388</ele>
        <time>2014-11-16T09:52:29Z</time>
      </trkpt>
      <trkpt lat="45.86644" lon="4.78619">
        <ele>388</ele>
        <time>2014-11-16T09:52:30Z</time>
      </trkpt>
      <trkpt lat="45.86644" lon="4.78622">
        <ele>388</ele>
        <time>2014-11-16T09:52:31Z</time>
      </trkpt>
      <trkpt lat="45.86643" lon="4.78624">
        <ele>388</ele>
        <time>2014-11-16T09:52:32Z</time>
      </trkpt>
      <trkpt lat="45.86643" lon="4.78626">
        <ele>388</ele>
        <time>2014-11-16T09:52:35Z</time>
      </trkpt>
      <trkpt lat="45.86644" lon="4.78631">
        <ele>388</ele>
        <time>2014-11-16T09:52:39Z</time>
      </trkpt>
      <trkpt lat="45.86645" lon="4.78632">
        <ele>388</ele>
        <time>2014-11-16T09:52:40Z</time>
      </trkpt>
      <trkpt lat="45.86645" lon="4.78642">
        <ele>388</ele>
        <time>2014-11-16T09:52:45Z</time>
      </trkpt>
      <trkpt lat="45.86647" lon="4.78647">
        <ele>387</ele>
        <time>2014-11-16T09:52:47Z</time>
      </trkpt>
      <trkpt lat="45.86651" lon="4.78655">
        <ele>385</ele>
        <time>2014-11-16T09:52:50Z</time>
      </trkpt>
      <trkpt lat="45.86656" lon="4.78665">
        <ele>383</ele>
        <time>2014-11-16T09:52:54Z</time>
      </trkpt>
      <trkpt lat="45.86658" lon="4.78666">
        <ele>382</ele>
        <time>2014-11-16T09:52:56Z</time>
      </trkpt>
      <trkpt lat="45.86662" lon="4.78667">
        <ele>381</ele>
        <time>2014-11-16T09:52:59Z</time>
      </trkpt>
      <trkpt lat="45.86666" lon="4.78668">
        <ele>379</ele>
        <time>2014-11-16T09:53:02Z</time>
      </trkpt>
      <trkpt lat="45.86669" lon="4.78668">
        <ele>378</ele>
        <time>2014-11-16T09:53:04Z</time>
      </trkpt>
      <trkpt lat="45.8667" lon="4.78665">
        <ele>377</ele>
        <time>2014-11-16T09:53:06Z</time>
      </trkpt>
      <trkpt lat="45.8667" lon="4.78661">
        <ele>376</ele>
        <time>2014-11-16T09:53:08Z</time>
      </trkpt>
      <trkpt lat="45.86671" lon="4.78659">
        <ele>375</ele>
        <time>2014-11-16T09:53:09Z</time>
      </trkpt>
      <trkpt lat="45.86677" lon="4.78662">
        <ele>375</ele>
        <time>2014-11-16T09:53:12Z</time>
      </trkpt>
      <trkpt lat="45.86681" lon="4.78659">
        <ele>374</ele>
        <time>2014-11-16T09:53:16Z</time>
      </trkpt>
      <trkpt lat="45.86685" lon="4.78656">
        <ele>373</ele>
        <time>2014-11-16T09:53:20Z</time>
      </trkpt>
      <trkpt lat="45.86686" lon="4.78655">
        <ele>373</ele>
        <time>2014-11-16T09:53:21Z</time>
      </trkpt>
      <trkpt lat="45.86691" lon="4.78652">
        <ele>372</ele>
        <time>2014-11-16T09:53:24Z</time>
      </trkpt>
      <trkpt lat="45.86696" lon="4.78648">
        <ele>371</ele>
        <time>2014-11-16T09:53:27Z</time>
      </trkpt>
      <trkpt lat="45.86702" lon="4.78646">
        <ele>370</ele>
        <time>2014-11-16T09:53:29Z</time>
      </trkpt>
      <trkpt lat="45.86704" lon="4.78644">
        <ele>370</ele>
        <time>2014-11-16T09:53:31Z</time>
      </trkpt>
      <trkpt lat="45.86706" lon="4.78644">
        <ele>370</ele>
        <time>2014-11-16T09:53:32Z</time>
      </trkpt>
      <trkpt lat="45.8671" lon="4.78637">
        <ele>369</ele>
        <time>2014-11-16T09:53:36Z</time>
      </trkpt>
      <trkpt lat="45.86716" lon="4.78622">
        <ele>368</ele>
        <time>2014-11-16T09:53:40Z</time>
      </trkpt>
      <trkpt lat="45.86718" lon="4.7862">
        <ele>368</ele>
        <time>2014-11-16T09:53:41Z</time>
      </trkpt>
      <trkpt lat="45.86733" lon="4.7862">
        <ele>367</ele>
        <time>2014-11-16T09:53:46Z</time>
      </trkpt>
      <trkpt lat="45.86736" lon="4.7862">
        <ele>366</ele>
        <time>2014-11-16T09:53:47Z</time>
      </trkpt>
      <trkpt lat="45.86752" lon="4.78622">
        <ele>357</ele>
        <time>2014-11-16T09:53:53Z</time>
      </trkpt>
      <trkpt lat="45.86759" lon="4.78625">
        <ele>357</ele>
        <time>2014-11-16T09:54:00Z</time>
      </trkpt>
      <trkpt lat="45.86767" lon="4.78619">
        <ele>356</ele>
        <time>2014-11-16T09:54:08Z</time>
      </trkpt>
      <trkpt lat="45.8677" lon="4.78618">
        <ele>356</ele>
        <time>2014-11-16T09:54:09Z</time>
      </trkpt>
      <trkpt lat="45.86783" lon="4.78613">
        <ele>355</ele>
        <time>2014-11-16T09:54:13Z</time>
      </trkpt>
      <trkpt lat="45.86789" lon="4.78611">
        <ele>354</ele>
        <time>2014-11-16T09:54:15Z</time>
      </trkpt>
      <trkpt lat="45.86798" lon="4.7861">
        <ele>353</ele>
        <time>2014-11-16T09:54:18Z</time>
      </trkpt>
      <trkpt lat="45.86808" lon="4.78606">
        <ele>351</ele>
        <time>2014-11-16T09:54:22Z</time>
      </trkpt>
      <trkpt lat="45.86812" lon="4.78605">
        <ele>351</ele>
        <time>2014-11-16T09:54:23Z</time>
      </trkpt>
      <trkpt lat="45.86823" lon="4.78595">
        <ele>346</ele>
        <time>2014-11-16T09:54:29Z</time>
      </trkpt>
      <trkpt lat="45.86825" lon="4.78594">
        <ele>345</ele>
        <time>2014-11-16T09:54:30Z</time>
      </trkpt>
      <trkpt lat="45.86834" lon="4.78587">
        <ele>339</ele>
        <time>2014-11-16T09:54:34Z</time>
      </trkpt>
      <trkpt lat="45.8684" lon="4.78582">
        <ele>336</ele>
        <time>2014-11-16T09:54:39Z</time>
      </trkpt>
      <trkpt lat="45.86841" lon="4.7858">
        <ele>336</ele>
        <time>2014-11-16T09:54:41Z</time>
      </trkpt>
      <trkpt lat="45.86848" lon="4.78577">
        <ele>335</ele>
        <time>2014-11-16T09:54:45Z</time>
      </trkpt>
      <trkpt lat="45.86858" lon="4.78575">
        <ele>334</ele>
        <time>2014-11-16T09:54:50Z</time>
      </trkpt>
      <trkpt lat="45.86863" lon="4.78576">
        <ele>333</ele>
        <time>2014-11-16T09:54:52Z</time>
      </trkpt>
      <trkpt lat="45.86868" lon="4.78575">
        <ele>333</ele>
        <time>2014-11-16T09:54:54Z</time>
      </trkpt>
      <trkpt lat="45.86873" lon="4.78576">
        <ele>333</ele>
        <time>2014-11-16T09:54:57Z</time>
      </trkpt>
      <trkpt lat="45.86874" lon="4.78576">
        <ele>333</ele>
        <time>2014-11-16T09:54:58Z</time>
      </trkpt>
      <trkpt lat="45.86876" lon="4.78574">
        <ele>333</ele>
        <time>2014-11-16T09:55:01Z</time>
      </trkpt>
      <trkpt lat="45.86877" lon="4.78574">
        <ele>333</ele>
        <time>2014-11-16T09:55:02Z</time>
      </trkpt>
      <trkpt lat="45.86878" lon="4.78574">
        <ele>333</ele>
        <time>2014-11-16T09:55:03Z</time>
      </trkpt>
      <trkpt lat="45.86881" lon="4.78575">
        <ele>333</ele>
        <time>2014-11-16T09:55:05Z</time>
      </trkpt>
      <trkpt lat="45.86884" lon="4.78575">
        <ele>333</ele>
        <time>2014-11-16T09:55:07Z</time>
      </trkpt>
      <trkpt lat="45.86887" lon="4.78577">
        <ele>333</ele>
        <time>2014-11-16T09:55:10Z</time>
      </trkpt>
      <trkpt lat="45.86889" lon="4.78575">
        <ele>333</ele>
        <time>2014-11-16T09:55:12Z</time>
      </trkpt>
      <trkpt lat="45.86894" lon="4.78571">
        <ele>333</ele>
        <time>2014-11-16T09:55:15Z</time>
      </trkpt>
      <trkpt lat="45.86896" lon="4.7857">
        <ele>333</ele>
        <time>2014-11-16T09:55:16Z</time>
      </trkpt>
      <trkpt lat="45.86898" lon="4.7857">
        <ele>333</ele>
        <time>2014-11-16T09:55:17Z</time>
      </trkpt>
      <trkpt lat="45.86906" lon="4.78572">
        <ele>333</ele>
        <time>2014-11-16T09:55:22Z</time>
      </trkpt>
      <trkpt lat="45.86908" lon="4.78572">
        <ele>333</ele>
        <time>2014-11-16T09:55:23Z</time>
      </trkpt>
      <trkpt lat="45.86912" lon="4.78572">
        <ele>333</ele>
        <time>2014-11-16T09:55:26Z</time>
      </trkpt>
      <trkpt lat="45.86913" lon="4.78571">
        <ele>333</ele>
        <time>2014-11-16T09:55:27Z</time>
      </trkpt>
      <trkpt lat="45.86914" lon="4.78569">
        <ele>333</ele>
        <time>2014-11-16T09:55:29Z</time>
      </trkpt>
      <trkpt lat="45.86917" lon="4.78566">
        <ele>330</ele>
        <time>2014-11-16T09:55:32Z</time>
      </trkpt>
      <trkpt lat="45.86922" lon="4.78567">
        <ele>331</ele>
        <time>2014-11-16T09:55:38Z</time>
      </trkpt>
      <trkpt lat="45.86927" lon="4.78568">
        <ele>330</ele>
        <time>2014-11-16T09:55:42Z</time>
      </trkpt>
      <trkpt lat="45.86933" lon="4.78568">
        <ele>330</ele>
        <time>2014-11-16T09:55:46Z</time>
      </trkpt>
      <trkpt lat="45.86934" lon="4.78567">
        <ele>330</ele>
        <time>2014-11-16T09:55:48Z</time>
      </trkpt>
      <trkpt lat="45.86937" lon="4.78567">
        <ele>329</ele>
        <time>2014-11-16T09:55:50Z</time>
      </trkpt>
      <trkpt lat="45.86943" lon="4.78568">
        <ele>329</ele>
        <time>2014-11-16T09:55:53Z</time>
      </trkpt>
      <trkpt lat="45.86952" lon="4.7857">
        <ele>329</ele>
        <time>2014-11-16T09:55:57Z</time>
      </trkpt>
      <trkpt lat="45.86956" lon="4.78573">
        <ele>329</ele>
        <time>2014-11-16T09:56:01Z</time>
      </trkpt>
      <trkpt lat="45.86957" lon="4.78572">
        <ele>329</ele>
        <time>2014-11-16T09:56:02Z</time>
      </trkpt>
      <trkpt lat="45.86963" lon="4.78573">
        <ele>329</ele>
        <time>2014-11-16T09:56:08Z</time>
      </trkpt>
      <trkpt lat="45.86971" lon="4.78569">
        <ele>330</ele>
        <time>2014-11-16T09:56:14Z</time>
      </trkpt>
      <trkpt lat="45.86972" lon="4.78568">
        <ele>330</ele>
        <time>2014-11-16T09:56:15Z</time>
      </trkpt>
      <trkpt lat="45.86979" lon="4.78567">
        <ele>330</ele>
        <time>2014-11-16T09:56:20Z</time>
      </trkpt>
      <trkpt lat="45.86979" lon="4.78568">
        <ele>330</ele>
        <time>2014-11-16T09:56:21Z</time>
      </trkpt>
      <trkpt lat="45.86982" lon="4.78569">
        <ele>331</ele>
        <time>2014-11-16T09:56:24Z</time>
      </trkpt>
      <trkpt lat="45.86985" lon="4.78572">
        <ele>332</ele>
        <time>2014-11-16T09:56:27Z</time>
      </trkpt>
      <trkpt lat="45.86987" lon="4.78573">
        <ele>332</ele>
        <time>2014-11-16T09:56:29Z</time>
      </trkpt>
      <trkpt lat="45.86989" lon="4.78574">
        <ele>333</ele>
        <time>2014-11-16T09:56:32Z</time>
      </trkpt>
      <trkpt lat="45.8699" lon="4.78573">
        <ele>333</ele>
        <time>2014-11-16T09:56:33Z</time>
      </trkpt>
      <trkpt lat="45.86991" lon="4.78572">
        <ele>333</ele>
        <time>2014-11-16T09:56:36Z</time>
      </trkpt>
      <trkpt lat="45.86994" lon="4.78571">
        <ele>333</ele>
        <time>2014-11-16T09:56:38Z</time>
      </trkpt>
      <trkpt lat="45.87002" lon="4.78567">
        <ele>331</ele>
        <time>2014-11-16T09:56:43Z</time>
      </trkpt>
      <trkpt lat="45.87005" lon="4.78563">
        <ele>330</ele>
        <time>2014-11-16T09:56:45Z</time>
      </trkpt>
      <trkpt lat="45.8701" lon="4.78561">
        <ele>329</ele>
        <time>2014-11-16T09:56:49Z</time>
      </trkpt>
      <trkpt lat="45.87012" lon="4.78559">
        <ele>328</ele>
        <time>2014-11-16T09:56:58Z</time>
      </trkpt>
      <trkpt lat="45.87013" lon="4.78557">
        <ele>328</ele>
        <time>2014-11-16T09:57:00Z</time>
      </trkpt>
      <trkpt lat="45.87013" lon="4.78556">
        <ele>328</ele>
        <time>2014-11-16T09:57:01Z</time>
      </trkpt>
      <trkpt lat="45.87015" lon="4.78552">
        <ele>327</ele>
        <time>2014-11-16T09:57:06Z</time>
      </trkpt>
      <trkpt lat="45.87015" lon="4.78551">
        <ele>326</ele>
        <time>2014-11-16T09:57:07Z</time>
      </trkpt>
      <trkpt lat="45.87017" lon="4.78547">
        <ele>326</ele>
        <time>2014-11-16T09:57:12Z</time>
      </trkpt>
      <trkpt lat="45.87019" lon="4.78545">
        <ele>325</ele>
        <time>2014-11-16T09:57:14Z</time>
      </trkpt>
      <trkpt lat="45.87023" lon="4.78542">
        <ele>325</ele>
        <time>2014-11-16T09:57:17Z</time>
      </trkpt>
      <trkpt lat="45.87026" lon="4.7854">
        <ele>324</ele>
        <time>2014-11-16T09:57:23Z</time>
      </trkpt>
      <trkpt lat="45.87031" lon="4.78536">
        <ele>323</ele>
        <time>2014-11-16T09:57:34Z</time>
      </trkpt>
      <trkpt lat="45.87034" lon="4.78533">
        <ele>323</ele>
        <time>2014-11-16T09:57:38Z</time>
      </trkpt>
      <trkpt lat="45.87035" lon="4.78532">
        <ele>323</ele>
        <time>2014-11-16T09:57:39Z</time>
      </trkpt>
      <trkpt lat="45.87035" lon="4.78532">
        <ele>323</ele>
        <time>2014-11-16T09:57:40Z</time>
      </trkpt>
      <trkpt lat="45.87039" lon="4.78534">
        <ele>323</ele>
        <time>2014-11-16T09:57:45Z</time>
      </trkpt>
      <trkpt lat="45.87041" lon="4.78533">
        <ele>323</ele>
        <time>2014-11-16T09:57:47Z</time>
      </trkpt>
      <trkpt lat="45.87044" lon="4.78533">
        <ele>323</ele>
        <time>2014-11-16T09:57:51Z</time>
      </trkpt>
      <trkpt lat="45.87051" lon="4.78535">
        <ele>323</ele>
        <time>2014-11-16T09:57:57Z</time>
      </trkpt>
      <trkpt lat="45.87054" lon="4.78535">
        <ele>323</ele>
        <time>2014-11-16T09:58:00Z</time>
      </trkpt>
      <trkpt lat="45.87055" lon="4.78535">
        <ele>323</ele>
        <time>2014-11-16T09:58:02Z</time>
      </trkpt>
      <trkpt lat="45.87056" lon="4.78536">
        <ele>323</ele>
        <time>2014-11-16T09:58:03Z</time>
      </trkpt>
      <trkpt lat="45.87057" lon="4.78536">
        <ele>323</ele>
        <time>2014-11-16T09:58:09Z</time>
      </trkpt>
      <trkpt lat="45.87057" lon="4.78541">
        <ele>324</ele>
        <time>2014-11-16T09:58:13Z</time>
      </trkpt>
      <trkpt lat="45.87059" lon="4.78542">
        <ele>324</ele>
        <time>2014-11-16T09:58:15Z</time>
      </trkpt>
      <trkpt lat="45.8706" lon="4.78543">
        <ele>324</ele>
        <time>2014-11-16T09:58:18Z</time>
      </trkpt>
      <trkpt lat="45.87062" lon="4.78547">
        <ele>325</ele>
        <time>2014-11-16T09:58:25Z</time>
      </trkpt>
      <trkpt lat="45.87064" lon="4.78547">
        <ele>325</ele>
        <time>2014-11-16T09:58:28Z</time>
      </trkpt>
      <trkpt lat="45.87064" lon="4.78551">
        <ele>326</ele>
        <time>2014-11-16T09:58:30Z</time>
      </trkpt>
      <trkpt lat="45.87064" lon="4.78552">
        <ele>326</ele>
        <time>2014-11-16T09:58:31Z</time>
      </trkpt>
      <trkpt lat="45.8707" lon="4.78553">
        <ele>326</ele>
        <time>2014-11-16T09:58:34Z</time>
      </trkpt>
      <trkpt lat="45.87077" lon="4.78551">
        <ele>326</ele>
        <time>2014-11-16T09:58:44Z</time>
      </trkpt>
      <trkpt lat="45.87079" lon="4.78551">
        <ele>326</ele>
        <time>2014-11-16T09:58:49Z</time>
      </trkpt>
      <trkpt lat="45.87082" lon="4.7855">
        <ele>325</ele>
        <time>2014-11-16T09:58:55Z</time>
      </trkpt>
      <trkpt lat="45.87083" lon="4.7855">
        <ele>326</ele>
        <time>2014-11-16T09:58:56Z</time>
      </trkpt>
      <trkpt lat="45.87086" lon="4.78554">
        <ele>324</ele>
        <time>2014-11-16T09:59:00Z</time>
      </trkpt>
      <trkpt lat="45.87085" lon="4.78556">
        <ele>324</ele>
        <time>2014-11-16T09:59:01Z</time>
      </trkpt>
      <trkpt lat="45.87085" lon="4.78557">
        <ele>324</ele>
        <time>2014-11-16T09:59:02Z</time>
      </trkpt>
      <trkpt lat="45.87084" lon="4.78564">
        <ele>326</ele>
        <time>2014-11-16T09:59:06Z</time>
      </trkpt>
      <trkpt lat="45.87084" lon="4.78564">
        <ele>326</ele>
        <time>2014-11-16T09:59:07Z</time>
      </trkpt>
      <trkpt lat="45.87084" lon="4.78567">
        <ele>327</ele>
        <time>2014-11-16T09:59:11Z</time>
      </trkpt>
      <trkpt lat="45.87087" lon="4.78568">
        <ele>328</ele>
        <time>2014-11-16T09:59:14Z</time>
      </trkpt>
      <trkpt lat="45.8709" lon="4.78567">
        <ele>327</ele>
        <time>2014-11-16T09:59:18Z</time>
      </trkpt>
      <trkpt lat="45.87092" lon="4.78569">
        <ele>327</ele>
        <time>2014-11-16T09:59:26Z</time>
      </trkpt>
      <trkpt lat="45.87094" lon="4.7857">
        <ele>327</ele>
        <time>2014-11-16T09:59:28Z</time>
      </trkpt>
      <trkpt lat="45.87095" lon="4.7857">
        <ele>327</ele>
        <time>2014-11-16T09:59:29Z</time>
      </trkpt>
      <trkpt lat="45.87098" lon="4.78574">
        <ele>327</ele>
        <time>2014-11-16T09:59:33Z</time>
      </trkpt>
      <trkpt lat="45.87099" lon="4.78576">
        <ele>327</ele>
        <time>2014-11-16T09:59:37Z</time>
      </trkpt>
      <trkpt lat="45.87105" lon="4.78576">
        <ele>326</ele>
        <time>2014-11-16T09:59:42Z</time>
      </trkpt>
      <trkpt lat="45.87108" lon="4.78578">
        <ele>326</ele>
        <time>2014-11-16T09:59:48Z</time>
      </trkpt>
      <trkpt lat="45.8711" lon="4.78577">
        <ele>325</ele>
        <time>2014-11-16T09:59:51Z</time>
      </trkpt>
      <trkpt lat="45.87111" lon="4.78575">
        <ele>325</ele>
        <time>2014-11-16T09:59:53Z</time>
      </trkpt>
      <trkpt lat="45.87114" lon="4.78576">
        <ele>324</ele>
        <time>2014-11-16T09:59:57Z</time>
      </trkpt>
      <trkpt lat="45.87117" lon="4.78577">
        <ele>324</ele>
        <time>2014-11-16T10:00:02Z</time>
      </trkpt>
      <trkpt lat="45.87121" lon="4.78577">
        <ele>324</ele>
        <time>2014-11-16T10:00:07Z</time>
      </trkpt>
      <trkpt lat="45.87124" lon="4.78576">
        <ele>323</ele>
        <time>2014-11-16T10:00:08Z</time>
      </trkpt>
      <trkpt lat="45.87125" lon="4.78577">
        <ele>323</ele>
        <time>2014-11-16T10:00:10Z</time>
      </trkpt>
      <trkpt lat="45.87127" lon="4.78578">
        <ele>323</ele>
        <time>2014-11-16T10:00:13Z</time>
      </trkpt>
      <trkpt lat="45.87129" lon="4.7858">
        <ele>323</ele>
        <time>2014-11-16T10:00:19Z</time>
      </trkpt>
      <trkpt lat="45.87132" lon="4.78581">
        <ele>323</ele>
        <time>2014-11-16T10:00:24Z</time>
      </trkpt>
      <trkpt lat="45.87138" lon="4.78579">
        <ele>323</ele>
        <time>2014-11-16T10:00:46Z</time>
      </trkpt>
      <trkpt lat="45.87143" lon="4.78585">
        <ele>336</ele>
        <time>2014-11-16T10:00:52Z</time>
      </trkpt>
      <trkpt lat="45.87142" lon="4.78586">
        <ele>336</ele>
        <time>2014-11-16T10:00:53Z</time>
      </trkpt>
      <trkpt lat="45.87141" lon="4.78591">
        <ele>337</ele>
        <time>2014-11-16T10:00:56Z</time>
      </trkpt>
      <trkpt lat="45.87142" lon="4.78592">
        <ele>337</ele>
        <time>2014-11-16T10:00:57Z</time>
      </trkpt>
      <trkpt lat="45.87144" lon="4.78599">
        <ele>337</ele>
        <time>2014-11-16T10:01:03Z</time>
      </trkpt>
      <trkpt lat="45.87145" lon="4.78601">
        <ele>337</ele>
        <time>2014-11-16T10:01:04Z</time>
      </trkpt>
      <trkpt lat="45.87144" lon="4.78605">
        <ele>338</ele>
        <time>2014-11-16T10:01:07Z</time>
      </trkpt>
      <trkpt lat="45.87142" lon="4.78611">
        <ele>339</ele>
        <time>2014-11-16T10:01:13Z</time>
      </trkpt>
      <trkpt lat="45.87144" lon="4.78615">
        <ele>340</ele>
        <time>2014-11-16T10:01:17Z</time>
      </trkpt>
      <trkpt lat="45.87144" lon="4.78616">
        <ele>340</ele>
        <time>2014-11-16T10:01:18Z</time>
      </trkpt>
      <trkpt lat="45.87143" lon="4.7862">
        <ele>341</ele>
        <time>2014-11-16T10:01:23Z</time>
      </trkpt>
      <trkpt lat="45.87142" lon="4.78626">
        <ele>342</ele>
        <time>2014-11-16T10:01:35Z</time>
      </trkpt>
      <trkpt lat="45.8714" lon="4.7863">
        <ele>343</ele>
        <time>2014-11-16T10:01:39Z</time>
      </trkpt>
      <trkpt lat="45.87138" lon="4.78634">
        <ele>343</ele>
        <time>2014-11-16T10:01:44Z</time>
      </trkpt>
      <trkpt lat="45.87136" lon="4.78636">
        <ele>344</ele>
        <time>2014-11-16T10:01:49Z</time>
      </trkpt>
      <trkpt lat="45.87136" lon="4.78637">
        <ele>344</ele>
        <time>2014-11-16T10:01:50Z</time>
      </trkpt>
      <trkpt lat="45.87137" lon="4.78641">
        <ele>344</ele>
        <time>2014-11-16T10:02:03Z</time>
      </trkpt>
      <trkpt lat="45.87133" lon="4.78644">
        <ele>345</ele>
        <time>2014-11-16T10:02:07Z</time>
      </trkpt>
      <trkpt lat="45.87132" lon="4.78645">
        <ele>345</ele>
        <time>2014-11-16T10:02:09Z</time>
      </trkpt>
      <trkpt lat="45.87131" lon="4.78646">
        <ele>345</ele>
        <time>2014-11-16T10:02:11Z</time>
      </trkpt>
      <trkpt lat="45.87129" lon="4.78645">
        <ele>345</ele>
        <time>2014-11-16T10:02:13Z</time>
      </trkpt>
      <trkpt lat="45.87128" lon="4.78646">
        <ele>345</ele>
        <time>2014-11-16T10:02:14Z</time>
      </trkpt>
      <trkpt lat="45.87125" lon="4.78652">
        <ele>346</ele>
        <time>2014-11-16T10:02:20Z</time>
      </trkpt>
      <trkpt lat="45.87124" lon="4.78651">
        <ele>346</ele>
        <time>2014-11-16T10:02:21Z</time>
      </trkpt>
      <trkpt lat="45.87123" lon="4.78651">
        <ele>346</ele>
        <time>2014-11-16T10:02:22Z</time>
      </trkpt>
      <trkpt lat="45.87122" lon="4.78653">
        <ele>346</ele>
        <time>2014-11-16T10:02:24Z</time>
      </trkpt>
      <trkpt lat="45.87121" lon="4.78656">
        <ele>346</ele>
        <time>2014-11-16T10:02:26Z</time>
      </trkpt>
      <trkpt lat="45.87122" lon="4.78658">
        <ele>347</ele>
        <time>2014-11-16T10:02:27Z</time>
      </trkpt>
      <trkpt lat="45.87122" lon="4.7866">
        <ele>347</ele>
        <time>2014-11-16T10:02:31Z</time>
      </trkpt>
      <trkpt lat="45.87118" lon="4.78664">
        <ele>347</ele>
        <time>2014-11-16T10:02:37Z</time>
      </trkpt>
      <trkpt lat="45.87117" lon="4.78664">
        <ele>348</ele>
        <time>2014-11-16T10:02:39Z</time>
      </trkpt>
      <trkpt lat="45.87115" lon="4.78668">
        <ele>358</ele>
        <time>2014-11-16T10:02:42Z</time>
      </trkpt>
      <trkpt lat="45.87114" lon="4.78668">
        <ele>358</ele>
        <time>2014-11-16T10:02:43Z</time>
      </trkpt>
      <trkpt lat="45.87113" lon="4.78667">
        <ele>358</ele>
        <time>2014-11-16T10:02:44Z</time>
      </trkpt>
      <trkpt lat="45.87111" lon="4.78668">
        <ele>358</ele>
        <time>2014-11-16T10:02:46Z</time>
      </trkpt>
      <trkpt lat="45.87109" lon="4.78669">
        <ele>358</ele>
        <time>2014-11-16T10:02:49Z</time>
      </trkpt>
      <trkpt lat="45.87108" lon="4.78671">
        <ele>358</ele>
        <time>2014-11-16T10:02:51Z</time>
      </trkpt>
      <trkpt lat="45.87105" lon="4.78673">
        <ele>359</ele>
        <time>2014-11-16T10:02:56Z</time>
      </trkpt>
      <trkpt lat="45.87102" lon="4.78675">
        <ele>359</ele>
        <time>2014-11-16T10:03:01Z</time>
      </trkpt>
      <trkpt lat="45.87101" lon="4.78681">
        <ele>359</ele>
        <time>2014-11-16T10:03:05Z</time>
      </trkpt>
      <trkpt lat="45.87101" lon="4.78685">
        <ele>359</ele>
        <time>2014-11-16T10:03:07Z</time>
      </trkpt>
      <trkpt lat="45.87102" lon="4.7869">
        <ele>359</ele>
        <time>2014-11-16T10:03:14Z</time>
      </trkpt>
      <trkpt lat="45.87102" lon="4.78695">
        <ele>360</ele>
        <time>2014-11-16T10:03:36Z</time>
      </trkpt>
      <trkpt lat="45.87103" lon="4.78697">
        <ele>360</ele>
        <time>2014-11-16T10:03:38Z</time>
      </trkpt>
      <trkpt lat="45.87105" lon="4.78706">
        <ele>360</ele>
        <time>2014-11-16T10:03:45Z</time>
      </trkpt>
      <trkpt lat="45.87105" lon="4.78708">
        <ele>361</ele>
        <time>2014-11-16T10:03:47Z</time>
      </trkpt>
      <trkpt lat="45.87106" lon="4.78713">
        <ele>361</ele>
        <time>2014-11-16T10:03:52Z</time>
      </trkpt>
      <trkpt lat="45.87106" lon="4.78714">
        <ele>361</ele>
        <time>2014-11-16T10:03:53Z</time>
      </trkpt>
      <trkpt lat="45.87106" lon="4.78715">
        <ele>361</ele>
        <time>2014-11-16T10:03:54Z</time>
      </trkpt>
      <trkpt lat="45.87105" lon="4.78721">
        <ele>362</ele>
        <time>2014-11-16T10:03:59Z</time>
      </trkpt>
      <trkpt lat="45.87105" lon="4.78727">
        <ele>362</ele>
        <time>2014-11-16T10:04:07Z</time>
      </trkpt>
      <trkpt lat="45.87108" lon="4.78733">
        <ele>363</ele>
        <time>2014-11-16T10:04:12Z</time>
      </trkpt>
      <trkpt lat="45.87108" lon="4.78734">
        <ele>363</ele>
        <time>2014-11-16T10:04:14Z</time>
      </trkpt>
      <trkpt lat="45.87113" lon="4.78738">
        <ele>362</ele>
        <time>2014-11-16T10:04:23Z</time>
      </trkpt>
      <trkpt lat="45.87113" lon="4.78739">
        <ele>362</ele>
        <time>2014-11-16T10:04:24Z</time>
      </trkpt>
      <trkpt lat="45.87116" lon="4.7875">
        <ele>363</ele>
        <time>2014-11-16T10:04:28Z</time>
      </trkpt>
      <trkpt lat="45.87116" lon="4.78755">
        <ele>363</ele>
        <time>2014-11-16T10:04:30Z</time>
      </trkpt>
      <trkpt lat="45.87115" lon="4.78767">
        <ele>363</ele>
        <time>2014-11-16T10:04:34Z</time>
      </trkpt>
      <trkpt lat="45.87115" lon="4.78777">
        <ele>362</ele>
        <time>2014-11-16T10:04:37Z</time>
      </trkpt>
      <trkpt lat="45.87117" lon="4.78782">
        <ele>362</ele>
        <time>2014-11-16T10:04:39Z</time>
      </trkpt>
      <trkpt lat="45.87118" lon="4.78794">
        <ele>361</ele>
        <time>2014-11-16T10:04:43Z</time>
      </trkpt>
      <trkpt lat="45.87117" lon="4.78796">
        <ele>361</ele>
        <time>2014-11-16T10:04:45Z</time>
      </trkpt>
      <trkpt lat="45.87117" lon="4.78798">
        <ele>361</ele>
        <time>2014-11-16T10:04:49Z</time>
      </trkpt>
      <trkpt lat="45.87117" lon="4.788">
        <ele>361</ele>
        <time>2014-11-16T10:04:50Z</time>
      </trkpt>
      <trkpt lat="45.8712" lon="4.78807">
        <ele>360</ele>
        <time>2014-11-16T10:04:53Z</time>
      </trkpt>
      <trkpt lat="45.8712" lon="4.78809">
        <ele>360</ele>
        <time>2014-11-16T10:04:54Z</time>
      </trkpt>
      <trkpt lat="45.87121" lon="4.78811">
        <ele>360</ele>
        <time>2014-11-16T10:04:57Z</time>
      </trkpt>
      <trkpt lat="45.87123" lon="4.78813">
        <ele>360</ele>
        <time>2014-11-16T10:05:01Z</time>
      </trkpt>
      <trkpt lat="45.87126" lon="4.78815">
        <ele>359</ele>
        <time>2014-11-16T10:05:03Z</time>
      </trkpt>
      <trkpt lat="45.87128" lon="4.78821">
        <ele>359</ele>
        <time>2014-11-16T10:05:06Z</time>
      </trkpt>
      <trkpt lat="45.87129" lon="4.78823">
        <ele>359</ele>
        <time>2014-11-16T10:05:07Z</time>
      </trkpt>
      <trkpt lat="45.8713" lon="4.78827">
        <ele>358</ele>
        <time>2014-11-16T10:05:09Z</time>
      </trkpt>
      <trkpt lat="45.8713" lon="4.7883">
        <ele>358</ele>
        <time>2014-11-16T10:05:10Z</time>
      </trkpt>
      <trkpt lat="45.8713" lon="4.78833">
        <ele>350</ele>
        <time>2014-11-16T10:05:11Z</time>
      </trkpt>
      <trkpt lat="45.87131" lon="4.7884">
        <ele>349</ele>
        <time>2014-11-16T10:05:14Z</time>
      </trkpt>
      <trkpt lat="45.87131" lon="4.78841">
        <ele>349</ele>
        <time>2014-11-16T10:05:15Z</time>
      </trkpt>
      <trkpt lat="45.87132" lon="4.78842">
        <ele>349</ele>
        <time>2014-11-16T10:05:16Z</time>
      </trkpt>
      <trkpt lat="45.87134" lon="4.78845">
        <ele>349</ele>
        <time>2014-11-16T10:05:18Z</time>
      </trkpt>
      <trkpt lat="45.87136" lon="4.78848">
        <ele>348</ele>
        <time>2014-11-16T10:05:20Z</time>
      </trkpt>
      <trkpt lat="45.87139" lon="4.78853">
        <ele>348</ele>
        <time>2014-11-16T10:05:23Z</time>
      </trkpt>
      <trkpt lat="45.87141" lon="4.78855">
        <ele>348</ele>
        <time>2014-11-16T10:05:26Z</time>
      </trkpt>
      <trkpt lat="45.87148" lon="4.78862">
        <ele>347</ele>
        <time>2014-11-16T10:05:32Z</time>
      </trkpt>
      <trkpt lat="45.87155" lon="4.78866">
        <ele>346</ele>
        <time>2014-11-16T10:05:36Z</time>
      </trkpt>
      <trkpt lat="45.87158" lon="4.78868">
        <ele>345</ele>
        <time>2014-11-16T10:05:38Z</time>
      </trkpt>
      <trkpt lat="45.87166" lon="4.78874">
        <ele>344</ele>
        <time>2014-11-16T10:05:42Z</time>
      </trkpt>
      <trkpt lat="45.87167" lon="4.78875">
        <ele>336</ele>
        <time>2014-11-16T10:05:43Z</time>
      </trkpt>
      <trkpt lat="45.8717" lon="4.78881">
        <ele>335</ele>
        <time>2014-11-16T10:05:46Z</time>
      </trkpt>
      <trkpt lat="45.8717" lon="4.78883">
        <ele>335</ele>
        <time>2014-11-16T10:05:47Z</time>
      </trkpt>
      <trkpt lat="45.87164" lon="4.78889">
        <ele>341</ele>
        <time>2014-11-16T10:05:51Z</time>
      </trkpt>
      <trkpt lat="45.87157" lon="4.78894">
        <ele>340</ele>
        <time>2014-11-16T10:05:55Z</time>
      </trkpt>
      <trkpt lat="45.87155" lon="4.78896">
        <ele>340</ele>
        <time>2014-11-16T10:05:56Z</time>
      </trkpt>
      <trkpt lat="45.87153" lon="4.78909">
        <ele>337</ele>
        <time>2014-11-16T10:06:01Z</time>
      </trkpt>
      <trkpt lat="45.87153" lon="4.78911">
        <ele>337</ele>
        <time>2014-11-16T10:06:02Z</time>
      </trkpt>
      <trkpt lat="45.87152" lon="4.78919">
        <ele>331</ele>
        <time>2014-11-16T10:06:07Z</time>
      </trkpt>
      <trkpt lat="45.87151" lon="4.78932">
        <ele>332</ele>
        <time>2014-11-16T10:06:11Z</time>
      </trkpt>
      <trkpt lat="45.87151" lon="4.78935">
        <ele>332</ele>
        <time>2014-11-16T10:06:12Z</time>
      </trkpt>
      <trkpt lat="45.8715" lon="4.78941">
        <ele>332</ele>
        <time>2014-11-16T10:06:15Z</time>
      </trkpt>
      <trkpt lat="45.8715" lon="4.78946">
        <ele>331</ele>
        <time>2014-11-16T10:06:17Z</time>
      </trkpt>
      <trkpt lat="45.87148" lon="4.7895">
        <ele>331</ele>
        <time>2014-11-16T10:06:19Z</time>
      </trkpt>
      <trkpt lat="45.87147" lon="4.78957">
        <ele>331</ele>
        <time>2014-11-16T10:06:22Z</time>
      </trkpt>
      <trkpt lat="45.87146" lon="4.78962">
        <ele>331</ele>
        <time>2014-11-16T10:06:24Z</time>
      </trkpt>
      <trkpt lat="45.87146" lon="4.78966">
        <ele>330</ele>
        <time>2014-11-16T10:06:26Z</time>
      </trkpt>
      <trkpt lat="45.87146" lon="4.78969">
        <ele>330</ele>
        <time>2014-11-16T10:06:28Z</time>
      </trkpt>
      <trkpt lat="45.87144" lon="4.7897">
        <ele>330</ele>
        <time>2014-11-16T10:06:30Z</time>
      </trkpt>
      <trkpt lat="45.87143" lon="4.7897">
        <ele>330</ele>
        <time>2014-11-16T10:06:31Z</time>
      </trkpt>
      <trkpt lat="45.8714" lon="4.78969">
        <ele>331</ele>
        <time>2014-11-16T10:06:34Z</time>
      </trkpt>
      <trkpt lat="45.87139" lon="4.78969">
        <ele>331</ele>
        <time>2014-11-16T10:06:35Z</time>
      </trkpt>
      <trkpt lat="45.8714" lon="4.78969">
        <ele>331</ele>
        <time>2014-11-16T10:06:37Z</time>
      </trkpt>
      <trkpt lat="45.87149" lon="4.78978">
        <ele>329</ele>
        <time>2014-11-16T10:06:50Z</time>
      </trkpt>
      <trkpt lat="45.87145" lon="4.78979">
        <ele>329</ele>
        <time>2014-11-16T10:06:55Z</time>
      </trkpt>
      <trkpt lat="45.87137" lon="4.78976">
        <ele>331</ele>
        <time>2014-11-16T10:07:08Z</time>
      </trkpt>
      <trkpt lat="45.87135" lon="4.78975">
        <ele>331</ele>
        <time>2014-11-16T10:07:10Z</time>
      </trkpt>
      <trkpt lat="45.8713" lon="4.78973">
        <ele>332</ele>
        <time>2014-11-16T10:07:13Z</time>
      </trkpt>
      <trkpt lat="45.87129" lon="4.78972">
        <ele>332</ele>
        <time>2014-11-16T10:07:14Z</time>
      </trkpt>
      <trkpt lat="45.87123" lon="4.78972">
        <ele>332</ele>
        <time>2014-11-16T10:07:19Z</time>
      </trkpt>
      <trkpt lat="45.87122" lon="4.78972">
        <ele>332</ele>
        <time>2014-11-16T10:07:20Z</time>
      </trkpt>
      <trkpt lat="45.87119" lon="4.78973">
        <ele>333</ele>
        <time>2014-11-16T10:07:25Z</time>
      </trkpt>
      <trkpt lat="45.87112" lon="4.78972">
        <ele>333</ele>
        <time>2014-11-16T10:07:33Z</time>
      </trkpt>
      <trkpt lat="45.87108" lon="4.7897">
        <ele>334</ele>
        <time>2014-11-16T10:07:38Z</time>
      </trkpt>
      <trkpt lat="45.87105" lon="4.78969">
        <ele>334</ele>
        <time>2014-11-16T10:07:41Z</time>
      </trkpt>
      <trkpt lat="45.87098" lon="4.78967">
        <ele>334</ele>
        <time>2014-11-16T10:07:46Z</time>
      </trkpt>
      <trkpt lat="45.87098" lon="4.78966">
        <ele>334</ele>
        <time>2014-11-16T10:08:03Z</time>
      </trkpt>
      <trkpt lat="45.87101" lon="4.78963">
        <ele>334</ele>
        <time>2014-11-16T10:08:07Z</time>
      </trkpt>
      <trkpt lat="45.87104" lon="4.78962">
        <ele>334</ele>
        <time>2014-11-16T10:08:09Z</time>
      </trkpt>
      <trkpt lat="45.87107" lon="4.78962">
        <ele>334</ele>
        <time>2014-11-16T10:08:11Z</time>
      </trkpt>
      <trkpt lat="45.87117" lon="4.78963">
        <ele>333</ele>
        <time>2014-11-16T10:08:15Z</time>
      </trkpt>
      <trkpt lat="45.8713" lon="4.78966">
        <ele>332</ele>
        <time>2014-11-16T10:08:19Z</time>
      </trkpt>
      <trkpt lat="45.87135" lon="4.78971">
        <ele>331</ele>
        <time>2014-11-16T10:08:21Z</time>
      </trkpt>
      <trkpt lat="45.87137" lon="4.78976">
        <ele>331</ele>
        <time>2014-11-16T10:08:23Z</time>
      </trkpt>
      <trkpt lat="45.87141" lon="4.78996">
        <ele>329</ele>
        <time>2014-11-16T10:08:27Z</time>
      </trkpt>
      <trkpt lat="45.87142" lon="4.79004">
        <ele>329</ele>
        <time>2014-11-16T10:08:29Z</time>
      </trkpt>
      <trkpt lat="45.87144" lon="4.79008">
        <ele>329</ele>
        <time>2014-11-16T10:08:31Z</time>
      </trkpt>
      <trkpt lat="45.87153" lon="4.79003">
        <ele>327</ele>
        <time>2014-11-16T10:08:37Z</time>
      </trkpt>
      <trkpt lat="45.87154" lon="4.79003">
        <ele>326</ele>
        <time>2014-11-16T10:08:38Z</time>
      </trkpt>
      <trkpt lat="45.87163" lon="4.79005">
        <ele>324</ele>
        <time>2014-11-16T10:08:42Z</time>
      </trkpt>
      <trkpt lat="45.87171" lon="4.79012">
        <ele>320</ele>
        <time>2014-11-16T10:08:46Z</time>
      </trkpt>
      <trkpt lat="45.87182" lon="4.79017">
        <ele>319</ele>
        <time>2014-11-16T10:08:49Z</time>
      </trkpt>
      <trkpt lat="45.87199" lon="4.79025">
        <ele>318</ele>
        <time>2014-11-16T10:08:53Z</time>
      </trkpt>
      <trkpt lat="45.87204" lon="4.79028">
        <ele>318</ele>
        <time>2014-11-16T10:08:54Z</time>
      </trkpt>
      <trkpt lat="45.87208" lon="4.7903">
        <ele>317</ele>
        <time>2014-11-16T10:08:55Z</time>
      </trkpt>
      <trkpt lat="45.87217" lon="4.79035">
        <ele>317</ele>
        <time>2014-11-16T10:08:57Z</time>
      </trkpt>
      <trkpt lat="45.87223" lon="4.79039">
        <ele>316</ele>
        <time>2014-11-16T10:08:59Z</time>
      </trkpt>
      <trkpt lat="45.87229" lon="4.79042">
        <ele>316</ele>
        <time>2014-11-16T10:09:01Z</time>
      </trkpt>
      <trkpt lat="45.87236" lon="4.79046">
        <ele>315</ele>
        <time>2014-11-16T10:09:03Z</time>
      </trkpt>
      <trkpt lat="45.87242" lon="4.79051">
        <ele>315</ele>
        <time>2014-11-16T10:09:05Z</time>
      </trkpt>
      <trkpt lat="45.87246" lon="4.79053">
        <ele>315</ele>
        <time>2014-11-16T10:09:06Z</time>
      </trkpt>
      <trkpt lat="45.87255" lon="4.79058">
        <ele>305</ele>
        <time>2014-11-16T10:09:09Z</time>
      </trkpt>
      <trkpt lat="45.87261" lon="4.7906">
        <ele>305</ele>
        <time>2014-11-16T10:09:11Z</time>
      </trkpt>
      <trkpt lat="45.87275" lon="4.79066">
        <ele>304</ele>
        <time>2014-11-16T10:09:15Z</time>
      </trkpt>
      <trkpt lat="45.87281" lon="4.79067">
        <ele>303</ele>
        <time>2014-11-16T10:09:17Z</time>
      </trkpt>
      <trkpt lat="45.87288" lon="4.7907">
        <ele>302</ele>
        <time>2014-11-16T10:09:19Z</time>
      </trkpt>
      <trkpt lat="45.87293" lon="4.79075">
        <ele>301</ele>
        <time>2014-11-16T10:09:21Z</time>
      </trkpt>
      <trkpt lat="45.87297" lon="4.79084">
        <ele>305</ele>
        <time>2014-11-16T10:09:23Z</time>
      </trkpt>
      <trkpt lat="45.87298" lon="4.79089">
        <ele>305</ele>
        <time>2014-11-16T10:09:24Z</time>
      </trkpt>
      <trkpt lat="45.87304" lon="4.791">
        <ele>305</ele>
        <time>2014-11-16T10:09:27Z</time>
      </trkpt>
      <trkpt lat="45.8731" lon="4.79116">
        <ele>306</ele>
        <time>2014-11-16T10:09:31Z</time>
      </trkpt>
      <trkpt lat="45.87315" lon="4.79125">
        <ele>306</ele>
        <time>2014-11-16T10:09:36Z</time>
      </trkpt>
      <trkpt lat="45.87315" lon="4.79125">
        <ele>306</ele>
        <time>2014-11-16T10:09:37Z</time>
      </trkpt>
      <trkpt lat="45.87317" lon="4.79124">
        <ele>306</ele>
        <time>2014-11-16T10:09:43Z</time>
      </trkpt>
      <trkpt lat="45.87322" lon="4.79129">
        <ele>306</ele>
        <time>2014-11-16T10:09:49Z</time>
      </trkpt>
      <trkpt lat="45.87322" lon="4.79131">
        <ele>306</ele>
        <time>2014-11-16T10:09:51Z</time>
      </trkpt>
      <trkpt lat="45.87321" lon="4.79132">
        <ele>306</ele>
        <time>2014-11-16T10:09:54Z</time>
      </trkpt>
      <trkpt lat="45.87318" lon="4.79141">
        <ele>307</ele>
        <time>2014-11-16T10:09:59Z</time>
      </trkpt>
      <trkpt lat="45.87318" lon="4.79145">
        <ele>307</ele>
        <time>2014-11-16T10:10:02Z</time>
      </trkpt>
      <trkpt lat="45.87318" lon="4.79146">
        <ele>307</ele>
        <time>2014-11-16T10:10:03Z</time>
      </trkpt>
      <trkpt lat="45.87316" lon="4.79148">
        <ele>307</ele>
        <time>2014-11-16T10:10:05Z</time>
      </trkpt>
      <trkpt lat="45.87315" lon="4.79149">
        <ele>307</ele>
        <time>2014-11-16T10:10:06Z</time>
      </trkpt>
      <trkpt lat="45.87312" lon="4.79151">
        <ele>308</ele>
        <time>2014-11-16T10:10:08Z</time>
      </trkpt>
      <trkpt lat="45.87312" lon="4.79156">
        <ele>308</ele>
        <time>2014-11-16T10:10:11Z</time>
      </trkpt>
      <trkpt lat="45.87307" lon="4.79164">
        <ele>308</ele>
        <time>2014-11-16T10:10:16Z</time>
      </trkpt>
      <trkpt lat="45.87307" lon="4.79165">
        <ele>308</ele>
        <time>2014-11-16T10:10:17Z</time>
      </trkpt>
      <trkpt lat="45.87308" lon="4.79177">
        <ele>317</ele>
        <time>2014-11-16T10:10:23Z</time>
      </trkpt>
      <trkpt lat="45.87307" lon="4.79185">
        <ele>318</ele>
        <time>2014-11-16T10:10:27Z</time>
      </trkpt>
      <trkpt lat="45.87304" lon="4.79187">
        <ele>319</ele>
        <time>2014-11-16T10:10:29Z</time>
      </trkpt>
      <trkpt lat="45.87303" lon="4.79189">
        <ele>319</ele>
        <time>2014-11-16T10:10:30Z</time>
      </trkpt>
      <trkpt lat="45.873" lon="4.79193">
        <ele>320</ele>
        <time>2014-11-16T10:10:34Z</time>
      </trkpt>
      <trkpt lat="45.873" lon="4.79194">
        <ele>320</ele>
        <time>2014-11-16T10:10:35Z</time>
      </trkpt>
      <trkpt lat="45.87297" lon="4.79198">
        <ele>321</ele>
        <time>2014-11-16T10:10:39Z</time>
      </trkpt>
      <trkpt lat="45.87295" lon="4.792">
        <ele>322</ele>
        <time>2014-11-16T10:10:41Z</time>
      </trkpt>
      <trkpt lat="45.87292" lon="4.79203">
        <ele>322</ele>
        <time>2014-11-16T10:10:46Z</time>
      </trkpt>
      <trkpt lat="45.87288" lon="4.79204">
        <ele>323</ele>
        <time>2014-11-16T10:10:49Z</time>
      </trkpt>
      <trkpt lat="45.87285" lon="4.79207">
        <ele>323</ele>
        <time>2014-11-16T10:10:53Z</time>
      </trkpt>
      <trkpt lat="45.87285" lon="4.79209">
        <ele>323</ele>
        <time>2014-11-16T10:10:54Z</time>
      </trkpt>
      <trkpt lat="45.87285" lon="4.79214">
        <ele>324</ele>
        <time>2014-11-16T10:10:58Z</time>
      </trkpt>
      <trkpt lat="45.87284" lon="4.79214">
        <ele>324</ele>
        <time>2014-11-16T10:10:59Z</time>
      </trkpt>
      <trkpt lat="45.87284" lon="4.79216">
        <ele>324</ele>
        <time>2014-11-16T10:11:04Z</time>
      </trkpt>
      <trkpt lat="45.87284" lon="4.79217">
        <ele>324</ele>
        <time>2014-11-16T10:11:07Z</time>
      </trkpt>
      <trkpt lat="45.87285" lon="4.7922">
        <ele>325</ele>
        <time>2014-11-16T10:11:09Z</time>
      </trkpt>
      <trkpt lat="45.87284" lon="4.79223">
        <ele>325</ele>
        <time>2014-11-16T10:11:11Z</time>
      </trkpt>
      <trkpt lat="45.87283" lon="4.79223">
        <ele>325</ele>
        <time>2014-11-16T10:11:12Z</time>
      </trkpt>
      <trkpt lat="45.87281" lon="4.79224">
        <ele>325</ele>
        <time>2014-11-16T10:11:14Z</time>
      </trkpt>
      <trkpt lat="45.87275" lon="4.79225">
        <ele>326</ele>
        <time>2014-11-16T10:11:20Z</time>
      </trkpt>
      <trkpt lat="45.87268" lon="4.79228">
        <ele>327</ele>
        <time>2014-11-16T10:11:27Z</time>
      </trkpt>
      <trkpt lat="45.87264" lon="4.7923">
        <ele>328</ele>
        <time>2014-11-16T10:11:32Z</time>
      </trkpt>
      <trkpt lat="45.87263" lon="4.79229">
        <ele>328</ele>
        <time>2014-11-16T10:11:34Z</time>
      </trkpt>
      <trkpt lat="45.87259" lon="4.79232">
        <ele>329</ele>
        <time>2014-11-16T10:11:38Z</time>
      </trkpt>
      <trkpt lat="45.87258" lon="4.79233">
        <ele>329</ele>
        <time>2014-11-16T10:11:39Z</time>
      </trkpt>
      <trkpt lat="45.87258" lon="4.79234">
        <ele>329</ele>
        <time>2014-11-16T10:11:40Z</time>
      </trkpt>
      <trkpt lat="45.87257" lon="4.79236">
        <ele>330</ele>
        <time>2014-11-16T10:11:42Z</time>
      </trkpt>
      <trkpt lat="45.87256" lon="4.79239">
        <ele>331</ele>
        <time>2014-11-16T10:11:44Z</time>
      </trkpt>
      <trkpt lat="45.87253" lon="4.79238">
        <ele>331</ele>
        <time>2014-11-16T10:11:47Z</time>
      </trkpt>
      <trkpt lat="45.87253" lon="4.79241">
        <ele>332</ele>
        <time>2014-11-16T10:11:49Z</time>
      </trkpt>
      <trkpt lat="45.87252" lon="4.79244">
        <ele>333</ele>
        <time>2014-11-16T10:11:52Z</time>
      </trkpt>
      <trkpt lat="45.87251" lon="4.79245">
        <ele>333</ele>
        <time>2014-11-16T10:11:53Z</time>
      </trkpt>
      <trkpt lat="45.87246" lon="4.79248">
        <ele>337</ele>
        <time>2014-11-16T10:11:56Z</time>
      </trkpt>
      <trkpt lat="45.87242" lon="4.79255">
        <ele>340</ele>
        <time>2014-11-16T10:12:02Z</time>
      </trkpt>
      <trkpt lat="45.87242" lon="4.79258">
        <ele>341</ele>
        <time>2014-11-16T10:12:04Z</time>
      </trkpt>
      <trkpt lat="45.8724" lon="4.79258">
        <ele>341</ele>
        <time>2014-11-16T10:12:08Z</time>
      </trkpt>
      <trkpt lat="45.87238" lon="4.79258">
        <ele>342</ele>
        <time>2014-11-16T10:12:09Z</time>
      </trkpt>
      <trkpt lat="45.87236" lon="4.7926">
        <ele>343</ele>
        <time>2014-11-16T10:12:12Z</time>
      </trkpt>
      <trkpt lat="45.87236" lon="4.79261">
        <ele>343</ele>
        <time>2014-11-16T10:12:13Z</time>
      </trkpt>
      <trkpt lat="45.87236" lon="4.79262">
        <ele>343</ele>
        <time>2014-11-16T10:12:17Z</time>
      </trkpt>
      <trkpt lat="45.87234" lon="4.79262">
        <ele>343</ele>
        <time>2014-11-16T10:12:20Z</time>
      </trkpt>
      <trkpt lat="45.87233" lon="4.7926">
        <ele>343</ele>
        <time>2014-11-16T10:12:22Z</time>
      </trkpt>
      <trkpt lat="45.87229" lon="4.79271">
        <ele>345</ele>
        <time>2014-11-16T10:12:49Z</time>
      </trkpt>
      <trkpt lat="45.87231" lon="4.79277">
        <ele>346</ele>
        <time>2014-11-16T10:12:53Z</time>
      </trkpt>
      <trkpt lat="45.8723" lon="4.79281">
        <ele>346</ele>
        <time>2014-11-16T10:12:55Z</time>
      </trkpt>
      <trkpt lat="45.87229" lon="4.79283">
        <ele>347</ele>
        <time>2014-11-16T10:12:57Z</time>
      </trkpt>
      <trkpt lat="45.87229" lon="4.79283">
        <ele>347</ele>
        <time>2014-11-16T10:12:59Z</time>
      </trkpt>
      <trkpt lat="45.87227" lon="4.79281">
        <ele>347</ele>
        <time>2014-11-16T10:13:03Z</time>
      </trkpt>
      <trkpt lat="45.87223" lon="4.7928">
        <ele>347</ele>
        <time>2014-11-16T10:13:07Z</time>
      </trkpt>
      <trkpt lat="45.87221" lon="4.79279">
        <ele>347</ele>
        <time>2014-11-16T10:13:09Z</time>
      </trkpt>
      <trkpt lat="45.87218" lon="4.79282">
        <ele>348</ele>
        <time>2014-11-16T10:13:12Z</time>
      </trkpt>
      <trkpt lat="45.87217" lon="4.79288">
        <ele>348</ele>
        <time>2014-11-16T10:13:15Z</time>
      </trkpt>
      <trkpt lat="45.87217" lon="4.7929">
        <ele>348</ele>
        <time>2014-11-16T10:13:16Z</time>
      </trkpt>
      <trkpt lat="45.87216" lon="4.79292">
        <ele>348</ele>
        <time>2014-11-16T10:13:17Z</time>
      </trkpt>
      <trkpt lat="45.87212" lon="4.79297">
        <ele>349</ele>
        <time>2014-11-16T10:13:22Z</time>
      </trkpt>
      <trkpt lat="45.8721" lon="4.793">
        <ele>349</ele>
        <time>2014-11-16T10:13:24Z</time>
      </trkpt>
      <trkpt lat="45.87205" lon="4.79307">
        <ele>350</ele>
        <time>2014-11-16T10:13:33Z</time>
      </trkpt>
      <trkpt lat="45.87205" lon="4.79308">
        <ele>350</ele>
        <time>2014-11-16T10:13:34Z</time>
      </trkpt>
      <trkpt lat="45.87203" lon="4.79312">
        <ele>350</ele>
        <time>2014-11-16T10:13:37Z</time>
      </trkpt>
      <trkpt lat="45.87201" lon="4.79316">
        <ele>351</ele>
        <time>2014-11-16T10:13:40Z</time>
      </trkpt>
      <trkpt lat="45.87199" lon="4.79316">
        <ele>351</ele>
        <time>2014-11-16T10:13:42Z</time>
      </trkpt>
      <trkpt lat="45.87198" lon="4.79321">
        <ele>351</ele>
        <time>2014-11-16T10:13:47Z</time>
      </trkpt>
      <trkpt lat="45.87195" lon="4.79327">
        <ele>352</ele>
        <time>2014-11-16T10:13:52Z</time>
      </trkpt>
      <trkpt lat="45.87195" lon="4.79331">
        <ele>352</ele>
        <time>2014-11-16T10:13:58Z</time>
      </trkpt>
      <trkpt lat="45.87194" lon="4.79333">
        <ele>352</ele>
        <time>2014-11-16T10:14:00Z</time>
      </trkpt>
      <trkpt lat="45.87193" lon="4.79336">
        <ele>356</ele>
        <time>2014-11-16T10:14:03Z</time>
      </trkpt>
      <trkpt lat="45.87193" lon="4.79338">
        <ele>356</ele>
        <time>2014-11-16T10:14:09Z</time>
      </trkpt>
      <trkpt lat="45.87192" lon="4.79343">
        <ele>356</ele>
        <time>2014-11-16T10:14:14Z</time>
      </trkpt>
      <trkpt lat="45.87189" lon="4.79345">
        <ele>356</ele>
        <time>2014-11-16T10:14:17Z</time>
      </trkpt>
      <trkpt lat="45.87186" lon="4.7935">
        <ele>357</ele>
        <time>2014-11-16T10:14:20Z</time>
      </trkpt>
      <trkpt lat="45.87191" lon="4.79354">
        <ele>357</ele>
        <time>2014-11-16T10:14:48Z</time>
      </trkpt>
      <trkpt lat="45.87191" lon="4.79354">
        <ele>357</ele>
        <time>2014-11-16T10:14:58Z</time>
      </trkpt>
      <trkpt lat="45.87186" lon="4.79351">
        <ele>357</ele>
        <time>2014-11-16T10:15:02Z</time>
      </trkpt>
      <trkpt lat="45.87185" lon="4.79352">
        <ele>357</ele>
        <time>2014-11-16T10:15:03Z</time>
      </trkpt>
      <trkpt lat="45.8718" lon="4.79355">
        <ele>357</ele>
        <time>2014-11-16T10:15:07Z</time>
      </trkpt>
      <trkpt lat="45.87175" lon="4.79359">
        <ele>357</ele>
        <time>2014-11-16T10:15:11Z</time>
      </trkpt>
      <trkpt lat="45.87173" lon="4.79362">
        <ele>357</ele>
        <time>2014-11-16T10:15:13Z</time>
      </trkpt>
      <trkpt lat="45.87167" lon="4.79367">
        <ele>358</ele>
        <time>2014-11-16T10:15:18Z</time>
      </trkpt>
      <trkpt lat="45.87163" lon="4.79373">
        <ele>367</ele>
        <time>2014-11-16T10:15:24Z</time>
      </trkpt>
      <trkpt lat="45.87161" lon="4.79378">
        <ele>367</ele>
        <time>2014-11-16T10:15:27Z</time>
      </trkpt>
      <trkpt lat="45.87159" lon="4.79382">
        <ele>368</ele>
        <time>2014-11-16T10:15:30Z</time>
      </trkpt>
      <trkpt lat="45.87157" lon="4.79386">
        <ele>368</ele>
        <time>2014-11-16T10:15:33Z</time>
      </trkpt>
      <trkpt lat="45.87156" lon="4.79387">
        <ele>368</ele>
        <time>2014-11-16T10:15:35Z</time>
      </trkpt>
      <trkpt lat="45.87149" lon="4.79388">
        <ele>368</ele>
        <time>2014-11-16T10:15:41Z</time>
      </trkpt>
      <trkpt lat="45.87148" lon="4.79389">
        <ele>369</ele>
        <time>2014-11-16T10:15:43Z</time>
      </trkpt>
      <trkpt lat="45.87149" lon="4.79393">
        <ele>369</ele>
        <time>2014-11-16T10:15:46Z</time>
      </trkpt>
      <trkpt lat="45.87149" lon="4.79394">
        <ele>369</ele>
        <time>2014-11-16T10:15:47Z</time>
      </trkpt>
      <trkpt lat="45.87149" lon="4.79401">
        <ele>369</ele>
        <time>2014-11-16T10:15:54Z</time>
      </trkpt>
      <trkpt lat="45.87147" lon="4.79404">
        <ele>369</ele>
        <time>2014-11-16T10:15:56Z</time>
      </trkpt>
      <trkpt lat="45.87144" lon="4.79411">
        <ele>369</ele>
        <time>2014-11-16T10:16:00Z</time>
      </trkpt>
      <trkpt lat="45.8714" lon="4.79412">
        <ele>369</ele>
        <time>2014-11-16T10:16:07Z</time>
      </trkpt>
      <trkpt lat="45.8714" lon="4.79411">
        <ele>370</ele>
        <time>2014-11-16T10:16:21Z</time>
      </trkpt>
      <trkpt lat="45.87141" lon="4.79411">
        <ele>369</ele>
        <time>2014-11-16T10:16:24Z</time>
      </trkpt>
      <trkpt lat="45.87139" lon="4.79411">
        <ele>370</ele>
        <time>2014-11-16T10:16:26Z</time>
      </trkpt>
      <trkpt lat="45.87136" lon="4.79408">
        <ele>370</ele>
        <time>2014-11-16T10:16:31Z</time>
      </trkpt>
      <trkpt lat="45.87133" lon="4.79406">
        <ele>370</ele>
        <time>2014-11-16T10:16:34Z</time>
      </trkpt>
      <trkpt lat="45.87133" lon="4.79404">
        <ele>370</ele>
        <time>2014-11-16T10:16:40Z</time>
      </trkpt>
      <trkpt lat="45.87135" lon="4.79401">
        <ele>370</ele>
        <time>2014-11-16T10:16:48Z</time>
      </trkpt>
      <trkpt lat="45.87142" lon="4.79401">
        <ele>369</ele>
        <time>2014-11-16T10:16:53Z</time>
      </trkpt>
      <trkpt lat="45.87144" lon="4.794">
        <ele>369</ele>
        <time>2014-11-16T10:16:56Z</time>
      </trkpt>
      <trkpt lat="45.8715" lon="4.79403">
        <ele>368</ele>
        <time>2014-11-16T10:17:00Z</time>
      </trkpt>
      <trkpt lat="45.87152" lon="4.79403">
        <ele>368</ele>
        <time>2014-11-16T10:17:02Z</time>
      </trkpt>
      <trkpt lat="45.87155" lon="4.794">
        <ele>368</ele>
        <time>2014-11-16T10:17:04Z</time>
      </trkpt>
      <trkpt lat="45.87162" lon="4.79398">
        <ele>368</ele>
        <time>2014-11-16T10:17:06Z</time>
      </trkpt>
      <trkpt lat="45.87167" lon="4.79396">
        <ele>361</ele>
        <time>2014-11-16T10:17:08Z</time>
      </trkpt>
      <trkpt lat="45.87175" lon="4.79397">
        <ele>361</ele>
        <time>2014-11-16T10:17:12Z</time>
      </trkpt>
      <trkpt lat="45.87176" lon="4.79398">
        <ele>361</ele>
        <time>2014-11-16T10:17:13Z</time>
      </trkpt>
      <trkpt lat="45.87182" lon="4.79398">
        <ele>360</ele>
        <time>2014-11-16T10:17:17Z</time>
      </trkpt>
      <trkpt lat="45.87181" lon="4.79399">
        <ele>360</ele>
        <time>2014-11-16T10:17:18Z</time>
      </trkpt>
      <trkpt lat="45.87184" lon="4.79399">
        <ele>360</ele>
        <time>2014-11-16T10:17:25Z</time>
      </trkpt>
      <trkpt lat="45.87179" lon="4.79401">
        <ele>361</ele>
        <time>2014-11-16T10:17:30Z</time>
      </trkpt>
      <trkpt lat="45.87184" lon="4.79399">
        <ele>360</ele>
        <time>2014-11-16T10:17:35Z</time>
      </trkpt>
      <trkpt lat="45.87182" lon="4.79397">
        <ele>360</ele>
        <time>2014-11-16T10:17:43Z</time>
      </trkpt>
      <trkpt lat="45.87173" lon="4.79393">
        <ele>360</ele>
        <time>2014-11-16T10:17:47Z</time>
      </trkpt>
      <trkpt lat="45.8717" lon="4.79392">
        <ele>360</ele>
        <time>2014-11-16T10:17:48Z</time>
      </trkpt>
      <trkpt lat="45.87161" lon="4.79384">
        <ele>368</ele>
        <time>2014-11-16T10:17:51Z</time>
      </trkpt>
      <trkpt lat="45.87153" lon="4.79372">
        <ele>367</ele>
        <time>2014-11-16T10:17:54Z</time>
      </trkpt>
      <trkpt lat="45.8715" lon="4.79366">
        <ele>367</ele>
        <time>2014-11-16T10:17:55Z</time>
      </trkpt>
      <trkpt lat="45.87144" lon="4.79356">
        <ele>367</ele>
        <time>2014-11-16T10:17:58Z</time>
      </trkpt>
      <trkpt lat="45.87142" lon="4.79354">
        <ele>367</ele>
        <time>2014-11-16T10:17:59Z</time>
      </trkpt>
      <trkpt lat="45.87143" lon="4.79352">
        <ele>367</ele>
        <time>2014-11-16T10:18:04Z</time>
      </trkpt>
      <trkpt lat="45.87148" lon="4.79359">
        <ele>367</ele>
        <time>2014-11-16T10:18:25Z</time>
      </trkpt>
      <trkpt lat="45.87149" lon="4.79361">
        <ele>367</ele>
        <time>2014-11-16T10:18:26Z</time>
      </trkpt>
      <trkpt lat="45.87151" lon="4.79361">
        <ele>366</ele>
        <time>2014-11-16T10:18:29Z</time>
      </trkpt>
      <trkpt lat="45.87152" lon="4.7936">
        <ele>366</ele>
        <time>2014-11-16T10:18:30Z</time>
      </trkpt>
      <trkpt lat="45.8716" lon="4.79359">
        <ele>365</ele>
        <time>2014-11-16T10:18:34Z</time>
      </trkpt>
      <trkpt lat="45.87164" lon="4.79357">
        <ele>365</ele>
        <time>2014-11-16T10:18:37Z</time>
      </trkpt>
      <trkpt lat="45.87169" lon="4.79354">
        <ele>357</ele>
        <time>2014-11-16T10:18:39Z</time>
      </trkpt>
      <trkpt lat="45.87174" lon="4.79349">
        <ele>357</ele>
        <time>2014-11-16T10:18:41Z</time>
      </trkpt>
      <trkpt lat="45.8718" lon="4.79343">
        <ele>357</ele>
        <time>2014-11-16T10:18:44Z</time>
      </trkpt>
      <trkpt lat="45.87183" lon="4.79339">
        <ele>357</ele>
        <time>2014-11-16T10:18:46Z</time>
      </trkpt>
      <trkpt lat="45.87181" lon="4.79336">
        <ele>357</ele>
        <time>2014-11-16T10:18:49Z</time>
      </trkpt>
      <trkpt lat="45.87178" lon="4.79329">
        <ele>354</ele>
        <time>2014-11-16T10:18:55Z</time>
      </trkpt>
      <trkpt lat="45.87177" lon="4.79323">
        <ele>354</ele>
        <time>2014-11-16T10:18:59Z</time>
      </trkpt>
      <trkpt lat="45.87177" lon="4.79322">
        <ele>353</ele>
        <time>2014-11-16T10:19:00Z</time>
      </trkpt>
      <trkpt lat="45.87177" lon="4.79317">
        <ele>353</ele>
        <time>2014-11-16T10:19:03Z</time>
      </trkpt>
      <trkpt lat="45.87174" lon="4.79306">
        <ele>352</ele>
        <time>2014-11-16T10:19:09Z</time>
      </trkpt>
      <trkpt lat="45.87173" lon="4.79302">
        <ele>352</ele>
        <time>2014-11-16T10:19:13Z</time>
      </trkpt>
      <trkpt lat="45.87173" lon="4.79298">
        <ele>352</ele>
        <time>2014-11-16T10:19:14Z</time>
      </trkpt>
      <trkpt lat="45.87173" lon="4.79293">
        <ele>351</ele>
        <time>2014-11-16T10:19:16Z</time>
      </trkpt>
      <trkpt lat="45.87172" lon="4.79286">
        <ele>351</ele>
        <time>2014-11-16T10:19:19Z</time>
      </trkpt>
      <trkpt lat="45.87172" lon="4.79284">
        <ele>351</ele>
        <time>2014-11-16T10:19:20Z</time>
      </trkpt>
      <trkpt lat="45.8717" lon="4.7928">
        <ele>351</ele>
        <time>2014-11-16T10:19:22Z</time>
      </trkpt>
      <trkpt lat="45.87167" lon="4.79274">
        <ele>351</ele>
        <time>2014-11-16T10:19:25Z</time>
      </trkpt>
      <trkpt lat="45.87166" lon="4.7927">
        <ele>359</ele>
        <time>2014-11-16T10:19:28Z</time>
      </trkpt>
      <trkpt lat="45.87166" lon="4.79268">
        <ele>359</ele>
        <time>2014-11-16T10:19:30Z</time>
      </trkpt>
      <trkpt lat="45.87166" lon="4.79267">
        <ele>359</ele>
        <time>2014-11-16T10:19:31Z</time>
      </trkpt>
      <trkpt lat="45.87166" lon="4.79261">
        <ele>358</ele>
        <time>2014-11-16T10:19:35Z</time>
      </trkpt>
      <trkpt lat="45.87162" lon="4.79256">
        <ele>357</ele>
        <time>2014-11-16T10:19:37Z</time>
      </trkpt>
      <trkpt lat="45.87157" lon="4.79249">
        <ele>356</ele>
        <time>2014-11-16T10:19:40Z</time>
      </trkpt>
      <trkpt lat="45.87155" lon="4.79248">
        <ele>356</ele>
        <time>2014-11-16T10:19:41Z</time>
      </trkpt>
      <trkpt lat="45.87154" lon="4.79245">
        <ele>356</ele>
        <time>2014-11-16T10:19:42Z</time>
      </trkpt>
      <trkpt lat="45.87145" lon="4.79233">
        <ele>357</ele>
        <time>2014-11-16T10:19:47Z</time>
      </trkpt>
      <trkpt lat="45.87142" lon="4.79229">
        <ele>357</ele>
        <time>2014-11-16T10:19:49Z</time>
      </trkpt>
      <trkpt lat="45.87136" lon="4.79219">
        <ele>358</ele>
        <time>2014-11-16T10:19:54Z</time>
      </trkpt>
      <trkpt lat="45.87129" lon="4.79215">
        <ele>358</ele>
        <time>2014-11-16T10:19:57Z</time>
      </trkpt>
      <trkpt lat="45.87127" lon="4.79216">
        <ele>358</ele>
        <time>2014-11-16T10:19:58Z</time>
      </trkpt>
      <trkpt lat="45.87117" lon="4.79215">
        <ele>359</ele>
        <time>2014-11-16T10:20:07Z</time>
      </trkpt>
      <trkpt lat="45.87108" lon="4.79219">
        <ele>360</ele>
        <time>2014-11-16T10:20:13Z</time>
      </trkpt>
      <trkpt lat="45.87099" lon="4.79219">
        <ele>361</ele>
        <time>2014-11-16T10:20:21Z</time>
      </trkpt>
      <trkpt lat="45.87097" lon="4.7922">
        <ele>361</ele>
        <time>2014-11-16T10:20:23Z</time>
      </trkpt>
      <trkpt lat="45.87091" lon="4.7922">
        <ele>362</ele>
        <time>2014-11-16T10:20:28Z</time>
      </trkpt>
      <trkpt lat="45.87085" lon="4.79222">
        <ele>362</ele>
        <time>2014-11-16T10:20:33Z</time>
      </trkpt>
      <trkpt lat="45.87082" lon="4.79222">
        <ele>370</ele>
        <time>2014-11-16T10:20:35Z</time>
      </trkpt>
      <trkpt lat="45.87074" lon="4.79223">
        <ele>370</ele>
        <time>2014-11-16T10:20:43Z</time>
      </trkpt>
      <trkpt lat="45.87073" lon="4.79223">
        <ele>370</ele>
        <time>2014-11-16T10:20:44Z</time>
      </trkpt>
      <trkpt lat="45.87064" lon="4.79223">
        <ele>370</ele>
        <time>2014-11-16T10:20:49Z</time>
      </trkpt>
      <trkpt lat="45.87058" lon="4.7922">
        <ele>370</ele>
        <time>2014-11-16T10:20:54Z</time>
      </trkpt>
      <trkpt lat="45.87058" lon="4.7922">
        <ele>370</ele>
        <time>2014-11-16T10:20:56Z</time>
      </trkpt>
      <trkpt lat="45.87055" lon="4.79221">
        <ele>370</ele>
        <time>2014-11-16T10:21:02Z</time>
      </trkpt>
      <trkpt lat="45.87052" lon="4.79218">
        <ele>370</ele>
        <time>2014-11-16T10:21:07Z</time>
      </trkpt>
      <trkpt lat="45.87046" lon="4.79214">
        <ele>371</ele>
        <time>2014-11-16T10:21:13Z</time>
      </trkpt>
      <trkpt lat="45.87045" lon="4.79213">
        <ele>370</ele>
        <time>2014-11-16T10:21:14Z</time>
      </trkpt>
      <trkpt lat="45.8704" lon="4.79206">
        <ele>370</ele>
        <time>2014-11-16T10:21:18Z</time>
      </trkpt>
      <trkpt lat="45.87037" lon="4.79201">
        <ele>370</ele>
        <time>2014-11-16T10:21:20Z</time>
      </trkpt>
      <trkpt lat="45.87033" lon="4.79196">
        <ele>370</ele>
        <time>2014-11-16T10:21:23Z</time>
      </trkpt>
      <trkpt lat="45.87028" lon="4.79187">
        <ele>369</ele>
        <time>2014-11-16T10:21:26Z</time>
      </trkpt>
      <trkpt lat="45.87025" lon="4.7918">
        <ele>369</ele>
        <time>2014-11-16T10:21:28Z</time>
      </trkpt>
      <trkpt lat="45.87018" lon="4.79163">
        <ele>361</ele>
        <time>2014-11-16T10:21:32Z</time>
      </trkpt>
      <trkpt lat="45.87012" lon="4.79148">
        <ele>360</ele>
        <time>2014-11-16T10:21:38Z</time>
      </trkpt>
      <trkpt lat="45.87011" lon="4.79138">
        <ele>358</ele>
        <time>2014-11-16T10:21:42Z</time>
      </trkpt>
      <trkpt lat="45.87002" lon="4.79123">
        <ele>357</ele>
        <time>2014-11-16T10:21:47Z</time>
      </trkpt>
      <trkpt lat="45.86996" lon="4.79115">
        <ele>364</ele>
        <time>2014-11-16T10:21:49Z</time>
      </trkpt>
      <trkpt lat="45.86988" lon="4.79103">
        <ele>362</ele>
        <time>2014-11-16T10:21:52Z</time>
      </trkpt>
      <trkpt lat="45.86986" lon="4.79098">
        <ele>361</ele>
        <time>2014-11-16T10:21:54Z</time>
      </trkpt>
      <trkpt lat="45.86983" lon="4.79094">
        <ele>361</ele>
        <time>2014-11-16T10:21:55Z</time>
      </trkpt>
      <trkpt lat="45.86978" lon="4.79089">
        <ele>362</ele>
        <time>2014-11-16T10:21:56Z</time>
      </trkpt>
      <trkpt lat="45.86968" lon="4.79079">
        <ele>362</ele>
        <time>2014-11-16T10:22:00Z</time>
      </trkpt>
      <trkpt lat="45.86964" lon="4.7908">
        <ele>362</ele>
        <time>2014-11-16T10:22:05Z</time>
      </trkpt>
      <trkpt lat="45.86961" lon="4.79082">
        <ele>363</ele>
        <time>2014-11-16T10:22:08Z</time>
      </trkpt>
      <trkpt lat="45.86959" lon="4.79082">
        <ele>363</ele>
        <time>2014-11-16T10:22:09Z</time>
      </trkpt>
      <trkpt lat="45.86955" lon="4.79083">
        <ele>364</ele>
        <time>2014-11-16T10:22:11Z</time>
      </trkpt>
      <trkpt lat="45.8695" lon="4.79083">
        <ele>365</ele>
        <time>2014-11-16T10:22:15Z</time>
      </trkpt>
      <trkpt lat="45.86946" lon="4.79086">
        <ele>368</ele>
        <time>2014-11-16T10:22:19Z</time>
      </trkpt>
      <trkpt lat="45.86943" lon="4.79087">
        <ele>368</ele>
        <time>2014-11-16T10:22:21Z</time>
      </trkpt>
      <trkpt lat="45.86937" lon="4.79093">
        <ele>369</ele>
        <time>2014-11-16T10:22:26Z</time>
      </trkpt>
      <trkpt lat="45.86934" lon="4.79095">
        <ele>369</ele>
        <time>2014-11-16T10:22:28Z</time>
      </trkpt>
      <trkpt lat="45.8693" lon="4.79098">
        <ele>370</ele>
        <time>2014-11-16T10:22:32Z</time>
      </trkpt>
      <trkpt lat="45.86929" lon="4.79098">
        <ele>370</ele>
        <time>2014-11-16T10:22:33Z</time>
      </trkpt>
      <trkpt lat="45.86921" lon="4.79101">
        <ele>370</ele>
        <time>2014-11-16T10:22:37Z</time>
      </trkpt>
      <trkpt lat="45.86918" lon="4.79102">
        <ele>370</ele>
        <time>2014-11-16T10:22:41Z</time>
      </trkpt>
      <trkpt lat="45.86914" lon="4.79104">
        <ele>380</ele>
        <time>2014-11-16T10:22:46Z</time>
      </trkpt>
      <trkpt lat="45.86913" lon="4.79104">
        <ele>380</ele>
        <time>2014-11-16T10:22:47Z</time>
      </trkpt>
      <trkpt lat="45.8691" lon="4.79103">
        <ele>380</ele>
        <time>2014-11-16T10:22:48Z</time>
      </trkpt>
      <trkpt lat="45.86907" lon="4.79103">
        <ele>381</ele>
        <time>2014-11-16T10:22:51Z</time>
      </trkpt>
      <trkpt lat="45.86898" lon="4.79103">
        <ele>383</ele>
        <time>2014-11-16T10:23:03Z</time>
      </trkpt>
      <trkpt lat="45.86896" lon="4.79105">
        <ele>383</ele>
        <time>2014-11-16T10:23:08Z</time>
      </trkpt>
      <trkpt lat="45.86893" lon="4.79109">
        <ele>384</ele>
        <time>2014-11-16T10:23:13Z</time>
      </trkpt>
      <trkpt lat="45.86887" lon="4.79117">
        <ele>386</ele>
        <time>2014-11-16T10:23:22Z</time>
      </trkpt>
      <trkpt lat="45.86881" lon="4.7911">
        <ele>386</ele>
        <time>2014-11-16T10:23:31Z</time>
      </trkpt>
      <trkpt lat="45.86881" lon="4.7911">
        <ele>386</ele>
        <time>2014-11-16T10:23:32Z</time>
      </trkpt>
      <trkpt lat="45.8688" lon="4.79109">
        <ele>386</ele>
        <time>2014-11-16T10:23:34Z</time>
      </trkpt>
      <trkpt lat="45.86878" lon="4.79109">
        <ele>387</ele>
        <time>2014-11-16T10:23:36Z</time>
      </trkpt>
      <trkpt lat="45.86872" lon="4.79108">
        <ele>388</ele>
        <time>2014-11-16T10:23:41Z</time>
      </trkpt>
      <trkpt lat="45.8687" lon="4.7911">
        <ele>388</ele>
        <time>2014-11-16T10:23:43Z</time>
      </trkpt>
      <trkpt lat="45.86862" lon="4.79116">
        <ele>389</ele>
        <time>2014-11-16T10:23:55Z</time>
      </trkpt>
      <trkpt lat="45.86856" lon="4.79123">
        <ele>390</ele>
        <time>2014-11-16T10:24:02Z</time>
      </trkpt>
      <trkpt lat="45.86854" lon="4.79124">
        <ele>391</ele>
        <time>2014-11-16T10:24:05Z</time>
      </trkpt>
      <trkpt lat="45.8685" lon="4.79124">
        <ele>391</ele>
        <time>2014-11-16T10:24:11Z</time>
      </trkpt>
      <trkpt lat="45.86849" lon="4.79123">
        <ele>391</ele>
        <time>2014-11-16T10:24:12Z</time>
      </trkpt>
      <trkpt lat="45.86846" lon="4.79124">
        <ele>391</ele>
        <time>2014-11-16T10:24:15Z</time>
      </trkpt>
      <trkpt lat="45.86845" lon="4.79126">
        <ele>391</ele>
        <time>2014-11-16T10:24:17Z</time>
      </trkpt>
      <trkpt lat="45.86844" lon="4.79126">
        <ele>392</ele>
        <time>2014-11-16T10:24:18Z</time>
      </trkpt>
      <trkpt lat="45.86842" lon="4.79129">
        <ele>392</ele>
        <time>2014-11-16T10:24:22Z</time>
      </trkpt>
      <trkpt lat="45.8684" lon="4.79129">
        <ele>392</ele>
        <time>2014-11-16T10:24:27Z</time>
      </trkpt>
      <trkpt lat="45.86839" lon="4.79129">
        <ele>392</ele>
        <time>2014-11-16T10:24:28Z</time>
      </trkpt>
      <trkpt lat="45.86838" lon="4.79133">
        <ele>393</ele>
        <time>2014-11-16T10:24:34Z</time>
      </trkpt>
      <trkpt lat="45.86836" lon="4.79141">
        <ele>394</ele>
        <time>2014-11-16T10:24:40Z</time>
      </trkpt>
      <trkpt lat="45.86834" lon="4.79145">
        <ele>395</ele>
        <time>2014-11-16T10:24:44Z</time>
      </trkpt>
      <trkpt lat="45.86833" lon="4.79146">
        <ele>405</ele>
        <time>2014-11-16T10:24:46Z</time>
      </trkpt>
      <trkpt lat="45.86832" lon="4.79148">
        <ele>405</ele>
        <time>2014-11-16T10:24:55Z</time>
      </trkpt>
      <trkpt lat="45.8683" lon="4.79147">
        <ele>405</ele>
        <time>2014-11-16T10:24:56Z</time>
      </trkpt>
      <trkpt lat="45.86827" lon="4.79145">
        <ele>405</ele>
        <time>2014-11-16T10:25:00Z</time>
      </trkpt>
      <trkpt lat="45.86825" lon="4.79143">
        <ele>406</ele>
        <time>2014-11-16T10:25:02Z</time>
      </trkpt>
      <trkpt lat="45.86818" lon="4.7914">
        <ele>406</ele>
        <time>2014-11-16T10:25:07Z</time>
      </trkpt>
      <trkpt lat="45.86811" lon="4.79136">
        <ele>407</ele>
        <time>2014-11-16T10:25:12Z</time>
      </trkpt>
      <trkpt lat="45.86811" lon="4.79135">
        <ele>407</ele>
        <time>2014-11-16T10:25:13Z</time>
      </trkpt>
      <trkpt lat="45.86808" lon="4.79126">
        <ele>407</ele>
        <time>2014-11-16T10:25:18Z</time>
      </trkpt>
      <trkpt lat="45.86807" lon="4.79123">
        <ele>407</ele>
        <time>2014-11-16T10:25:19Z</time>
      </trkpt>
      <trkpt lat="45.86807" lon="4.79116">
        <ele>407</ele>
        <time>2014-11-16T10:25:24Z</time>
      </trkpt>
      <trkpt lat="45.86808" lon="4.79115">
        <ele>407</ele>
        <time>2014-11-16T10:25:25Z</time>
      </trkpt>
      <trkpt lat="45.86808" lon="4.79114">
        <ele>406</ele>
        <time>2014-11-16T10:25:26Z</time>
      </trkpt>
      <trkpt lat="45.86807" lon="4.7911">
        <ele>406</ele>
        <time>2014-11-16T10:25:28Z</time>
      </trkpt>
      <trkpt lat="45.86807" lon="4.79109">
        <ele>406</ele>
        <time>2014-11-16T10:25:29Z</time>
      </trkpt>
      <trkpt lat="45.86804" lon="4.79098">
        <ele>406</ele>
        <time>2014-11-16T10:25:36Z</time>
      </trkpt>
      <trkpt lat="45.86803" lon="4.79097">
        <ele>406</ele>
        <time>2014-11-16T10:25:37Z</time>
      </trkpt>
      <trkpt lat="45.86804" lon="4.79087">
        <ele>406</ele>
        <time>2014-11-16T10:25:45Z</time>
      </trkpt>
      <trkpt lat="45.86804" lon="4.79084">
        <ele>406</ele>
        <time>2014-11-16T10:25:47Z</time>
      </trkpt>
      <trkpt lat="45.86803" lon="4.79081">
        <ele>406</ele>
        <time>2014-11-16T10:25:49Z</time>
      </trkpt>
      <trkpt lat="45.86803" lon="4.79079">
        <ele>406</ele>
        <time>2014-11-16T10:25:51Z</time>
      </trkpt>
      <trkpt lat="45.86803" lon="4.79076">
        <ele>406</ele>
        <time>2014-11-16T10:25:53Z</time>
      </trkpt>
      <trkpt lat="45.86803" lon="4.79072">
        <ele>406</ele>
        <time>2014-11-16T10:25:56Z</time>
      </trkpt>
      <trkpt lat="45.86805" lon="4.7907">
        <ele>406</ele>
        <time>2014-11-16T10:25:58Z</time>
      </trkpt>
      <trkpt lat="45.86803" lon="4.79062">
        <ele>406</ele>
        <time>2014-11-16T10:26:03Z</time>
      </trkpt>
      <trkpt lat="45.86803" lon="4.7906">
        <ele>407</ele>
        <time>2014-11-16T10:26:04Z</time>
      </trkpt>
      <trkpt lat="45.86802" lon="4.79059">
        <ele>407</ele>
        <time>2014-11-16T10:26:05Z</time>
      </trkpt>
      <trkpt lat="45.86802" lon="4.79056">
        <ele>407</ele>
        <time>2014-11-16T10:26:07Z</time>
      </trkpt>
      <trkpt lat="45.86803" lon="4.79051">
        <ele>407</ele>
        <time>2014-11-16T10:26:10Z</time>
      </trkpt>
      <trkpt lat="45.86803" lon="4.79046">
        <ele>407</ele>
        <time>2014-11-16T10:26:13Z</time>
      </trkpt>
      <trkpt lat="45.86803" lon="4.79044">
        <ele>407</ele>
        <time>2014-11-16T10:26:14Z</time>
      </trkpt>
      <trkpt lat="45.86802" lon="4.79036">
        <ele>407</ele>
        <time>2014-11-16T10:26:19Z</time>
      </trkpt>
      <trkpt lat="45.86802" lon="4.79034">
        <ele>407</ele>
        <time>2014-11-16T10:26:20Z</time>
      </trkpt>
      <trkpt lat="45.86801" lon="4.79032">
        <ele>407</ele>
        <time>2014-11-16T10:26:22Z</time>
      </trkpt>
      <trkpt lat="45.86801" lon="4.7903">
        <ele>407</ele>
        <time>2014-11-16T10:26:23Z</time>
      </trkpt>
      <trkpt lat="45.868" lon="4.79025">
        <ele>408</ele>
        <time>2014-11-16T10:26:27Z</time>
      </trkpt>
      <trkpt lat="45.86799" lon="4.79021">
        <ele>408</ele>
        <time>2014-11-16T10:26:30Z</time>
      </trkpt>
      <trkpt lat="45.86799" lon="4.79019">
        <ele>408</ele>
        <time>2014-11-16T10:26:31Z</time>
      </trkpt>
      <trkpt lat="45.86798" lon="4.79016">
        <ele>408</ele>
        <time>2014-11-16T10:26:34Z</time>
      </trkpt>
      <trkpt lat="45.86795" lon="4.79006">
        <ele>408</ele>
        <time>2014-11-16T10:26:41Z</time>
      </trkpt>
      <trkpt lat="45.86794" lon="4.79003">
        <ele>408</ele>
        <time>2014-11-16T10:26:43Z</time>
      </trkpt>
      <trkpt lat="45.86791" lon="4.78992">
        <ele>409</ele>
        <time>2014-11-16T10:26:49Z</time>
      </trkpt>
      <trkpt lat="45.86786" lon="4.78978">
        <ele>409</ele>
        <time>2014-11-16T10:26:56Z</time>
      </trkpt>
      <trkpt lat="45.86781" lon="4.78969">
        <ele>409</ele>
        <time>2014-11-16T10:27:04Z</time>
      </trkpt>
      <trkpt lat="45.86781" lon="4.78968">
        <ele>409</ele>
        <time>2014-11-16T10:27:05Z</time>
      </trkpt>
      <trkpt lat="45.86775" lon="4.78962">
        <ele>410</ele>
        <time>2014-11-16T10:27:09Z</time>
      </trkpt>
      <trkpt lat="45.86773" lon="4.78959">
        <ele>410</ele>
        <time>2014-11-16T10:27:11Z</time>
      </trkpt>
      <trkpt lat="45.86767" lon="4.7895">
        <ele>410</ele>
        <time>2014-11-16T10:27:16Z</time>
      </trkpt>
      <trkpt lat="45.86768" lon="4.78942">
        <ele>410</ele>
        <time>2014-11-16T10:27:20Z</time>
      </trkpt>
      <trkpt lat="45.8677" lon="4.7894">
        <ele>410</ele>
        <time>2014-11-16T10:27:21Z</time>
      </trkpt>
      <trkpt lat="45.86773" lon="4.78932">
        <ele>410</ele>
        <time>2014-11-16T10:27:24Z</time>
      </trkpt>
      <trkpt lat="45.86774" lon="4.78929">
        <ele>410</ele>
        <time>2014-11-16T10:27:25Z</time>
      </trkpt>
      <trkpt lat="45.86778" lon="4.78916">
        <ele>407</ele>
        <time>2014-11-16T10:27:29Z</time>
      </trkpt>
      <trkpt lat="45.86778" lon="4.78912">
        <ele>407</ele>
        <time>2014-11-16T10:27:30Z</time>
      </trkpt>
      <trkpt lat="45.86773" lon="4.78898">
        <ele>406</ele>
        <time>2014-11-16T10:27:35Z</time>
      </trkpt>
      <trkpt lat="45.86769" lon="4.78892">
        <ele>406</ele>
        <time>2014-11-16T10:27:37Z</time>
      </trkpt>
      <trkpt lat="45.86765" lon="4.78887">
        <ele>406</ele>
        <time>2014-11-16T10:27:39Z</time>
      </trkpt>
      <trkpt lat="45.86763" lon="4.78885">
        <ele>406</ele>
        <time>2014-11-16T10:27:40Z</time>
      </trkpt>
      <trkpt lat="45.86756" lon="4.78873">
        <ele>406</ele>
        <time>2014-11-16T10:27:44Z</time>
      </trkpt>
      <trkpt lat="45.86747" lon="4.78866">
        <ele>413</ele>
        <time>2014-11-16T10:27:48Z</time>
      </trkpt>
      <trkpt lat="45.86739" lon="4.78858">
        <ele>413</ele>
        <time>2014-11-16T10:27:52Z</time>
      </trkpt>
      <trkpt lat="45.86732" lon="4.78853">
        <ele>412</ele>
        <time>2014-11-16T10:27:55Z</time>
      </trkpt>
      <trkpt lat="45.86722" lon="4.78847">
        <ele>413</ele>
        <time>2014-11-16T10:28:00Z</time>
      </trkpt>
      <trkpt lat="45.86711" lon="4.78846">
        <ele>414</ele>
        <time>2014-11-16T10:28:05Z</time>
      </trkpt>
      <trkpt lat="45.86702" lon="4.78844">
        <ele>414</ele>
        <time>2014-11-16T10:28:09Z</time>
      </trkpt>
      <trkpt lat="45.86695" lon="4.78843">
        <ele>414</ele>
        <time>2014-11-16T10:28:12Z</time>
      </trkpt>
      <trkpt lat="45.86684" lon="4.7884">
        <ele>414</ele>
        <time>2014-11-16T10:28:17Z</time>
      </trkpt>
      <trkpt lat="45.86669" lon="4.78835">
        <ele>413</ele>
        <time>2014-11-16T10:28:23Z</time>
      </trkpt>
      <trkpt lat="45.86666" lon="4.78834">
        <ele>413</ele>
        <time>2014-11-16T10:28:24Z</time>
      </trkpt>
      <trkpt lat="45.86647" lon="4.78829">
        <ele>411</ele>
        <time>2014-11-16T10:28:30Z</time>
      </trkpt>
      <trkpt lat="45.86633" lon="4.78828">
        <ele>411</ele>
        <time>2014-11-16T10:28:35Z</time>
      </trkpt>
      <trkpt lat="45.86628" lon="4.78826">
        <ele>412</ele>
        <time>2014-11-16T10:28:37Z</time>
      </trkpt>
      <trkpt lat="45.86624" lon="4.78827">
        <ele>412</ele>
        <time>2014-11-16T10:28:39Z</time>
      </trkpt>
      <trkpt lat="45.86623" lon="4.78827">
        <ele>412</ele>
        <time>2014-11-16T10:28:40Z</time>
      </trkpt>
      <trkpt lat="45.86622" lon="4.78828">
        <ele>412</ele>
        <time>2014-11-16T10:28:44Z</time>
      </trkpt>
      <trkpt lat="45.86621" lon="4.78829">
        <ele>412</ele>
        <time>2014-11-16T10:28:45Z</time>
      </trkpt>
      <trkpt lat="45.86617" lon="4.7883">
        <ele>413</ele>
        <time>2014-11-16T10:28:48Z</time>
      </trkpt>
      <trkpt lat="45.86613" lon="4.78831">
        <ele>414</ele>
        <time>2014-11-16T10:28:51Z</time>
      </trkpt>
      <trkpt lat="45.86611" lon="4.78832">
        <ele>414</ele>
        <time>2014-11-16T10:28:52Z</time>
      </trkpt>
      <trkpt lat="45.8661" lon="4.78832">
        <ele>414</ele>
        <time>2014-11-16T10:28:53Z</time>
      </trkpt>
      <trkpt lat="45.86601" lon="4.78834">
        <ele>423</ele>
        <time>2014-11-16T10:29:01Z</time>
      </trkpt>
      <trkpt lat="45.86593" lon="4.78835">
        <ele>423</ele>
        <time>2014-11-16T10:29:07Z</time>
      </trkpt>
      <trkpt lat="45.86585" lon="4.78836">
        <ele>422</ele>
        <time>2014-11-16T10:29:14Z</time>
      </trkpt>
      <trkpt lat="45.86579" lon="4.78835">
        <ele>425</ele>
        <time>2014-11-16T10:29:20Z</time>
      </trkpt>
      <trkpt lat="45.86575" lon="4.78834">
        <ele>427</ele>
        <time>2014-11-16T10:29:24Z</time>
      </trkpt>
      <trkpt lat="45.86572" lon="4.78832">
        <ele>425</ele>
        <time>2014-11-16T10:29:27Z</time>
      </trkpt>
      <trkpt lat="45.8657" lon="4.78831">
        <ele>425</ele>
        <time>2014-11-16T10:29:29Z</time>
      </trkpt>
      <trkpt lat="45.86568" lon="4.7883">
        <ele>426</ele>
        <time>2014-11-16T10:29:32Z</time>
      </trkpt>
      <trkpt lat="45.86566" lon="4.78831">
        <ele>426</ele>
        <time>2014-11-16T10:29:34Z</time>
      </trkpt>
      <trkpt lat="45.86564" lon="4.78829">
        <ele>426</ele>
        <time>2014-11-16T10:29:37Z</time>
      </trkpt>
      <trkpt lat="45.86563" lon="4.78827">
        <ele>426</ele>
        <time>2014-11-16T10:29:42Z</time>
      </trkpt>
      <trkpt lat="45.86562" lon="4.78824">
        <ele>427</ele>
        <time>2014-11-16T10:29:51Z</time>
      </trkpt>
      <trkpt lat="45.86559" lon="4.78825">
        <ele>427</ele>
        <time>2014-11-16T10:29:55Z</time>
      </trkpt>
      <trkpt lat="45.86559" lon="4.78826">
        <ele>427</ele>
        <time>2014-11-16T10:29:56Z</time>
      </trkpt>
      <trkpt lat="45.86556" lon="4.78827">
        <ele>428</ele>
        <time>2014-11-16T10:29:58Z</time>
      </trkpt>
      <trkpt lat="45.86552" lon="4.78829">
        <ele>429</ele>
        <time>2014-11-16T10:30:01Z</time>
      </trkpt>
      <trkpt lat="45.8655" lon="4.7883">
        <ele>429</ele>
        <time>2014-11-16T10:30:02Z</time>
      </trkpt>
      <trkpt lat="45.86548" lon="4.78829">
        <ele>429</ele>
        <time>2014-11-16T10:30:05Z</time>
      </trkpt>
      <trkpt lat="45.86547" lon="4.7883">
        <ele>430</ele>
        <time>2014-11-16T10:30:07Z</time>
      </trkpt>
      <trkpt lat="45.86545" lon="4.78828">
        <ele>430</ele>
        <time>2014-11-16T10:30:12Z</time>
      </trkpt>
      <trkpt lat="45.86545" lon="4.78824">
        <ele>430</ele>
        <time>2014-11-16T10:30:20Z</time>
      </trkpt>
      <trkpt lat="45.86546" lon="4.78824">
        <ele>430</ele>
        <time>2014-11-16T10:30:21Z</time>
      </trkpt>
      <trkpt lat="45.8655" lon="4.78823">
        <ele>429</ele>
        <time>2014-11-16T10:30:24Z</time>
      </trkpt>
      <trkpt lat="45.86547" lon="4.78821">
        <ele>429</ele>
        <time>2014-11-16T10:30:32Z</time>
      </trkpt>
      <trkpt lat="45.86545" lon="4.78817">
        <ele>430</ele>
        <time>2014-11-16T10:30:38Z</time>
      </trkpt>
      <trkpt lat="45.86547" lon="4.78814">
        <ele>429</ele>
        <time>2014-11-16T10:30:42Z</time>
      </trkpt>
      <trkpt lat="45.86548" lon="4.78814">
        <ele>429</ele>
        <time>2014-11-16T10:30:43Z</time>
      </trkpt>
      <trkpt lat="45.86549" lon="4.78811">
        <ele>429</ele>
        <time>2014-11-16T10:30:50Z</time>
      </trkpt>
      <trkpt lat="45.86553" lon="4.78805">
        <ele>428</ele>
        <time>2014-11-16T10:30:58Z</time>
      </trkpt>
      <trkpt lat="45.86554" lon="4.78801">
        <ele>428</ele>
        <time>2014-11-16T10:31:00Z</time>
      </trkpt>
      <trkpt lat="45.86556" lon="4.78799">
        <ele>427</ele>
        <time>2014-11-16T10:31:02Z</time>
      </trkpt>
      <trkpt lat="45.86556" lon="4.78799">
        <ele>427</ele>
        <time>2014-11-16T10:31:03Z</time>
      </trkpt>
      <trkpt lat="45.86556" lon="4.78796">
        <ele>427</ele>
        <time>2014-11-16T10:31:06Z</time>
      </trkpt>
      <trkpt lat="45.86556" lon="4.78793">
        <ele>427</ele>
        <time>2014-11-16T10:31:08Z</time>
      </trkpt>
      <trkpt lat="45.86558" lon="4.78792">
        <ele>427</ele>
        <time>2014-11-16T10:31:10Z</time>
      </trkpt>
      <trkpt lat="45.86562" lon="4.78788">
        <ele>426</ele>
        <time>2014-11-16T10:31:15Z</time>
      </trkpt>
      <trkpt lat="45.86567" lon="4.78782">
        <ele>425</ele>
        <time>2014-11-16T10:31:21Z</time>
      </trkpt>
      <trkpt lat="45.86568" lon="4.78781">
        <ele>424</ele>
        <time>2014-11-16T10:31:22Z</time>
      </trkpt>
      <trkpt lat="45.86569" lon="4.78781">
        <ele>424</ele>
        <time>2014-11-16T10:31:23Z</time>
      </trkpt>
      <trkpt lat="45.86572" lon="4.78774">
        <ele>422</ele>
        <time>2014-11-16T10:31:28Z</time>
      </trkpt>
      <trkpt lat="45.86573" lon="4.78771">
        <ele>422</ele>
        <time>2014-11-16T10:31:31Z</time>
      </trkpt>
      <trkpt lat="45.86572" lon="4.7877">
        <ele>422</ele>
        <time>2014-11-16T10:31:34Z</time>
      </trkpt>
      <trkpt lat="45.86569" lon="4.78765">
        <ele>421</ele>
        <time>2014-11-16T10:31:43Z</time>
      </trkpt>
      <trkpt lat="45.86567" lon="4.78761">
        <ele>421</ele>
        <time>2014-11-16T10:31:47Z</time>
      </trkpt>
      <trkpt lat="45.86563" lon="4.78755">
        <ele>421</ele>
        <time>2014-11-16T10:31:51Z</time>
      </trkpt>
      <trkpt lat="45.86562" lon="4.78748">
        <ele>418</ele>
        <time>2014-11-16T10:31:53Z</time>
      </trkpt>
      <trkpt lat="45.86559" lon="4.78742">
        <ele>419</ele>
        <time>2014-11-16T10:31:55Z</time>
      </trkpt>
      <trkpt lat="45.86558" lon="4.78739">
        <ele>419</ele>
        <time>2014-11-16T10:31:56Z</time>
      </trkpt>
      <trkpt lat="45.86554" lon="4.78729">
        <ele>420</ele>
        <time>2014-11-16T10:32:00Z</time>
      </trkpt>
      <trkpt lat="45.86548" lon="4.78716">
        <ele>421</ele>
        <time>2014-11-16T10:32:05Z</time>
      </trkpt>
      <trkpt lat="45.86546" lon="4.78714">
        <ele>421</ele>
        <time>2014-11-16T10:32:06Z</time>
      </trkpt>
      <trkpt lat="45.86542" lon="4.78708">
        <ele>421</ele>
        <time>2014-11-16T10:32:10Z</time>
      </trkpt>
      <trkpt lat="45.86541" lon="4.78706">
        <ele>422</ele>
        <time>2014-11-16T10:32:11Z</time>
      </trkpt>
      <trkpt lat="45.86538" lon="4.78702">
        <ele>422</ele>
        <time>2014-11-16T10:32:13Z</time>
      </trkpt>
      <trkpt lat="45.86537" lon="4.78699">
        <ele>422</ele>
        <time>2014-11-16T10:32:15Z</time>
      </trkpt>
      <trkpt lat="45.86536" lon="4.78695">
        <ele>422</ele>
        <time>2014-11-16T10:32:22Z</time>
      </trkpt>
      <trkpt lat="45.86532" lon="4.78693">
        <ele>422</ele>
        <time>2014-11-16T10:32:28Z</time>
      </trkpt>
      <trkpt lat="45.86526" lon="4.78683">
        <ele>423</ele>
        <time>2014-11-16T10:32:35Z</time>
      </trkpt>
      <trkpt lat="45.86525" lon="4.78682">
        <ele>424</ele>
        <time>2014-11-16T10:32:36Z</time>
      </trkpt>
      <trkpt lat="45.86523" lon="4.7868">
        <ele>424</ele>
        <time>2014-11-16T10:32:38Z</time>
      </trkpt>
      <trkpt lat="45.86519" lon="4.78676">
        <ele>425</ele>
        <time>2014-11-16T10:32:42Z</time>
      </trkpt>
      <trkpt lat="45.86515" lon="4.78669">
        <ele>426</ele>
        <time>2014-11-16T10:32:47Z</time>
      </trkpt>
      <trkpt lat="45.86515" lon="4.78668">
        <ele>426</ele>
        <time>2014-11-16T10:32:48Z</time>
      </trkpt>
      <trkpt lat="45.86511" lon="4.7866">
        <ele>423</ele>
        <time>2014-11-16T10:32:55Z</time>
      </trkpt>
      <trkpt lat="45.8651" lon="4.78659">
        <ele>423</ele>
        <time>2014-11-16T10:32:56Z</time>
      </trkpt>
      <trkpt lat="45.8651" lon="4.78658">
        <ele>423</ele>
        <time>2014-11-16T10:32:57Z</time>
      </trkpt>
      <trkpt lat="45.86504" lon="4.78653">
        <ele>423</ele>
        <time>2014-11-16T10:33:03Z</time>
      </trkpt>
      <trkpt lat="45.86495" lon="4.7865">
        <ele>429</ele>
        <time>2014-11-16T10:33:11Z</time>
      </trkpt>
      <trkpt lat="45.86494" lon="4.78649">
        <ele>429</ele>
        <time>2014-11-16T10:33:12Z</time>
      </trkpt>
      <trkpt lat="45.86486" lon="4.78648">
        <ele>429</ele>
        <time>2014-11-16T10:33:19Z</time>
      </trkpt>
      <trkpt lat="45.86482" lon="4.78648">
        <ele>429</ele>
        <time>2014-11-16T10:33:21Z</time>
      </trkpt>
      <trkpt lat="45.86477" lon="4.78647">
        <ele>430</ele>
        <time>2014-11-16T10:33:23Z</time>
      </trkpt>
      <trkpt lat="45.86475" lon="4.78648">
        <ele>430</ele>
        <time>2014-11-16T10:33:24Z</time>
      </trkpt>
      <trkpt lat="45.86464" lon="4.7865">
        <ele>431</ele>
        <time>2014-11-16T10:33:30Z</time>
      </trkpt>
      <trkpt lat="45.86459" lon="4.7865">
        <ele>431</ele>
        <time>2014-11-16T10:33:33Z</time>
      </trkpt>
      <trkpt lat="45.86453" lon="4.7865">
        <ele>432</ele>
        <time>2014-11-16T10:33:36Z</time>
      </trkpt>
      <trkpt lat="45.86443" lon="4.78646">
        <ele>433</ele>
        <time>2014-11-16T10:33:41Z</time>
      </trkpt>
      <trkpt lat="45.86441" lon="4.78645">
        <ele>433</ele>
        <time>2014-11-16T10:33:42Z</time>
      </trkpt>
      <trkpt lat="45.86431" lon="4.78645">
        <ele>434</ele>
        <time>2014-11-16T10:33:46Z</time>
      </trkpt>
      <trkpt lat="45.86422" lon="4.78646">
        <ele>436</ele>
        <time>2014-11-16T10:33:50Z</time>
      </trkpt>
      <trkpt lat="45.8642" lon="4.78647">
        <ele>436</ele>
        <time>2014-11-16T10:33:51Z</time>
      </trkpt>
      <trkpt lat="45.86407" lon="4.78647">
        <ele>441</ele>
        <time>2014-11-16T10:33:57Z</time>
      </trkpt>
      <trkpt lat="45.86403" lon="4.78647">
        <ele>441</ele>
        <time>2014-11-16T10:33:59Z</time>
      </trkpt>
      <trkpt lat="45.86395" lon="4.78648">
        <ele>441</ele>
        <time>2014-11-16T10:34:03Z</time>
      </trkpt>
      <trkpt lat="45.86384" lon="4.78647">
        <ele>441</ele>
        <time>2014-11-16T10:34:08Z</time>
      </trkpt>
      <trkpt lat="45.86381" lon="4.78647">
        <ele>441</ele>
        <time>2014-11-16T10:34:09Z</time>
      </trkpt>
      <trkpt lat="45.86372" lon="4.78646">
        <ele>441</ele>
        <time>2014-11-16T10:34:13Z</time>
      </trkpt>
      <trkpt lat="45.86367" lon="4.78646">
        <ele>441</ele>
        <time>2014-11-16T10:34:15Z</time>
      </trkpt>
      <trkpt lat="45.86365" lon="4.78646">
        <ele>441</ele>
        <time>2014-11-16T10:34:16Z</time>
      </trkpt>
      <trkpt lat="45.86359" lon="4.78647">
        <ele>442</ele>
        <time>2014-11-16T10:34:19Z</time>
      </trkpt>
      <trkpt lat="45.86358" lon="4.78646">
        <ele>442</ele>
        <time>2014-11-16T10:34:20Z</time>
      </trkpt>
      <trkpt lat="45.86346" lon="4.78642">
        <ele>443</ele>
        <time>2014-11-16T10:34:25Z</time>
      </trkpt>
      <trkpt lat="45.86343" lon="4.78641">
        <ele>443</ele>
        <time>2014-11-16T10:34:26Z</time>
      </trkpt>
      <trkpt lat="45.86331" lon="4.78636">
        <ele>447</ele>
        <time>2014-11-16T10:34:31Z</time>
      </trkpt>
      <trkpt lat="45.86329" lon="4.78634">
        <ele>447</ele>
        <time>2014-11-16T10:34:32Z</time>
      </trkpt>
      <trkpt lat="45.86322" lon="4.7863">
        <ele>446</ele>
        <time>2014-11-16T10:34:35Z</time>
      </trkpt>
      <trkpt lat="45.86311" lon="4.78623">
        <ele>445</ele>
        <time>2014-11-16T10:34:40Z</time>
      </trkpt>
      <trkpt lat="45.86307" lon="4.78619">
        <ele>445</ele>
        <time>2014-11-16T10:34:42Z</time>
      </trkpt>
      <trkpt lat="45.86302" lon="4.78618">
        <ele>445</ele>
        <time>2014-11-16T10:34:44Z</time>
      </trkpt>
      <trkpt lat="45.86294" lon="4.78613">
        <ele>445</ele>
        <time>2014-11-16T10:34:47Z</time>
      </trkpt>
      <trkpt lat="45.86286" lon="4.78609">
        <ele>446</ele>
        <time>2014-11-16T10:34:50Z</time>
      </trkpt>
      <trkpt lat="45.86277" lon="4.78606">
        <ele>446</ele>
        <time>2014-11-16T10:34:53Z</time>
      </trkpt>
      <trkpt lat="45.86268" lon="4.78603">
        <ele>446</ele>
        <time>2014-11-16T10:34:56Z</time>
      </trkpt>
      <trkpt lat="45.86257" lon="4.786">
        <ele>446</ele>
        <time>2014-11-16T10:35:00Z</time>
      </trkpt>
      <trkpt lat="45.86252" lon="4.78599">
        <ele>446</ele>
        <time>2014-11-16T10:35:02Z</time>
      </trkpt>
      <trkpt lat="45.86246" lon="4.78593">
        <ele>450</ele>
        <time>2014-11-16T10:35:05Z</time>
      </trkpt>
      <trkpt lat="45.86242" lon="4.78589">
        <ele>450</ele>
        <time>2014-11-16T10:35:07Z</time>
      </trkpt>
      <trkpt lat="45.86239" lon="4.78587">
        <ele>450</ele>
        <time>2014-11-16T10:35:08Z</time>
      </trkpt>
      <trkpt lat="45.86237" lon="4.78584">
        <ele>450</ele>
        <time>2014-11-16T10:35:09Z</time>
      </trkpt>
      <trkpt lat="45.86231" lon="4.78579">
        <ele>448</ele>
        <time>2014-11-16T10:35:12Z</time>
      </trkpt>
      <trkpt lat="45.86223" lon="4.78573">
        <ele>450</ele>
        <time>2014-11-16T10:35:16Z</time>
      </trkpt>
      <trkpt lat="45.86219" lon="4.78568">
        <ele>450</ele>
        <time>2014-11-16T10:35:19Z</time>
      </trkpt>
      <trkpt lat="45.86217" lon="4.78564">
        <ele>450</ele>
        <time>2014-11-16T10:35:21Z</time>
      </trkpt>
      <trkpt lat="45.86214" lon="4.7856">
        <ele>451</ele>
        <time>2014-11-16T10:35:24Z</time>
      </trkpt>
      <trkpt lat="45.86209" lon="4.78554">
        <ele>451</ele>
        <time>2014-11-16T10:35:27Z</time>
      </trkpt>
      <trkpt lat="45.86206" lon="4.7855">
        <ele>451</ele>
        <time>2014-11-16T10:35:29Z</time>
      </trkpt>
      <trkpt lat="45.862" lon="4.78538">
        <ele>452</ele>
        <time>2014-11-16T10:35:34Z</time>
      </trkpt>
      <trkpt lat="45.86199" lon="4.78535">
        <ele>452</ele>
        <time>2014-11-16T10:35:37Z</time>
      </trkpt>
      <trkpt lat="45.86198" lon="4.78533">
        <ele>452</ele>
        <time>2014-11-16T10:35:39Z</time>
      </trkpt>
      <trkpt lat="45.86198" lon="4.78532">
        <ele>452</ele>
        <time>2014-11-16T10:35:40Z</time>
      </trkpt>
      <trkpt lat="45.86198" lon="4.7853">
        <ele>452</ele>
        <time>2014-11-16T10:35:42Z</time>
      </trkpt>
      <trkpt lat="45.86196" lon="4.78527">
        <ele>452</ele>
        <time>2014-11-16T10:35:44Z</time>
      </trkpt>
      <trkpt lat="45.86196" lon="4.78525">
        <ele>453</ele>
        <time>2014-11-16T10:35:46Z</time>
      </trkpt>
      <trkpt lat="45.86195" lon="4.78523">
        <ele>453</ele>
        <time>2014-11-16T10:35:47Z</time>
      </trkpt>
      <trkpt lat="45.86194" lon="4.78521">
        <ele>453</ele>
        <time>2014-11-16T10:35:49Z</time>
      </trkpt>
      <trkpt lat="45.86192" lon="4.78513">
        <ele>454</ele>
        <time>2014-11-16T10:35:55Z</time>
      </trkpt>
      <trkpt lat="45.86192" lon="4.78507">
        <ele>454</ele>
        <time>2014-11-16T10:35:59Z</time>
      </trkpt>
      <trkpt lat="45.86192" lon="4.78505">
        <ele>454</ele>
        <time>2014-11-16T10:36:00Z</time>
      </trkpt>
      <trkpt lat="45.86192" lon="4.78504">
        <ele>454</ele>
        <time>2014-11-16T10:36:01Z</time>
      </trkpt>
      <trkpt lat="45.86191" lon="4.785">
        <ele>454</ele>
        <time>2014-11-16T10:36:03Z</time>
      </trkpt>
      <trkpt lat="45.86192" lon="4.78495">
        <ele>455</ele>
        <time>2014-11-16T10:36:06Z</time>
      </trkpt>
      <trkpt lat="45.86192" lon="4.78492">
        <ele>455</ele>
        <time>2014-11-16T10:36:08Z</time>
      </trkpt>
      <trkpt lat="45.86191" lon="4.78488">
        <ele>455</ele>
        <time>2014-11-16T10:36:11Z</time>
      </trkpt>
      <trkpt lat="45.86191" lon="4.78482">
        <ele>455</ele>
        <time>2014-11-16T10:36:15Z</time>
      </trkpt>
      <trkpt lat="45.86191" lon="4.78478">
        <ele>454</ele>
        <time>2014-11-16T10:36:18Z</time>
      </trkpt>
      <trkpt lat="45.8619" lon="4.78477">
        <ele>455</ele>
        <time>2014-11-16T10:36:19Z</time>
      </trkpt>
      <trkpt lat="45.86189" lon="4.7847">
        <ele>455</ele>
        <time>2014-11-16T10:36:24Z</time>
      </trkpt>
      <trkpt lat="45.86188" lon="4.78468">
        <ele>455</ele>
        <time>2014-11-16T10:36:26Z</time>
      </trkpt>
      <trkpt lat="45.86187" lon="4.78466">
        <ele>455</ele>
        <time>2014-11-16T10:36:27Z</time>
      </trkpt>
      <trkpt lat="45.86186" lon="4.78462">
        <ele>455</ele>
        <time>2014-11-16T10:36:29Z</time>
      </trkpt>
      <trkpt lat="45.86186" lon="4.78451">
        <ele>456</ele>
        <time>2014-11-16T10:36:35Z</time>
      </trkpt>
      <trkpt lat="45.86185" lon="4.78449">
        <ele>456</ele>
        <time>2014-11-16T10:36:36Z</time>
      </trkpt>
      <trkpt lat="45.86186" lon="4.78447">
        <ele>456</ele>
        <time>2014-11-16T10:36:37Z</time>
      </trkpt>
      <trkpt lat="45.86187" lon="4.78441">
        <ele>457</ele>
        <time>2014-11-16T10:36:41Z</time>
      </trkpt>
      <trkpt lat="45.86188" lon="4.78439">
        <ele>457</ele>
        <time>2014-11-16T10:36:43Z</time>
      </trkpt>
      <trkpt lat="45.86187" lon="4.78438">
        <ele>457</ele>
        <time>2014-11-16T10:36:46Z</time>
      </trkpt>
      <trkpt lat="45.86186" lon="4.78438">
        <ele>457</ele>
        <time>2014-11-16T10:36:47Z</time>
      </trkpt>
      <trkpt lat="45.86189" lon="4.78433">
        <ele>457</ele>
        <time>2014-11-16T10:36:51Z</time>
      </trkpt>
      <trkpt lat="45.8619" lon="4.78428">
        <ele>458</ele>
        <time>2014-11-16T10:36:54Z</time>
      </trkpt>
      <trkpt lat="45.86191" lon="4.78426">
        <ele>457</ele>
        <time>2014-11-16T10:36:55Z</time>
      </trkpt>
      <trkpt lat="45.86194" lon="4.7842">
        <ele>457</ele>
        <time>2014-11-16T10:36:59Z</time>
      </trkpt>
      <trkpt lat="45.86196" lon="4.78416">
        <ele>461</ele>
        <time>2014-11-16T10:37:02Z</time>
      </trkpt>
      <trkpt lat="45.86197" lon="4.78412">
        <ele>461</ele>
        <time>2014-11-16T10:37:04Z</time>
      </trkpt>
      <trkpt lat="45.86198" lon="4.78404">
        <ele>460</ele>
        <time>2014-11-16T10:37:08Z</time>
      </trkpt>
      <trkpt lat="45.86201" lon="4.78401">
        <ele>460</ele>
        <time>2014-11-16T10:37:10Z</time>
      </trkpt>
      <trkpt lat="45.86204" lon="4.78396">
        <ele>460</ele>
        <time>2014-11-16T10:37:14Z</time>
      </trkpt>
      <trkpt lat="45.86208" lon="4.7839">
        <ele>459</ele>
        <time>2014-11-16T10:37:19Z</time>
      </trkpt>
      <trkpt lat="45.8621" lon="4.78387">
        <ele>459</ele>
        <time>2014-11-16T10:37:22Z</time>
      </trkpt>
      <trkpt lat="45.8621" lon="4.78384">
        <ele>459</ele>
        <time>2014-11-16T10:37:24Z</time>
      </trkpt>
      <trkpt lat="45.86211" lon="4.78381">
        <ele>459</ele>
        <time>2014-11-16T10:37:26Z</time>
      </trkpt>
      <trkpt lat="45.86211" lon="4.78379">
        <ele>459</ele>
        <time>2014-11-16T10:37:27Z</time>
      </trkpt>
      <trkpt lat="45.86212" lon="4.78377">
        <ele>459</ele>
        <time>2014-11-16T10:37:32Z</time>
      </trkpt>
      <trkpt lat="45.86213" lon="4.78374">
        <ele>459</ele>
        <time>2014-11-16T10:37:37Z</time>
      </trkpt>
      <trkpt lat="45.86215" lon="4.78369">
        <ele>459</ele>
        <time>2014-11-16T10:37:40Z</time>
      </trkpt>
      <trkpt lat="45.86221" lon="4.78362">
        <ele>459</ele>
        <time>2014-11-16T10:37:46Z</time>
      </trkpt>
      <trkpt lat="45.86221" lon="4.78361">
        <ele>459</ele>
        <time>2014-11-16T10:37:47Z</time>
      </trkpt>
      <trkpt lat="45.86222" lon="4.78356">
        <ele>459</ele>
        <time>2014-11-16T10:37:51Z</time>
      </trkpt>
      <trkpt lat="45.86221" lon="4.7835">
        <ele>459</ele>
        <time>2014-11-16T10:38:00Z</time>
      </trkpt>
      <trkpt lat="45.8622" lon="4.78345">
        <ele>459</ele>
        <time>2014-11-16T10:38:05Z</time>
      </trkpt>
      <trkpt lat="45.86223" lon="4.78342">
        <ele>459</ele>
        <time>2014-11-16T10:38:08Z</time>
      </trkpt>
      <trkpt lat="45.86221" lon="4.78339">
        <ele>459</ele>
        <time>2014-11-16T10:38:11Z</time>
      </trkpt>
      <trkpt lat="45.86221" lon="4.78338">
        <ele>459</ele>
        <time>2014-11-16T10:38:12Z</time>
      </trkpt>
      <trkpt lat="45.86223" lon="4.78333">
        <ele>463</ele>
        <time>2014-11-16T10:38:16Z</time>
      </trkpt>
      <trkpt lat="45.86223" lon="4.78331">
        <ele>463</ele>
        <time>2014-11-16T10:38:18Z</time>
      </trkpt>
      <trkpt lat="45.86223" lon="4.78329">
        <ele>463</ele>
        <time>2014-11-16T10:38:20Z</time>
      </trkpt>
      <trkpt lat="45.86225" lon="4.78328">
        <ele>462</ele>
        <time>2014-11-16T10:38:24Z</time>
      </trkpt>
      <trkpt lat="45.86225" lon="4.78324">
        <ele>463</ele>
        <time>2014-11-16T10:38:28Z</time>
      </trkpt>
      <trkpt lat="45.86227" lon="4.78318">
        <ele>463</ele>
        <time>2014-11-16T10:38:33Z</time>
      </trkpt>
      <trkpt lat="45.86225" lon="4.78313">
        <ele>463</ele>
        <time>2014-11-16T10:38:38Z</time>
      </trkpt>
      <trkpt lat="45.86225" lon="4.78313">
        <ele>464</ele>
        <time>2014-11-16T10:38:39Z</time>
      </trkpt>
      <trkpt lat="45.86225" lon="4.78312">
        <ele>464</ele>
        <time>2014-11-16T10:38:40Z</time>
      </trkpt>
      <trkpt lat="45.86224" lon="4.78311">
        <ele>464</ele>
        <time>2014-11-16T10:38:41Z</time>
      </trkpt>
      <trkpt lat="45.86224" lon="4.7831">
        <ele>464</ele>
        <time>2014-11-16T10:38:43Z</time>
      </trkpt>
      <trkpt lat="45.86227" lon="4.78308">
        <ele>464</ele>
        <time>2014-11-16T10:38:46Z</time>
      </trkpt>
      <trkpt lat="45.86226" lon="4.78304">
        <ele>464</ele>
        <time>2014-11-16T10:38:50Z</time>
      </trkpt>
      <trkpt lat="45.86223" lon="4.78297">
        <ele>465</ele>
        <time>2014-11-16T10:39:05Z</time>
      </trkpt>
      <trkpt lat="45.86223" lon="4.78296">
        <ele>465</ele>
        <time>2014-11-16T10:39:09Z</time>
      </trkpt>
      <trkpt lat="45.86224" lon="4.78296">
        <ele>465</ele>
        <time>2014-11-16T10:39:10Z</time>
      </trkpt>
      <trkpt lat="45.86228" lon="4.78291">
        <ele>465</ele>
        <time>2014-11-16T10:39:13Z</time>
      </trkpt>
      <trkpt lat="45.86229" lon="4.7829">
        <ele>465</ele>
        <time>2014-11-16T10:39:14Z</time>
      </trkpt>
      <trkpt lat="45.86229" lon="4.78289">
        <ele>465</ele>
        <time>2014-11-16T10:39:15Z</time>
      </trkpt>
      <trkpt lat="45.8623" lon="4.78287">
        <ele>465</ele>
        <time>2014-11-16T10:39:17Z</time>
      </trkpt>
      <trkpt lat="45.86231" lon="4.78285">
        <ele>465</ele>
        <time>2014-11-16T10:39:20Z</time>
      </trkpt>
      <trkpt lat="45.86233" lon="4.78283">
        <ele>465</ele>
        <time>2014-11-16T10:39:24Z</time>
      </trkpt>
      <trkpt lat="45.86235" lon="4.78281">
        <ele>464</ele>
        <time>2014-11-16T10:39:28Z</time>
      </trkpt>
      <trkpt lat="45.86236" lon="4.78279">
        <ele>464</ele>
        <time>2014-11-16T10:39:30Z</time>
      </trkpt>
      <trkpt lat="45.8624" lon="4.78275">
        <ele>464</ele>
        <time>2014-11-16T10:39:34Z</time>
      </trkpt>
      <trkpt lat="45.86241" lon="4.78269">
        <ele>464</ele>
        <time>2014-11-16T10:39:39Z</time>
      </trkpt>
      <trkpt lat="45.86242" lon="4.78267">
        <ele>464</ele>
        <time>2014-11-16T10:39:41Z</time>
      </trkpt>
      <trkpt lat="45.86241" lon="4.78266">
        <ele>464</ele>
        <time>2014-11-16T10:39:42Z</time>
      </trkpt>
      <trkpt lat="45.86241" lon="4.78264">
        <ele>464</ele>
        <time>2014-11-16T10:39:43Z</time>
      </trkpt>
      <trkpt lat="45.86243" lon="4.7826">
        <ele>464</ele>
        <time>2014-11-16T10:39:47Z</time>
      </trkpt>
      <trkpt lat="45.86245" lon="4.78256">
        <ele>463</ele>
        <time>2014-11-16T10:39:50Z</time>
      </trkpt>
      <trkpt lat="45.86244" lon="4.78255">
        <ele>463</ele>
        <time>2014-11-16T10:39:51Z</time>
      </trkpt>
      <trkpt lat="45.86243" lon="4.78253">
        <ele>463</ele>
        <time>2014-11-16T10:39:54Z</time>
      </trkpt>
      <trkpt lat="45.86243" lon="4.78249">
        <ele>463</ele>
        <time>2014-11-16T10:39:58Z</time>
      </trkpt>
      <trkpt lat="45.86244" lon="4.78248">
        <ele>463</ele>
        <time>2014-11-16T10:39:59Z</time>
      </trkpt>
      <trkpt lat="45.86246" lon="4.78244">
        <ele>463</ele>
        <time>2014-11-16T10:40:03Z</time>
      </trkpt>
      <trkpt lat="45.86247" lon="4.78244">
        <ele>463</ele>
        <time>2014-11-16T10:40:04Z</time>
      </trkpt>
      <trkpt lat="45.86249" lon="4.78242">
        <ele>463</ele>
        <time>2014-11-16T10:40:06Z</time>
      </trkpt>
      <trkpt lat="45.86253" lon="4.7824">
        <ele>459</ele>
        <time>2014-11-16T10:40:10Z</time>
      </trkpt>
      <trkpt lat="45.86254" lon="4.78239">
        <ele>459</ele>
        <time>2014-11-16T10:40:12Z</time>
      </trkpt>
      <trkpt lat="45.86254" lon="4.78236">
        <ele>458</ele>
        <time>2014-11-16T10:40:15Z</time>
      </trkpt>
      <trkpt lat="45.86254" lon="4.78234">
        <ele>458</ele>
        <time>2014-11-16T10:40:16Z</time>
      </trkpt>
      <trkpt lat="45.86254" lon="4.78225">
        <ele>456</ele>
        <time>2014-11-16T10:40:26Z</time>
      </trkpt>
      <trkpt lat="45.86256" lon="4.78221">
        <ele>456</ele>
        <time>2014-11-16T10:40:28Z</time>
      </trkpt>
      <trkpt lat="45.86256" lon="4.78218">
        <ele>456</ele>
        <time>2014-11-16T10:40:31Z</time>
      </trkpt>
      <trkpt lat="45.86253" lon="4.78217">
        <ele>456</ele>
        <time>2014-11-16T10:40:34Z</time>
      </trkpt>
      <trkpt lat="45.8625" lon="4.78217">
        <ele>456</ele>
        <time>2014-11-16T10:40:37Z</time>
      </trkpt>
      <trkpt lat="45.86248" lon="4.78216">
        <ele>464</ele>
        <time>2014-11-16T10:40:40Z</time>
      </trkpt>
      <trkpt lat="45.86247" lon="4.78214">
        <ele>464</ele>
        <time>2014-11-16T10:40:42Z</time>
      </trkpt>
      <trkpt lat="45.86245" lon="4.78213">
        <ele>464</ele>
        <time>2014-11-16T10:40:44Z</time>
      </trkpt>
      <trkpt lat="45.86243" lon="4.78212">
        <ele>464</ele>
        <time>2014-11-16T10:40:47Z</time>
      </trkpt>
      <trkpt lat="45.86242" lon="4.78213">
        <ele>464</ele>
        <time>2014-11-16T10:40:50Z</time>
      </trkpt>
      <trkpt lat="45.8624" lon="4.78213">
        <ele>465</ele>
        <time>2014-11-16T10:40:53Z</time>
      </trkpt>
      <trkpt lat="45.86238" lon="4.78213">
        <ele>465</ele>
        <time>2014-11-16T10:40:55Z</time>
      </trkpt>
      <trkpt lat="45.86237" lon="4.7821">
        <ele>465</ele>
        <time>2014-11-16T10:40:57Z</time>
      </trkpt>
      <trkpt lat="45.86235" lon="4.78206">
        <ele>465</ele>
        <time>2014-11-16T10:41:01Z</time>
      </trkpt>
      <trkpt lat="45.86234" lon="4.78205">
        <ele>465</ele>
        <time>2014-11-16T10:41:04Z</time>
      </trkpt>
      <trkpt lat="45.86232" lon="4.78204">
        <ele>465</ele>
        <time>2014-11-16T10:41:13Z</time>
      </trkpt>
      <trkpt lat="45.86228" lon="4.78201">
        <ele>465</ele>
        <time>2014-11-16T10:41:19Z</time>
      </trkpt>
      <trkpt lat="45.86227" lon="4.782">
        <ele>465</ele>
        <time>2014-11-16T10:41:21Z</time>
      </trkpt>
      <trkpt lat="45.86224" lon="4.78197">
        <ele>465</ele>
        <time>2014-11-16T10:41:24Z</time>
      </trkpt>
      <trkpt lat="45.86221" lon="4.78194">
        <ele>465</ele>
        <time>2014-11-16T10:41:27Z</time>
      </trkpt>
      <trkpt lat="45.86217" lon="4.78192">
        <ele>465</ele>
        <time>2014-11-16T10:41:30Z</time>
      </trkpt>
      <trkpt lat="45.86217" lon="4.78192">
        <ele>465</ele>
        <time>2014-11-16T10:41:31Z</time>
      </trkpt>
      <trkpt lat="45.86216" lon="4.78191">
        <ele>465</ele>
        <time>2014-11-16T10:41:32Z</time>
      </trkpt>
      <trkpt lat="45.86214" lon="4.78184">
        <ele>465</ele>
        <time>2014-11-16T10:41:36Z</time>
      </trkpt>
      <trkpt lat="45.86213" lon="4.78183">
        <ele>465</ele>
        <time>2014-11-16T10:41:37Z</time>
      </trkpt>
      <trkpt lat="45.86213" lon="4.78182">
        <ele>465</ele>
        <time>2014-11-16T10:41:38Z</time>
      </trkpt>
      <trkpt lat="45.86211" lon="4.7818">
        <ele>466</ele>
        <time>2014-11-16T10:41:40Z</time>
      </trkpt>
      <trkpt lat="45.86209" lon="4.78178">
        <ele>466</ele>
        <time>2014-11-16T10:41:42Z</time>
      </trkpt>
      <trkpt lat="45.86206" lon="4.78175">
        <ele>466</ele>
        <time>2014-11-16T10:41:46Z</time>
      </trkpt>
      <trkpt lat="45.86204" lon="4.78174">
        <ele>466</ele>
        <time>2014-11-16T10:41:48Z</time>
      </trkpt>
      <trkpt lat="45.86199" lon="4.78175">
        <ele>467</ele>
        <time>2014-11-16T10:41:53Z</time>
      </trkpt>
      <trkpt lat="45.86198" lon="4.78175">
        <ele>467</ele>
        <time>2014-11-16T10:41:54Z</time>
      </trkpt>
      <trkpt lat="45.86197" lon="4.78175">
        <ele>467</ele>
        <time>2014-11-16T10:41:55Z</time>
      </trkpt>
      <trkpt lat="45.86196" lon="4.78176">
        <ele>467</ele>
        <time>2014-11-16T10:41:57Z</time>
      </trkpt>
      <trkpt lat="45.86193" lon="4.78175">
        <ele>467</ele>
        <time>2014-11-16T10:42:00Z</time>
      </trkpt>
      <trkpt lat="45.86189" lon="4.78177">
        <ele>468</ele>
        <time>2014-11-16T10:42:07Z</time>
      </trkpt>
      <trkpt lat="45.86186" lon="4.78178">
        <ele>468</ele>
        <time>2014-11-16T10:42:09Z</time>
      </trkpt>
      <trkpt lat="45.86182" lon="4.78177">
        <ele>469</ele>
        <time>2014-11-16T10:42:12Z</time>
      </trkpt>
      <trkpt lat="45.86178" lon="4.78174">
        <ele>469</ele>
        <time>2014-11-16T10:42:16Z</time>
      </trkpt>
      <trkpt lat="45.86176" lon="4.78174">
        <ele>469</ele>
        <time>2014-11-16T10:42:19Z</time>
      </trkpt>
      <trkpt lat="45.8617" lon="4.78175">
        <ele>470</ele>
        <time>2014-11-16T10:42:23Z</time>
      </trkpt>
      <trkpt lat="45.86166" lon="4.78174">
        <ele>472</ele>
        <time>2014-11-16T10:42:26Z</time>
      </trkpt>
      <trkpt lat="45.86165" lon="4.78174">
        <ele>472</ele>
        <time>2014-11-16T10:42:27Z</time>
      </trkpt>
      <trkpt lat="45.86162" lon="4.78172">
        <ele>472</ele>
        <time>2014-11-16T10:42:31Z</time>
      </trkpt>
      <trkpt lat="45.8616" lon="4.7817">
        <ele>472</ele>
        <time>2014-11-16T10:42:34Z</time>
      </trkpt>
      <trkpt lat="45.86158" lon="4.78169">
        <ele>472</ele>
        <time>2014-11-16T10:42:36Z</time>
      </trkpt>
      <trkpt lat="45.86157" lon="4.78168">
        <ele>473</ele>
        <time>2014-11-16T10:42:38Z</time>
      </trkpt>
      <trkpt lat="45.86151" lon="4.7816">
        <ele>467</ele>
        <time>2014-11-16T10:42:43Z</time>
      </trkpt>
      <trkpt lat="45.8615" lon="4.7816">
        <ele>467</ele>
        <time>2014-11-16T10:42:44Z</time>
      </trkpt>
      <trkpt lat="45.86146" lon="4.78158">
        <ele>467</ele>
        <time>2014-11-16T10:42:49Z</time>
      </trkpt>
      <trkpt lat="45.86144" lon="4.78158">
        <ele>466</ele>
        <time>2014-11-16T10:42:50Z</time>
      </trkpt>
      <trkpt lat="45.86141" lon="4.78161">
        <ele>466</ele>
        <time>2014-11-16T10:42:54Z</time>
      </trkpt>
      <trkpt lat="45.8614" lon="4.78162">
        <ele>466</ele>
        <time>2014-11-16T10:42:56Z</time>
      </trkpt>
      <trkpt lat="45.86137" lon="4.78164">
        <ele>466</ele>
        <time>2014-11-16T10:43:00Z</time>
      </trkpt>
      <trkpt lat="45.86135" lon="4.78168">
        <ele>474</ele>
        <time>2014-11-16T10:43:04Z</time>
      </trkpt>
      <trkpt lat="45.86134" lon="4.7817">
        <ele>474</ele>
        <time>2014-11-16T10:43:06Z</time>
      </trkpt>
      <trkpt lat="45.86131" lon="4.78172">
        <ele>474</ele>
        <time>2014-11-16T10:43:26Z</time>
      </trkpt>
      <trkpt lat="45.86123" lon="4.7817">
        <ele>475</ele>
        <time>2014-11-16T10:43:45Z</time>
      </trkpt>
      <trkpt lat="45.86122" lon="4.78169">
        <ele>475</ele>
        <time>2014-11-16T10:43:46Z</time>
      </trkpt>
      <trkpt lat="45.86118" lon="4.78164">
        <ele>466</ele>
        <time>2014-11-16T10:43:52Z</time>
      </trkpt>
      <trkpt lat="45.86117" lon="4.78163">
        <ele>466</ele>
        <time>2014-11-16T10:43:53Z</time>
      </trkpt>
      <trkpt lat="45.86109" lon="4.78155">
        <ele>466</ele>
        <time>2014-11-16T10:43:56Z</time>
      </trkpt>
      <trkpt lat="45.86098" lon="4.7815">
        <ele>467</ele>
        <time>2014-11-16T10:43:59Z</time>
      </trkpt>
      <trkpt lat="45.86094" lon="4.78149">
        <ele>467</ele>
        <time>2014-11-16T10:44:00Z</time>
      </trkpt>
      <trkpt lat="45.86082" lon="4.78146">
        <ele>464</ele>
        <time>2014-11-16T10:44:04Z</time>
      </trkpt>
      <trkpt lat="45.86079" lon="4.78146">
        <ele>464</ele>
        <time>2014-11-16T10:44:05Z</time>
      </trkpt>
      <trkpt lat="45.86063" lon="4.78144">
        <ele>462</ele>
        <time>2014-11-16T10:44:10Z</time>
      </trkpt>
      <trkpt lat="45.8606" lon="4.78145">
        <ele>461</ele>
        <time>2014-11-16T10:44:11Z</time>
      </trkpt>
      <trkpt lat="45.86047" lon="4.78146">
        <ele>460</ele>
        <time>2014-11-16T10:44:15Z</time>
      </trkpt>
      <trkpt lat="45.86039" lon="4.78146">
        <ele>460</ele>
        <time>2014-11-16T10:44:17Z</time>
      </trkpt>
      <trkpt lat="45.86027" lon="4.78148">
        <ele>460</ele>
        <time>2014-11-16T10:44:21Z</time>
      </trkpt>
      <trkpt lat="45.86021" lon="4.78147">
        <ele>460</ele>
        <time>2014-11-16T10:44:23Z</time>
      </trkpt>
      <trkpt lat="45.86011" lon="4.78148">
        <ele>460</ele>
        <time>2014-11-16T10:44:26Z</time>
      </trkpt>
      <trkpt lat="45.86002" lon="4.78147">
        <ele>460</ele>
        <time>2014-11-16T10:44:29Z</time>
      </trkpt>
      <trkpt lat="45.85996" lon="4.78146">
        <ele>456</ele>
        <time>2014-11-16T10:44:31Z</time>
      </trkpt>
      <trkpt lat="45.85982" lon="4.78151">
        <ele>456</ele>
        <time>2014-11-16T10:44:36Z</time>
      </trkpt>
      <trkpt lat="45.8598" lon="4.7815">
        <ele>455</ele>
        <time>2014-11-16T10:44:37Z</time>
      </trkpt>
      <trkpt lat="45.85972" lon="4.78147">
        <ele>454</ele>
        <time>2014-11-16T10:44:40Z</time>
      </trkpt>
      <trkpt lat="45.85964" lon="4.78146">
        <ele>453</ele>
        <time>2014-11-16T10:44:43Z</time>
      </trkpt>
      <trkpt lat="45.8596" lon="4.78147">
        <ele>453</ele>
        <time>2014-11-16T10:44:45Z</time>
      </trkpt>
      <trkpt lat="45.85949" lon="4.78148">
        <ele>454</ele>
        <time>2014-11-16T10:44:50Z</time>
      </trkpt>
      <trkpt lat="45.85944" lon="4.78149">
        <ele>454</ele>
        <time>2014-11-16T10:44:52Z</time>
      </trkpt>
      <trkpt lat="45.85936" lon="4.78149">
        <ele>455</ele>
        <time>2014-11-16T10:44:55Z</time>
      </trkpt>
      <trkpt lat="45.85934" lon="4.78148">
        <ele>455</ele>
        <time>2014-11-16T10:44:56Z</time>
      </trkpt>
      <trkpt lat="45.85935" lon="4.78144">
        <ele>454</ele>
        <time>2014-11-16T10:44:58Z</time>
      </trkpt>
      <trkpt lat="45.85939" lon="4.78141">
        <ele>453</ele>
        <time>2014-11-16T10:45:00Z</time>
      </trkpt>
      <trkpt lat="45.85944" lon="4.78139">
        <ele>452</ele>
        <time>2014-11-16T10:45:02Z</time>
      </trkpt>
      <trkpt lat="45.85946" lon="4.78138">
        <ele>452</ele>
        <time>2014-11-16T10:45:03Z</time>
      </trkpt>
      <trkpt lat="45.85955" lon="4.78132">
        <ele>451</ele>
        <time>2014-11-16T10:45:08Z</time>
      </trkpt>
      <trkpt lat="45.85952" lon="4.78131">
        <ele>451</ele>
        <time>2014-11-16T10:45:10Z</time>
      </trkpt>
      <trkpt lat="45.85947" lon="4.78131">
        <ele>450</ele>
        <time>2014-11-16T10:45:12Z</time>
      </trkpt>
      <trkpt lat="45.85936" lon="4.78128">
        <ele>450</ele>
        <time>2014-11-16T10:45:15Z</time>
      </trkpt>
      <trkpt lat="45.85932" lon="4.78128">
        <ele>450</ele>
        <time>2014-11-16T10:45:16Z</time>
      </trkpt>
      <trkpt lat="45.85929" lon="4.78127">
        <ele>450</ele>
        <time>2014-11-16T10:45:17Z</time>
      </trkpt>
      <trkpt lat="45.85913" lon="4.78126">
        <ele>448</ele>
        <time>2014-11-16T10:45:23Z</time>
      </trkpt>
      <trkpt lat="45.85901" lon="4.78125">
        <ele>448</ele>
        <time>2014-11-16T10:45:28Z</time>
      </trkpt>
      <trkpt lat="45.85894" lon="4.78126">
        <ele>448</ele>
        <time>2014-11-16T10:45:31Z</time>
      </trkpt>
      <trkpt lat="45.85889" lon="4.78126">
        <ele>448</ele>
        <time>2014-11-16T10:45:33Z</time>
      </trkpt>
      <trkpt lat="45.85883" lon="4.78126">
        <ele>447</ele>
        <time>2014-11-16T10:45:38Z</time>
      </trkpt>
      <trkpt lat="45.85877" lon="4.78125">
        <ele>447</ele>
        <time>2014-11-16T10:45:51Z</time>
      </trkpt>
      <trkpt lat="45.85876" lon="4.78127">
        <ele>448</ele>
        <time>2014-11-16T10:45:54Z</time>
      </trkpt>
      <trkpt lat="45.85875" lon="4.78129">
        <ele>448</ele>
        <time>2014-11-16T10:45:59Z</time>
      </trkpt>
      <trkpt lat="45.85871" lon="4.78131">
        <ele>448</ele>
        <time>2014-11-16T10:46:17Z</time>
      </trkpt>
      <trkpt lat="45.85869" lon="4.78132">
        <ele>448</ele>
        <time>2014-11-16T10:46:19Z</time>
      </trkpt>
      <trkpt lat="45.85868" lon="4.78134">
        <ele>449</ele>
        <time>2014-11-16T10:46:21Z</time>
      </trkpt>
      <trkpt lat="45.85867" lon="4.78136">
        <ele>449</ele>
        <time>2014-11-16T10:46:23Z</time>
      </trkpt>
      <trkpt lat="45.85862" lon="4.78139">
        <ele>450</ele>
        <time>2014-11-16T10:46:27Z</time>
      </trkpt>
      <trkpt lat="45.85861" lon="4.78139">
        <ele>450</ele>
        <time>2014-11-16T10:46:28Z</time>
      </trkpt>
      <trkpt lat="45.8586" lon="4.78139">
        <ele>450</ele>
        <time>2014-11-16T10:46:29Z</time>
      </trkpt>
      <trkpt lat="45.85857" lon="4.78137">
        <ele>450</ele>
        <time>2014-11-16T10:46:32Z</time>
      </trkpt>
      <trkpt lat="45.85856" lon="4.78137">
        <ele>450</ele>
        <time>2014-11-16T10:46:33Z</time>
      </trkpt>
      <trkpt lat="45.85851" lon="4.78136">
        <ele>450</ele>
        <time>2014-11-16T10:46:37Z</time>
      </trkpt>
      <trkpt lat="45.85849" lon="4.78135">
        <ele>449</ele>
        <time>2014-11-16T10:46:39Z</time>
      </trkpt>
      <trkpt lat="45.85846" lon="4.78134">
        <ele>449</ele>
        <time>2014-11-16T10:46:41Z</time>
      </trkpt>
      <trkpt lat="45.85844" lon="4.78131">
        <ele>449</ele>
        <time>2014-11-16T10:46:42Z</time>
      </trkpt>
      <trkpt lat="45.85842" lon="4.7813">
        <ele>448</ele>
        <time>2014-11-16T10:46:44Z</time>
      </trkpt>
      <trkpt lat="45.85839" lon="4.78129">
        <ele>448</ele>
        <time>2014-11-16T10:46:46Z</time>
      </trkpt>
      <trkpt lat="45.85838" lon="4.78128">
        <ele>448</ele>
        <time>2014-11-16T10:46:48Z</time>
      </trkpt>
      <trkpt lat="45.85834" lon="4.78123">
        <ele>447</ele>
        <time>2014-11-16T10:46:56Z</time>
      </trkpt>
      <trkpt lat="45.85834" lon="4.78123">
        <ele>446</ele>
        <time>2014-11-16T10:46:57Z</time>
      </trkpt>
      <trkpt lat="45.8583" lon="4.78119">
        <ele>450</ele>
        <time>2014-11-16T10:47:02Z</time>
      </trkpt>
      <trkpt lat="45.8583" lon="4.78117">
        <ele>449</ele>
        <time>2014-11-16T10:47:03Z</time>
      </trkpt>
      <trkpt lat="45.85831" lon="4.78112">
        <ele>448</ele>
        <time>2014-11-16T10:47:06Z</time>
      </trkpt>
      <trkpt lat="45.85831" lon="4.78111">
        <ele>447</ele>
        <time>2014-11-16T10:47:07Z</time>
      </trkpt>
      <trkpt lat="45.8583" lon="4.7811">
        <ele>447</ele>
        <time>2014-11-16T10:47:08Z</time>
      </trkpt>
      <trkpt lat="45.85829" lon="4.7811">
        <ele>447</ele>
        <time>2014-11-16T10:47:10Z</time>
      </trkpt>
      <trkpt lat="45.85827" lon="4.7811">
        <ele>447</ele>
        <time>2014-11-16T10:47:12Z</time>
      </trkpt>
      <trkpt lat="45.85824" lon="4.78109">
        <ele>447</ele>
        <time>2014-11-16T10:47:15Z</time>
      </trkpt>
      <trkpt lat="45.85823" lon="4.7811">
        <ele>448</ele>
        <time>2014-11-16T10:47:16Z</time>
      </trkpt>
      <trkpt lat="45.85819" lon="4.7811">
        <ele>448</ele>
        <time>2014-11-16T10:47:22Z</time>
      </trkpt>
      <trkpt lat="45.85816" lon="4.78109">
        <ele>448</ele>
        <time>2014-11-16T10:47:24Z</time>
      </trkpt>
      <trkpt lat="45.85814" lon="4.7811">
        <ele>449</ele>
        <time>2014-11-16T10:47:26Z</time>
      </trkpt>
      <trkpt lat="45.85812" lon="4.7811">
        <ele>449</ele>
        <time>2014-11-16T10:47:29Z</time>
      </trkpt>
      <trkpt lat="45.85812" lon="4.78109">
        <ele>449</ele>
        <time>2014-11-16T10:47:30Z</time>
      </trkpt>
      <trkpt lat="45.85811" lon="4.78109">
        <ele>449</ele>
        <time>2014-11-16T10:47:31Z</time>
      </trkpt>
      <trkpt lat="45.85809" lon="4.78106">
        <ele>449</ele>
        <time>2014-11-16T10:47:35Z</time>
      </trkpt>
      <trkpt lat="45.85805" lon="4.78104">
        <ele>449</ele>
        <time>2014-11-16T10:47:37Z</time>
      </trkpt>
      <trkpt lat="45.858" lon="4.78093">
        <ele>449</ele>
        <time>2014-11-16T10:47:42Z</time>
      </trkpt>
      <trkpt lat="45.85799" lon="4.78092">
        <ele>449</ele>
        <time>2014-11-16T10:47:43Z</time>
      </trkpt>
      <trkpt lat="45.85797" lon="4.78091">
        <ele>449</ele>
        <time>2014-11-16T10:47:46Z</time>
      </trkpt>
      <trkpt lat="45.85796" lon="4.78091">
        <ele>449</ele>
        <time>2014-11-16T10:47:47Z</time>
      </trkpt>
      <trkpt lat="45.85795" lon="4.78093">
        <ele>450</ele>
        <time>2014-11-16T10:47:53Z</time>
      </trkpt>
      <trkpt lat="45.85793" lon="4.781">
        <ele>451</ele>
        <time>2014-11-16T10:48:21Z</time>
      </trkpt>
      <trkpt lat="45.85792" lon="4.78101">
        <ele>451</ele>
        <time>2014-11-16T10:48:28Z</time>
      </trkpt>
      <trkpt lat="45.85792" lon="4.78103">
        <ele>451</ele>
        <time>2014-11-16T10:48:31Z</time>
      </trkpt>
      <trkpt lat="45.85788" lon="4.78103">
        <ele>452</ele>
        <time>2014-11-16T10:48:35Z</time>
      </trkpt>
      <trkpt lat="45.85785" lon="4.781">
        <ele>452</ele>
        <time>2014-11-16T10:48:36Z</time>
      </trkpt>
      <trkpt lat="45.85783" lon="4.78098">
        <ele>452</ele>
        <time>2014-11-16T10:48:37Z</time>
      </trkpt>
      <trkpt lat="45.85782" lon="4.78097">
        <ele>452</ele>
        <time>2014-11-16T10:48:38Z</time>
      </trkpt>
      <trkpt lat="45.85782" lon="4.78094">
        <ele>452</ele>
        <time>2014-11-16T10:48:39Z</time>
      </trkpt>
      <trkpt lat="45.85778" lon="4.7809">
        <ele>452</ele>
        <time>2014-11-16T10:48:45Z</time>
      </trkpt>
      <trkpt lat="45.85775" lon="4.7809">
        <ele>453</ele>
        <time>2014-11-16T10:48:49Z</time>
      </trkpt>
      <trkpt lat="45.85775" lon="4.7809">
        <ele>453</ele>
        <time>2014-11-16T10:48:50Z</time>
      </trkpt>
      <trkpt lat="45.85773" lon="4.78089">
        <ele>453</ele>
        <time>2014-11-16T10:48:53Z</time>
      </trkpt>
      <trkpt lat="45.85771" lon="4.78088">
        <ele>453</ele>
        <time>2014-11-16T10:48:55Z</time>
      </trkpt>
      <trkpt lat="45.8577" lon="4.78086">
        <ele>453</ele>
        <time>2014-11-16T10:48:59Z</time>
      </trkpt>
      <trkpt lat="45.85769" lon="4.78083">
        <ele>444</ele>
        <time>2014-11-16T10:49:02Z</time>
      </trkpt>
      <trkpt lat="45.85764" lon="4.78077">
        <ele>445</ele>
        <time>2014-11-16T10:49:12Z</time>
      </trkpt>
      <trkpt lat="45.85762" lon="4.78076">
        <ele>445</ele>
        <time>2014-11-16T10:49:14Z</time>
      </trkpt>
      <trkpt lat="45.85762" lon="4.78074">
        <ele>445</ele>
        <time>2014-11-16T10:49:16Z</time>
      </trkpt>
      <trkpt lat="45.85759" lon="4.78072">
        <ele>445</ele>
        <time>2014-11-16T10:49:18Z</time>
      </trkpt>
      <trkpt lat="45.85756" lon="4.78067">
        <ele>444</ele>
        <time>2014-11-16T10:49:22Z</time>
      </trkpt>
      <trkpt lat="45.85756" lon="4.78063">
        <ele>443</ele>
        <time>2014-11-16T10:49:25Z</time>
      </trkpt>
      <trkpt lat="45.85755" lon="4.78062">
        <ele>443</ele>
        <time>2014-11-16T10:49:27Z</time>
      </trkpt>
      <trkpt lat="45.85753" lon="4.7806">
        <ele>442</ele>
        <time>2014-11-16T10:49:29Z</time>
      </trkpt>
      <trkpt lat="45.85749" lon="4.78055">
        <ele>454</ele>
        <time>2014-11-16T10:49:34Z</time>
      </trkpt>
      <trkpt lat="45.85749" lon="4.78053">
        <ele>453</ele>
        <time>2014-11-16T10:49:36Z</time>
      </trkpt>
      <trkpt lat="45.85749" lon="4.78052">
        <ele>453</ele>
        <time>2014-11-16T10:49:37Z</time>
      </trkpt>
      <trkpt lat="45.85748" lon="4.7805">
        <ele>453</ele>
        <time>2014-11-16T10:49:38Z</time>
      </trkpt>
      <trkpt lat="45.85748" lon="4.78046">
        <ele>453</ele>
        <time>2014-11-16T10:49:41Z</time>
      </trkpt>
      <trkpt lat="45.85748" lon="4.78045">
        <ele>452</ele>
        <time>2014-11-16T10:49:42Z</time>
      </trkpt>
      <trkpt lat="45.85748" lon="4.78042">
        <ele>452</ele>
        <time>2014-11-16T10:49:44Z</time>
      </trkpt>
      <trkpt lat="45.85746" lon="4.78041">
        <ele>452</ele>
        <time>2014-11-16T10:49:45Z</time>
      </trkpt>
      <trkpt lat="45.85742" lon="4.78037">
        <ele>452</ele>
        <time>2014-11-16T10:49:48Z</time>
      </trkpt>
      <trkpt lat="45.85741" lon="4.78033">
        <ele>451</ele>
        <time>2014-11-16T10:49:51Z</time>
      </trkpt>
      <trkpt lat="45.85741" lon="4.78032">
        <ele>451</ele>
        <time>2014-11-16T10:49:52Z</time>
      </trkpt>
      <trkpt lat="45.85741" lon="4.78031">
        <ele>451</ele>
        <time>2014-11-16T10:49:53Z</time>
      </trkpt>
      <trkpt lat="45.8574" lon="4.78027">
        <ele>450</ele>
        <time>2014-11-16T10:49:57Z</time>
      </trkpt>
      <trkpt lat="45.85739" lon="4.78023">
        <ele>449</ele>
        <time>2014-11-16T10:49:59Z</time>
      </trkpt>
      <trkpt lat="45.85739" lon="4.78019">
        <ele>448</ele>
        <time>2014-11-16T10:50:02Z</time>
      </trkpt>
      <trkpt lat="45.85737" lon="4.78014">
        <ele>447</ele>
        <time>2014-11-16T10:50:05Z</time>
      </trkpt>
      <trkpt lat="45.85736" lon="4.7801">
        <ele>447</ele>
        <time>2014-11-16T10:50:07Z</time>
      </trkpt>
      <trkpt lat="45.85731" lon="4.78002">
        <ele>447</ele>
        <time>2014-11-16T10:50:13Z</time>
      </trkpt>
      <trkpt lat="45.85729" lon="4.78">
        <ele>448</ele>
        <time>2014-11-16T10:50:15Z</time>
      </trkpt>
      <trkpt lat="45.85727" lon="4.78">
        <ele>448</ele>
        <time>2014-11-16T10:50:16Z</time>
      </trkpt>
      <trkpt lat="45.85726" lon="4.77999">
        <ele>443</ele>
        <time>2014-11-16T10:50:17Z</time>
      </trkpt>
      <trkpt lat="45.85721" lon="4.77996">
        <ele>444</ele>
        <time>2014-11-16T10:50:21Z</time>
      </trkpt>
      <trkpt lat="45.85719" lon="4.77995">
        <ele>444</ele>
        <time>2014-11-16T10:50:24Z</time>
      </trkpt>
      <trkpt lat="45.85718" lon="4.77994">
        <ele>444</ele>
        <time>2014-11-16T10:50:25Z</time>
      </trkpt>
      <trkpt lat="45.85716" lon="4.7799">
        <ele>444</ele>
        <time>2014-11-16T10:50:33Z</time>
      </trkpt>
      <trkpt lat="45.85716" lon="4.77989">
        <ele>445</ele>
        <time>2014-11-16T10:50:34Z</time>
      </trkpt>
      <trkpt lat="45.85714" lon="4.77987">
        <ele>445</ele>
        <time>2014-11-16T10:50:35Z</time>
      </trkpt>
      <trkpt lat="45.85709" lon="4.77983">
        <ele>445</ele>
        <time>2014-11-16T10:50:38Z</time>
      </trkpt>
      <trkpt lat="45.85704" lon="4.77976">
        <ele>446</ele>
        <time>2014-11-16T10:50:42Z</time>
      </trkpt>
      <trkpt lat="45.85703" lon="4.77975">
        <ele>446</ele>
        <time>2014-11-16T10:50:43Z</time>
      </trkpt>
      <trkpt lat="45.85702" lon="4.77971">
        <ele>446</ele>
        <time>2014-11-16T10:50:47Z</time>
      </trkpt>
      <trkpt lat="45.85703" lon="4.7797">
        <ele>446</ele>
        <time>2014-11-16T10:50:48Z</time>
      </trkpt>
      <trkpt lat="45.85703" lon="4.77969">
        <ele>446</ele>
        <time>2014-11-16T10:50:49Z</time>
      </trkpt>
      <trkpt lat="45.857" lon="4.77963">
        <ele>446</ele>
        <time>2014-11-16T10:50:52Z</time>
      </trkpt>
      <trkpt lat="45.85699" lon="4.77961">
        <ele>446</ele>
        <time>2014-11-16T10:50:53Z</time>
      </trkpt>
      <trkpt lat="45.85692" lon="4.77961">
        <ele>447</ele>
        <time>2014-11-16T10:50:57Z</time>
      </trkpt>
      <trkpt lat="45.85686" lon="4.77964">
        <ele>448</ele>
        <time>2014-11-16T10:51:02Z</time>
      </trkpt>
      <trkpt lat="45.85685" lon="4.77964">
        <ele>448</ele>
        <time>2014-11-16T10:51:03Z</time>
      </trkpt>
      <trkpt lat="45.85683" lon="4.77964">
        <ele>448</ele>
        <time>2014-11-16T10:51:04Z</time>
      </trkpt>
      <trkpt lat="45.85682" lon="4.77965">
        <ele>448</ele>
        <time>2014-11-16T10:51:06Z</time>
      </trkpt>
      <trkpt lat="45.85681" lon="4.77967">
        <ele>448</ele>
        <time>2014-11-16T10:51:08Z</time>
      </trkpt>
      <trkpt lat="45.85672" lon="4.77968">
        <ele>449</ele>
        <time>2014-11-16T10:51:15Z</time>
      </trkpt>
      <trkpt lat="45.85667" lon="4.77967">
        <ele>449</ele>
        <time>2014-11-16T10:51:19Z</time>
      </trkpt>
      <trkpt lat="45.85666" lon="4.77965">
        <ele>461</ele>
        <time>2014-11-16T10:51:22Z</time>
      </trkpt>
      <trkpt lat="45.85665" lon="4.77966">
        <ele>461</ele>
        <time>2014-11-16T10:51:24Z</time>
      </trkpt>
      <trkpt lat="45.85662" lon="4.77967">
        <ele>461</ele>
        <time>2014-11-16T10:51:27Z</time>
      </trkpt>
      <trkpt lat="45.85654" lon="4.77964">
        <ele>461</ele>
        <time>2014-11-16T10:51:39Z</time>
      </trkpt>
      <trkpt lat="45.85649" lon="4.77962">
        <ele>462</ele>
        <time>2014-11-16T10:51:44Z</time>
      </trkpt>
      <trkpt lat="45.85648" lon="4.77962">
        <ele>462</ele>
        <time>2014-11-16T10:51:45Z</time>
      </trkpt>
      <trkpt lat="45.85645" lon="4.77962">
        <ele>462</ele>
        <time>2014-11-16T10:51:49Z</time>
      </trkpt>
      <trkpt lat="45.85643" lon="4.77962">
        <ele>462</ele>
        <time>2014-11-16T10:51:54Z</time>
      </trkpt>
      <trkpt lat="45.85637" lon="4.77965">
        <ele>463</ele>
        <time>2014-11-16T10:52:01Z</time>
      </trkpt>
      <trkpt lat="45.85635" lon="4.7797">
        <ele>463</ele>
        <time>2014-11-16T10:52:06Z</time>
      </trkpt>
      <trkpt lat="45.85633" lon="4.77971">
        <ele>463</ele>
        <time>2014-11-16T10:52:08Z</time>
      </trkpt>
      <trkpt lat="45.85629" lon="4.77968">
        <ele>464</ele>
        <time>2014-11-16T10:52:11Z</time>
      </trkpt>
      <trkpt lat="45.85628" lon="4.77967">
        <ele>464</ele>
        <time>2014-11-16T10:52:12Z</time>
      </trkpt>
      <trkpt lat="45.85625" lon="4.77968">
        <ele>464</ele>
        <time>2014-11-16T10:52:18Z</time>
      </trkpt>
      <trkpt lat="45.85629" lon="4.77962">
        <ele>464</ele>
        <time>2014-11-16T10:52:45Z</time>
      </trkpt>
      <trkpt lat="45.85628" lon="4.77959">
        <ele>464</ele>
        <time>2014-11-16T10:52:51Z</time>
      </trkpt>
      <trkpt lat="45.85628" lon="4.77956">
        <ele>464</ele>
        <time>2014-11-16T10:52:57Z</time>
      </trkpt>
      <trkpt lat="45.85627" lon="4.7795">
        <ele>464</ele>
        <time>2014-11-16T10:53:11Z</time>
      </trkpt>
      <trkpt lat="45.85627" lon="4.77939">
        <ele>464</ele>
        <time>2014-11-16T10:53:15Z</time>
      </trkpt>
      <trkpt lat="45.85628" lon="4.77938">
        <ele>464</ele>
        <time>2014-11-16T10:53:16Z</time>
      </trkpt>
      <trkpt lat="45.85628" lon="4.77938">
        <ele>463</ele>
        <time>2014-11-16T10:53:20Z</time>
      </trkpt>
      <trkpt lat="45.85627" lon="4.77934">
        <ele>464</ele>
        <time>2014-11-16T10:53:32Z</time>
      </trkpt>
      <trkpt lat="45.85627" lon="4.77934">
        <ele>464</ele>
        <time>2014-11-16T10:53:35Z</time>
      </trkpt>
      <trkpt lat="45.85627" lon="4.77931">
        <ele>464</ele>
        <time>2014-11-16T10:53:44Z</time>
      </trkpt>
      <trkpt lat="45.8562" lon="4.77934">
        <ele>465</ele>
        <time>2014-11-16T10:53:52Z</time>
      </trkpt>
      <trkpt lat="45.85614" lon="4.7794">
        <ele>465</ele>
        <time>2014-11-16T10:53:55Z</time>
      </trkpt>
      <trkpt lat="45.85611" lon="4.77944">
        <ele>466</ele>
        <time>2014-11-16T10:53:57Z</time>
      </trkpt>
      <trkpt lat="45.85609" lon="4.77948">
        <ele>466</ele>
        <time>2014-11-16T10:53:59Z</time>
      </trkpt>
      <trkpt lat="45.85607" lon="4.77954">
        <ele>466</ele>
        <time>2014-11-16T10:54:02Z</time>
      </trkpt>
      <trkpt lat="45.85607" lon="4.77957">
        <ele>466</ele>
        <time>2014-11-16T10:54:04Z</time>
      </trkpt>
      <trkpt lat="45.85605" lon="4.77961">
        <ele>466</ele>
        <time>2014-11-16T10:54:07Z</time>
      </trkpt>
      <trkpt lat="45.85605" lon="4.77962">
        <ele>467</ele>
        <time>2014-11-16T10:54:10Z</time>
      </trkpt>
      <trkpt lat="45.85603" lon="4.77962">
        <ele>467</ele>
        <time>2014-11-16T10:54:14Z</time>
      </trkpt>
      <trkpt lat="45.85599" lon="4.77958">
        <ele>467</ele>
        <time>2014-11-16T10:54:21Z</time>
      </trkpt>
      <trkpt lat="45.85592" lon="4.77954">
        <ele>468</ele>
        <time>2014-11-16T10:54:27Z</time>
      </trkpt>
      <trkpt lat="45.8559" lon="4.77953">
        <ele>468</ele>
        <time>2014-11-16T10:54:28Z</time>
      </trkpt>
      <trkpt lat="45.85588" lon="4.77953">
        <ele>468</ele>
        <time>2014-11-16T10:54:30Z</time>
      </trkpt>
      <trkpt lat="45.85585" lon="4.77952">
        <ele>468</ele>
        <time>2014-11-16T10:54:33Z</time>
      </trkpt>
      <trkpt lat="45.85583" lon="4.77952">
        <ele>481</ele>
        <time>2014-11-16T10:54:35Z</time>
      </trkpt>
      <trkpt lat="45.85582" lon="4.77951">
        <ele>481</ele>
        <time>2014-11-16T10:54:38Z</time>
      </trkpt>
      <trkpt lat="45.85579" lon="4.77948">
        <ele>481</ele>
        <time>2014-11-16T10:54:50Z</time>
      </trkpt>
      <trkpt lat="45.85577" lon="4.77946">
        <ele>481</ele>
        <time>2014-11-16T10:54:52Z</time>
      </trkpt>
      <trkpt lat="45.85574" lon="4.77944">
        <ele>481</ele>
        <time>2014-11-16T10:54:55Z</time>
      </trkpt>
      <trkpt lat="45.85573" lon="4.77943">
        <ele>481</ele>
        <time>2014-11-16T10:54:56Z</time>
      </trkpt>
      <trkpt lat="45.85571" lon="4.77942">
        <ele>481</ele>
        <time>2014-11-16T10:55:00Z</time>
      </trkpt>
      <trkpt lat="45.8557" lon="4.77942">
        <ele>481</ele>
        <time>2014-11-16T10:55:01Z</time>
      </trkpt>
      <trkpt lat="45.85568" lon="4.77944">
        <ele>482</ele>
        <time>2014-11-16T10:55:06Z</time>
      </trkpt>
      <trkpt lat="45.85565" lon="4.77946">
        <ele>482</ele>
        <time>2014-11-16T10:55:11Z</time>
      </trkpt>
      <trkpt lat="45.85561" lon="4.77946">
        <ele>483</ele>
        <time>2014-11-16T10:55:16Z</time>
      </trkpt>
      <trkpt lat="45.85558" lon="4.77947">
        <ele>483</ele>
        <time>2014-11-16T10:55:23Z</time>
      </trkpt>
      <trkpt lat="45.85556" lon="4.77953">
        <ele>483</ele>
        <time>2014-11-16T10:55:31Z</time>
      </trkpt>
      <trkpt lat="45.85556" lon="4.77954">
        <ele>484</ele>
        <time>2014-11-16T10:55:32Z</time>
      </trkpt>
      <trkpt lat="45.85552" lon="4.77963">
        <ele>484</ele>
        <time>2014-11-16T10:55:46Z</time>
      </trkpt>
      <trkpt lat="45.85551" lon="4.77966">
        <ele>484</ele>
        <time>2014-11-16T10:55:52Z</time>
      </trkpt>
      <trkpt lat="45.85551" lon="4.77967">
        <ele>484</ele>
        <time>2014-11-16T10:55:57Z</time>
      </trkpt>
      <trkpt lat="45.8555" lon="4.7797">
        <ele>484</ele>
        <time>2014-11-16T10:56:02Z</time>
      </trkpt>
      <trkpt lat="45.85546" lon="4.77971">
        <ele>485</ele>
        <time>2014-11-16T10:56:06Z</time>
      </trkpt>
      <trkpt lat="45.85543" lon="4.77971">
        <ele>485</ele>
        <time>2014-11-16T10:56:08Z</time>
      </trkpt>
      <trkpt lat="45.85541" lon="4.77971">
        <ele>486</ele>
        <time>2014-11-16T10:56:10Z</time>
      </trkpt>
      <trkpt lat="45.85538" lon="4.77973">
        <ele>486</ele>
        <time>2014-11-16T10:56:13Z</time>
      </trkpt>
      <trkpt lat="45.85537" lon="4.77973">
        <ele>486</ele>
        <time>2014-11-16T10:56:14Z</time>
      </trkpt>
      <trkpt lat="45.85536" lon="4.77972">
        <ele>486</ele>
        <time>2014-11-16T10:56:15Z</time>
      </trkpt>
      <trkpt lat="45.85535" lon="4.77971">
        <ele>487</ele>
        <time>2014-11-16T10:56:17Z</time>
      </trkpt>
      <trkpt lat="45.85532" lon="4.77968">
        <ele>487</ele>
        <time>2014-11-16T10:56:22Z</time>
      </trkpt>
      <trkpt lat="45.85531" lon="4.77967">
        <ele>487</ele>
        <time>2014-11-16T10:56:24Z</time>
      </trkpt>
      <trkpt lat="45.8553" lon="4.77967">
        <ele>487</ele>
        <time>2014-11-16T10:56:27Z</time>
      </trkpt>
      <trkpt lat="45.85533" lon="4.77966">
        <ele>487</ele>
        <time>2014-11-16T10:56:38Z</time>
      </trkpt>
      <trkpt lat="45.85531" lon="4.77958">
        <ele>487</ele>
        <time>2014-11-16T10:56:51Z</time>
      </trkpt>
      <trkpt lat="45.85529" lon="4.77957">
        <ele>487</ele>
        <time>2014-11-16T10:56:54Z</time>
      </trkpt>
      <trkpt lat="45.85529" lon="4.77957">
        <ele>487</ele>
        <time>2014-11-16T10:56:55Z</time>
      </trkpt>
      <trkpt lat="45.85526" lon="4.77953">
        <ele>488</ele>
        <time>2014-11-16T10:57:02Z</time>
      </trkpt>
      <trkpt lat="45.85524" lon="4.77953">
        <ele>488</ele>
        <time>2014-11-16T10:57:07Z</time>
      </trkpt>
      <trkpt lat="45.8552" lon="4.77953">
        <ele>488</ele>
        <time>2014-11-16T10:57:11Z</time>
      </trkpt>
      <trkpt lat="45.85519" lon="4.77953">
        <ele>488</ele>
        <time>2014-11-16T10:57:12Z</time>
      </trkpt>
      <trkpt lat="45.85519" lon="4.7795">
        <ele>488</ele>
        <time>2014-11-16T10:57:14Z</time>
      </trkpt>
      <trkpt lat="45.85518" lon="4.77949">
        <ele>489</ele>
        <time>2014-11-16T10:57:15Z</time>
      </trkpt>
      <trkpt lat="45.8552" lon="4.77941">
        <ele>489</ele>
        <time>2014-11-16T10:57:20Z</time>
      </trkpt>
      <trkpt lat="45.8552" lon="4.7794">
        <ele>489</ele>
        <time>2014-11-16T10:57:21Z</time>
      </trkpt>
      <trkpt lat="45.85522" lon="4.77933">
        <ele>489</ele>
        <time>2014-11-16T10:57:26Z</time>
      </trkpt>
      <trkpt lat="45.85521" lon="4.77926">
        <ele>489</ele>
        <time>2014-11-16T10:57:31Z</time>
      </trkpt>
      <trkpt lat="45.85518" lon="4.77921">
        <ele>490</ele>
        <time>2014-11-16T10:57:34Z</time>
      </trkpt>
      <trkpt lat="45.85518" lon="4.7792">
        <ele>490</ele>
        <time>2014-11-16T10:57:35Z</time>
      </trkpt>
      <trkpt lat="45.85517" lon="4.77919">
        <ele>491</ele>
        <time>2014-11-16T10:57:36Z</time>
      </trkpt>
      <trkpt lat="45.85516" lon="4.77911">
        <ele>491</ele>
        <time>2014-11-16T10:57:40Z</time>
      </trkpt>
      <trkpt lat="45.85517" lon="4.77908">
        <ele>491</ele>
        <time>2014-11-16T10:57:42Z</time>
      </trkpt>
      <trkpt lat="45.85517" lon="4.77906">
        <ele>491</ele>
        <time>2014-11-16T10:57:44Z</time>
      </trkpt>
      <trkpt lat="45.85517" lon="4.77904">
        <ele>491</ele>
        <time>2014-11-16T10:57:47Z</time>
      </trkpt>
      <trkpt lat="45.85517" lon="4.77902">
        <ele>491</ele>
        <time>2014-11-16T10:57:50Z</time>
      </trkpt>
      <trkpt lat="45.8552" lon="4.77903">
        <ele>490</ele>
        <time>2014-11-16T10:57:54Z</time>
      </trkpt>
      <trkpt lat="45.85523" lon="4.77901">
        <ele>490</ele>
        <time>2014-11-16T10:57:59Z</time>
      </trkpt>
      <trkpt lat="45.85526" lon="4.77899">
        <ele>489</ele>
        <time>2014-11-16T10:58:04Z</time>
      </trkpt>
      <trkpt lat="45.85528" lon="4.77897">
        <ele>489</ele>
        <time>2014-11-16T10:58:07Z</time>
      </trkpt>
      <trkpt lat="45.85529" lon="4.77895">
        <ele>489</ele>
        <time>2014-11-16T10:58:10Z</time>
      </trkpt>
      <trkpt lat="45.85532" lon="4.77895">
        <ele>488</ele>
        <time>2014-11-16T10:58:14Z</time>
      </trkpt>
      <trkpt lat="45.85533" lon="4.77894">
        <ele>488</ele>
        <time>2014-11-16T10:58:15Z</time>
      </trkpt>
      <trkpt lat="45.85534" lon="4.77894">
        <ele>488</ele>
        <time>2014-11-16T10:58:19Z</time>
      </trkpt>
      <trkpt lat="45.85536" lon="4.77891">
        <ele>488</ele>
        <time>2014-11-16T10:58:25Z</time>
      </trkpt>
      <trkpt lat="45.85538" lon="4.77888">
        <ele>488</ele>
        <time>2014-11-16T10:58:29Z</time>
      </trkpt>
      <trkpt lat="45.8554" lon="4.77885">
        <ele>487</ele>
        <time>2014-11-16T10:58:33Z</time>
      </trkpt>
      <trkpt lat="45.8554" lon="4.77882">
        <ele>487</ele>
        <time>2014-11-16T10:58:35Z</time>
      </trkpt>
      <trkpt lat="45.85541" lon="4.7788">
        <ele>487</ele>
        <time>2014-11-16T10:58:38Z</time>
      </trkpt>
      <trkpt lat="45.85542" lon="4.77877">
        <ele>487</ele>
        <time>2014-11-16T10:58:42Z</time>
      </trkpt>
      <trkpt lat="45.85544" lon="4.77873">
        <ele>487</ele>
        <time>2014-11-16T10:58:47Z</time>
      </trkpt>
      <trkpt lat="45.85544" lon="4.77872">
        <ele>487</ele>
        <time>2014-11-16T10:58:48Z</time>
      </trkpt>
      <trkpt lat="45.85546" lon="4.77867">
        <ele>487</ele>
        <time>2014-11-16T10:58:53Z</time>
      </trkpt>
      <trkpt lat="45.85549" lon="4.77863">
        <ele>487</ele>
        <time>2014-11-16T10:58:57Z</time>
      </trkpt>
      <trkpt lat="45.8555" lon="4.77863">
        <ele>487</ele>
        <time>2014-11-16T10:58:58Z</time>
      </trkpt>
      <trkpt lat="45.85553" lon="4.77858">
        <ele>487</ele>
        <time>2014-11-16T10:59:02Z</time>
      </trkpt>
      <trkpt lat="45.85555" lon="4.77856">
        <ele>487</ele>
        <time>2014-11-16T10:59:04Z</time>
      </trkpt>
      <trkpt lat="45.85556" lon="4.77852">
        <ele>486</ele>
        <time>2014-11-16T10:59:11Z</time>
      </trkpt>
      <trkpt lat="45.85556" lon="4.77851">
        <ele>486</ele>
        <time>2014-11-16T10:59:12Z</time>
      </trkpt>
      <trkpt lat="45.85557" lon="4.77849">
        <ele>486</ele>
        <time>2014-11-16T10:59:14Z</time>
      </trkpt>
      <trkpt lat="45.8556" lon="4.77847">
        <ele>486</ele>
        <time>2014-11-16T10:59:16Z</time>
      </trkpt>
      <trkpt lat="45.85562" lon="4.77847">
        <ele>486</ele>
        <time>2014-11-16T10:59:19Z</time>
      </trkpt>
      <trkpt lat="45.85563" lon="4.77847">
        <ele>486</ele>
        <time>2014-11-16T10:59:21Z</time>
      </trkpt>
      <trkpt lat="45.85565" lon="4.77845">
        <ele>485</ele>
        <time>2014-11-16T10:59:24Z</time>
      </trkpt>
      <trkpt lat="45.85566" lon="4.77842">
        <ele>485</ele>
        <time>2014-11-16T10:59:26Z</time>
      </trkpt>
      <trkpt lat="45.85568" lon="4.7784">
        <ele>485</ele>
        <time>2014-11-16T10:59:28Z</time>
      </trkpt>
      <trkpt lat="45.8557" lon="4.77838">
        <ele>484</ele>
        <time>2014-11-16T10:59:29Z</time>
      </trkpt>
      <trkpt lat="45.85572" lon="4.77837">
        <ele>484</ele>
        <time>2014-11-16T10:59:31Z</time>
      </trkpt>
      <trkpt lat="45.85572" lon="4.77836">
        <ele>484</ele>
        <time>2014-11-16T10:59:32Z</time>
      </trkpt>
      <trkpt lat="45.85573" lon="4.77834">
        <ele>484</ele>
        <time>2014-11-16T10:59:37Z</time>
      </trkpt>
      <trkpt lat="45.85577" lon="4.77829">
        <ele>485</ele>
        <time>2014-11-16T10:59:42Z</time>
      </trkpt>
      <trkpt lat="45.85577" lon="4.77828">
        <ele>486</ele>
        <time>2014-11-16T10:59:43Z</time>
      </trkpt>
      <trkpt lat="45.85579" lon="4.77827">
        <ele>485</ele>
        <time>2014-11-16T10:59:49Z</time>
      </trkpt>
      <trkpt lat="45.85583" lon="4.77827">
        <ele>485</ele>
        <time>2014-11-16T11:00:21Z</time>
      </trkpt>
      <trkpt lat="45.85582" lon="4.77829">
        <ele>484</ele>
        <time>2014-11-16T11:00:32Z</time>
      </trkpt>
      <trkpt lat="45.85584" lon="4.77827">
        <ele>481</ele>
        <time>2014-11-16T11:00:59Z</time>
      </trkpt>
      <trkpt lat="45.85581" lon="4.77823">
        <ele>486</ele>
        <time>2014-11-16T11:01:09Z</time>
      </trkpt>
      <trkpt lat="45.85579" lon="4.77822">
        <ele>487</ele>
        <time>2014-11-16T11:01:12Z</time>
      </trkpt>
      <trkpt lat="45.85576" lon="4.77817">
        <ele>488</ele>
        <time>2014-11-16T11:01:17Z</time>
      </trkpt>
      <trkpt lat="45.85575" lon="4.77816">
        <ele>489</ele>
        <time>2014-11-16T11:01:19Z</time>
      </trkpt>
      <trkpt lat="45.85573" lon="4.77807">
        <ele>490</ele>
        <time>2014-11-16T11:01:25Z</time>
      </trkpt>
      <trkpt lat="45.85573" lon="4.77805">
        <ele>491</ele>
        <time>2014-11-16T11:01:26Z</time>
      </trkpt>
      <trkpt lat="45.85575" lon="4.77793">
        <ele>492</ele>
        <time>2014-11-16T11:01:31Z</time>
      </trkpt>
      <trkpt lat="45.85575" lon="4.7779">
        <ele>492</ele>
        <time>2014-11-16T11:01:32Z</time>
      </trkpt>
      <trkpt lat="45.85575" lon="4.77784">
        <ele>492</ele>
        <time>2014-11-16T11:01:35Z</time>
      </trkpt>
      <trkpt lat="45.85575" lon="4.77782">
        <ele>493</ele>
        <time>2014-11-16T11:01:36Z</time>
      </trkpt>
      <trkpt lat="45.85574" lon="4.7778">
        <ele>493</ele>
        <time>2014-11-16T11:01:37Z</time>
      </trkpt>
      <trkpt lat="45.85574" lon="4.77774">
        <ele>493</ele>
        <time>2014-11-16T11:01:41Z</time>
      </trkpt>
      <trkpt lat="45.85574" lon="4.77768">
        <ele>493</ele>
        <time>2014-11-16T11:01:45Z</time>
      </trkpt>
      <trkpt lat="45.85574" lon="4.77766">
        <ele>493</ele>
        <time>2014-11-16T11:01:46Z</time>
      </trkpt>
      <trkpt lat="45.85576" lon="4.77757">
        <ele>492</ele>
        <time>2014-11-16T11:01:53Z</time>
      </trkpt>
      <trkpt lat="45.85576" lon="4.77754">
        <ele>492</ele>
        <time>2014-11-16T11:01:55Z</time>
      </trkpt>
      <trkpt lat="45.85576" lon="4.77752">
        <ele>492</ele>
        <time>2014-11-16T11:01:57Z</time>
      </trkpt>
      <trkpt lat="45.85576" lon="4.77748">
        <ele>495</ele>
        <time>2014-11-16T11:01:59Z</time>
      </trkpt>
      <trkpt lat="45.85576" lon="4.77748">
        <ele>495</ele>
        <time>2014-11-16T11:02:00Z</time>
      </trkpt>
      <trkpt lat="45.85574" lon="4.77741">
        <ele>496</ele>
        <time>2014-11-16T11:02:03Z</time>
      </trkpt>
      <trkpt lat="45.85574" lon="4.77739">
        <ele>497</ele>
        <time>2014-11-16T11:02:05Z</time>
      </trkpt>
      <trkpt lat="45.85574" lon="4.77738">
        <ele>497</ele>
        <time>2014-11-16T11:02:06Z</time>
      </trkpt>
      <trkpt lat="45.85576" lon="4.77729">
        <ele>499</ele>
        <time>2014-11-16T11:02:11Z</time>
      </trkpt>
      <trkpt lat="45.85577" lon="4.77727">
        <ele>499</ele>
        <time>2014-11-16T11:02:12Z</time>
      </trkpt>
      <trkpt lat="45.85575" lon="4.77717">
        <ele>501</ele>
        <time>2014-11-16T11:02:17Z</time>
      </trkpt>
      <trkpt lat="45.85575" lon="4.77713">
        <ele>501</ele>
        <time>2014-11-16T11:02:20Z</time>
      </trkpt>
      <trkpt lat="45.85574" lon="4.77712">
        <ele>501</ele>
        <time>2014-11-16T11:02:21Z</time>
      </trkpt>
      <trkpt lat="45.85574" lon="4.77711">
        <ele>502</ele>
        <time>2014-11-16T11:02:22Z</time>
      </trkpt>
      <trkpt lat="45.85575" lon="4.77704">
        <ele>502</ele>
        <time>2014-11-16T11:02:28Z</time>
      </trkpt>
      <trkpt lat="45.85576" lon="4.77703">
        <ele>502</ele>
        <time>2014-11-16T11:02:29Z</time>
      </trkpt>
      <trkpt lat="45.85577" lon="4.77701">
        <ele>502</ele>
        <time>2014-11-16T11:02:31Z</time>
      </trkpt>
      <trkpt lat="45.85577" lon="4.77699">
        <ele>502</ele>
        <time>2014-11-16T11:02:32Z</time>
      </trkpt>
      <trkpt lat="45.85578" lon="4.77696">
        <ele>503</ele>
        <time>2014-11-16T11:02:34Z</time>
      </trkpt>
      <trkpt lat="45.85574" lon="4.7769">
        <ele>503</ele>
        <time>2014-11-16T11:02:37Z</time>
      </trkpt>
      <trkpt lat="45.85572" lon="4.77685">
        <ele>503</ele>
        <time>2014-11-16T11:02:40Z</time>
      </trkpt>
      <trkpt lat="45.85573" lon="4.77681">
        <ele>503</ele>
        <time>2014-11-16T11:02:42Z</time>
      </trkpt>
      <trkpt lat="45.85573" lon="4.77676">
        <ele>503</ele>
        <time>2014-11-16T11:02:44Z</time>
      </trkpt>
      <trkpt lat="45.85573" lon="4.77675">
        <ele>503</ele>
        <time>2014-11-16T11:02:45Z</time>
      </trkpt>
      <trkpt lat="45.85572" lon="4.77674">
        <ele>503</ele>
        <time>2014-11-16T11:02:46Z</time>
      </trkpt>
      <trkpt lat="45.85572" lon="4.77671">
        <ele>503</ele>
        <time>2014-11-16T11:02:48Z</time>
      </trkpt>
      <trkpt lat="45.85574" lon="4.77669">
        <ele>503</ele>
        <time>2014-11-16T11:02:51Z</time>
      </trkpt>
      <trkpt lat="45.85574" lon="4.77667">
        <ele>503</ele>
        <time>2014-11-16T11:02:52Z</time>
      </trkpt>
      <trkpt lat="45.85574" lon="4.77664">
        <ele>506</ele>
        <time>2014-11-16T11:02:54Z</time>
      </trkpt>
      <trkpt lat="45.85572" lon="4.77657">
        <ele>507</ele>
        <time>2014-11-16T11:02:59Z</time>
      </trkpt>
      <trkpt lat="45.85571" lon="4.77651">
        <ele>508</ele>
        <time>2014-11-16T11:03:02Z</time>
      </trkpt>
      <trkpt lat="45.85571" lon="4.77648">
        <ele>509</ele>
        <time>2014-11-16T11:03:04Z</time>
      </trkpt>
      <trkpt lat="45.85571" lon="4.77642">
        <ele>510</ele>
        <time>2014-11-16T11:03:08Z</time>
      </trkpt>
      <trkpt lat="45.85571" lon="4.77636">
        <ele>510</ele>
        <time>2014-11-16T11:03:11Z</time>
      </trkpt>
      <trkpt lat="45.85572" lon="4.77624">
        <ele>511</ele>
        <time>2014-11-16T11:03:18Z</time>
      </trkpt>
      <trkpt lat="45.85572" lon="4.77619">
        <ele>511</ele>
        <time>2014-11-16T11:03:21Z</time>
      </trkpt>
      <trkpt lat="45.85572" lon="4.77617">
        <ele>511</ele>
        <time>2014-11-16T11:03:23Z</time>
      </trkpt>
      <trkpt lat="45.85571" lon="4.77612">
        <ele>512</ele>
        <time>2014-11-16T11:03:27Z</time>
      </trkpt>
      <trkpt lat="45.85571" lon="4.77611">
        <ele>512</ele>
        <time>2014-11-16T11:03:28Z</time>
      </trkpt>
      <trkpt lat="45.85572" lon="4.77599">
        <ele>511</ele>
        <time>2014-11-16T11:03:34Z</time>
      </trkpt>
      <trkpt lat="45.85573" lon="4.77597">
        <ele>511</ele>
        <time>2014-11-16T11:03:35Z</time>
      </trkpt>
      <trkpt lat="45.85573" lon="4.77593">
        <ele>511</ele>
        <time>2014-11-16T11:03:37Z</time>
      </trkpt>
      <trkpt lat="45.85572" lon="4.77585">
        <ele>511</ele>
        <time>2014-11-16T11:03:41Z</time>
      </trkpt>
      <trkpt lat="45.85572" lon="4.77583">
        <ele>511</ele>
        <time>2014-11-16T11:03:42Z</time>
      </trkpt>
      <trkpt lat="45.85571" lon="4.77578">
        <ele>512</ele>
        <time>2014-11-16T11:03:45Z</time>
      </trkpt>
      <trkpt lat="45.85572" lon="4.77576">
        <ele>513</ele>
        <time>2014-11-16T11:03:46Z</time>
      </trkpt>
      <trkpt lat="45.85571" lon="4.7757">
        <ele>513</ele>
        <time>2014-11-16T11:03:48Z</time>
      </trkpt>
      <trkpt lat="45.85571" lon="4.77559">
        <ele>514</ele>
        <time>2014-11-16T11:03:51Z</time>
      </trkpt>
      <trkpt lat="45.85573" lon="4.77554">
        <ele>514</ele>
        <time>2014-11-16T11:03:54Z</time>
      </trkpt>
      <trkpt lat="45.85575" lon="4.7755">
        <ele>514</ele>
        <time>2014-11-16T11:03:56Z</time>
      </trkpt>
      <trkpt lat="45.85575" lon="4.77547">
        <ele>515</ele>
        <time>2014-11-16T11:03:58Z</time>
      </trkpt>
      <trkpt lat="45.85577" lon="4.77543">
        <ele>515</ele>
        <time>2014-11-16T11:04:01Z</time>
      </trkpt>
      <trkpt lat="45.85576" lon="4.77541">
        <ele>515</ele>
        <time>2014-11-16T11:04:02Z</time>
      </trkpt>
      <trkpt lat="45.85577" lon="4.7754">
        <ele>515</ele>
        <time>2014-11-16T11:04:03Z</time>
      </trkpt>
      <trkpt lat="45.85578" lon="4.77537">
        <ele>514</ele>
        <time>2014-11-16T11:04:05Z</time>
      </trkpt>
      <trkpt lat="45.85578" lon="4.77534">
        <ele>514</ele>
        <time>2014-11-16T11:04:07Z</time>
      </trkpt>
      <trkpt lat="45.85578" lon="4.77519">
        <ele>514</ele>
        <time>2014-11-16T11:04:24Z</time>
      </trkpt>
      <trkpt lat="45.85578" lon="4.77517">
        <ele>513</ele>
        <time>2014-11-16T11:04:25Z</time>
      </trkpt>
      <trkpt lat="45.85578" lon="4.77509">
        <ele>512</ele>
        <time>2014-11-16T11:04:28Z</time>
      </trkpt>
      <trkpt lat="45.8558" lon="4.77503">
        <ele>511</ele>
        <time>2014-11-16T11:04:30Z</time>
      </trkpt>
      <trkpt lat="45.85584" lon="4.77496">
        <ele>508</ele>
        <time>2014-11-16T11:04:34Z</time>
      </trkpt>
      <trkpt lat="45.85584" lon="4.77494">
        <ele>507</ele>
        <time>2014-11-16T11:04:35Z</time>
      </trkpt>
      <trkpt lat="45.85584" lon="4.7749">
        <ele>505</ele>
        <time>2014-11-16T11:04:38Z</time>
      </trkpt>
      <trkpt lat="45.85583" lon="4.77486">
        <ele>504</ele>
        <time>2014-11-16T11:04:40Z</time>
      </trkpt>
      <trkpt lat="45.85584" lon="4.77479">
        <ele>503</ele>
        <time>2014-11-16T11:04:42Z</time>
      </trkpt>
      <trkpt lat="45.85586" lon="4.77476">
        <ele>502</ele>
        <time>2014-11-16T11:04:43Z</time>
      </trkpt>
      <trkpt lat="45.85588" lon="4.77468">
        <ele>500</ele>
        <time>2014-11-16T11:04:47Z</time>
      </trkpt>
      <trkpt lat="45.85588" lon="4.77463">
        <ele>500</ele>
        <time>2014-11-16T11:05:00Z</time>
      </trkpt>
      <trkpt lat="45.85589" lon="4.77463">
        <ele>500</ele>
        <time>2014-11-16T11:05:02Z</time>
      </trkpt>
      <trkpt lat="45.85586" lon="4.77458">
        <ele>499</ele>
        <time>2014-11-16T11:05:08Z</time>
      </trkpt>
      <trkpt lat="45.85588" lon="4.77456">
        <ele>499</ele>
        <time>2014-11-16T11:05:10Z</time>
      </trkpt>
      <trkpt lat="45.85593" lon="4.77446">
        <ele>498</ele>
        <time>2014-11-16T11:05:15Z</time>
      </trkpt>
      <trkpt lat="45.85596" lon="4.77438">
        <ele>497</ele>
        <time>2014-11-16T11:05:18Z</time>
      </trkpt>
      <trkpt lat="45.85599" lon="4.77433">
        <ele>497</ele>
        <time>2014-11-16T11:05:20Z</time>
      </trkpt>
      <trkpt lat="45.85603" lon="4.77421">
        <ele>497</ele>
        <time>2014-11-16T11:05:24Z</time>
      </trkpt>
      <trkpt lat="45.85604" lon="4.7742">
        <ele>497</ele>
        <time>2014-11-16T11:05:25Z</time>
      </trkpt>
      <trkpt lat="45.85607" lon="4.77419">
        <ele>496</ele>
        <time>2014-11-16T11:05:28Z</time>
      </trkpt>
      <trkpt lat="45.85611" lon="4.77419">
        <ele>496</ele>
        <time>2014-11-16T11:05:30Z</time>
      </trkpt>
      <trkpt lat="45.85616" lon="4.77418">
        <ele>496</ele>
        <time>2014-11-16T11:05:32Z</time>
      </trkpt>
      <trkpt lat="45.85625" lon="4.7742">
        <ele>495</ele>
        <time>2014-11-16T11:05:36Z</time>
      </trkpt>
      <trkpt lat="45.85629" lon="4.77423">
        <ele>495</ele>
        <time>2014-11-16T11:05:39Z</time>
      </trkpt>
      <trkpt lat="45.85632" lon="4.77419">
        <ele>495</ele>
        <time>2014-11-16T11:05:41Z</time>
      </trkpt>
      <trkpt lat="45.85641" lon="4.77413">
        <ele>487</ele>
        <time>2014-11-16T11:05:44Z</time>
      </trkpt>
      <trkpt lat="45.85647" lon="4.77409">
        <ele>487</ele>
        <time>2014-11-16T11:05:46Z</time>
      </trkpt>
      <trkpt lat="45.85654" lon="4.77399">
        <ele>486</ele>
        <time>2014-11-16T11:05:50Z</time>
      </trkpt>
      <trkpt lat="45.85655" lon="4.77397">
        <ele>486</ele>
        <time>2014-11-16T11:05:51Z</time>
      </trkpt>
      <trkpt lat="45.85655" lon="4.77395">
        <ele>486</ele>
        <time>2014-11-16T11:05:52Z</time>
      </trkpt>
      <trkpt lat="45.85654" lon="4.77392">
        <ele>485</ele>
        <time>2014-11-16T11:05:54Z</time>
      </trkpt>
      <trkpt lat="45.85653" lon="4.77391">
        <ele>485</ele>
        <time>2014-11-16T11:05:55Z</time>
      </trkpt>
      <trkpt lat="45.85651" lon="4.7739">
        <ele>485</ele>
        <time>2014-11-16T11:05:57Z</time>
      </trkpt>
      <trkpt lat="45.85649" lon="4.77388">
        <ele>485</ele>
        <time>2014-11-16T11:06:01Z</time>
      </trkpt>
      <trkpt lat="45.85648" lon="4.77387">
        <ele>485</ele>
        <time>2014-11-16T11:06:03Z</time>
      </trkpt>
      <trkpt lat="45.85649" lon="4.77381">
        <ele>484</ele>
        <time>2014-11-16T11:06:09Z</time>
      </trkpt>
      <trkpt lat="45.85648" lon="4.77379">
        <ele>484</ele>
        <time>2014-11-16T11:06:10Z</time>
      </trkpt>
      <trkpt lat="45.85647" lon="4.77374">
        <ele>484</ele>
        <time>2014-11-16T11:06:12Z</time>
      </trkpt>
      <trkpt lat="45.85645" lon="4.77363">
        <ele>482</ele>
        <time>2014-11-16T11:06:15Z</time>
      </trkpt>
      <trkpt lat="45.85644" lon="4.77355">
        <ele>482</ele>
        <time>2014-11-16T11:06:17Z</time>
      </trkpt>
      <trkpt lat="45.85643" lon="4.77346">
        <ele>481</ele>
        <time>2014-11-16T11:06:19Z</time>
      </trkpt>
      <trkpt lat="45.85642" lon="4.77342">
        <ele>480</ele>
        <time>2014-11-16T11:06:20Z</time>
      </trkpt>
      <trkpt lat="45.85642" lon="4.77322">
        <ele>471</ele>
        <time>2014-11-16T11:06:24Z</time>
      </trkpt>
      <trkpt lat="45.85642" lon="4.77317">
        <ele>470</ele>
        <time>2014-11-16T11:06:25Z</time>
      </trkpt>
      <trkpt lat="45.85642" lon="4.77296">
        <ele>468</ele>
        <time>2014-11-16T11:06:29Z</time>
      </trkpt>
      <trkpt lat="45.85642" lon="4.77291">
        <ele>468</ele>
        <time>2014-11-16T11:06:30Z</time>
      </trkpt>
      <trkpt lat="45.85643" lon="4.77279">
        <ele>466</ele>
        <time>2014-11-16T11:06:33Z</time>
      </trkpt>
      <trkpt lat="45.85643" lon="4.77274">
        <ele>466</ele>
        <time>2014-11-16T11:06:37Z</time>
      </trkpt>
      <trkpt lat="45.85646" lon="4.77273">
        <ele>466</ele>
        <time>2014-11-16T11:06:43Z</time>
      </trkpt>
      <trkpt lat="45.85647" lon="4.7727">
        <ele>465</ele>
        <time>2014-11-16T11:06:48Z</time>
      </trkpt>
      <trkpt lat="45.85648" lon="4.77268">
        <ele>465</ele>
        <time>2014-11-16T11:06:51Z</time>
      </trkpt>
      <trkpt lat="45.85649" lon="4.77266">
        <ele>465</ele>
        <time>2014-11-16T11:06:53Z</time>
      </trkpt>
      <trkpt lat="45.85648" lon="4.77264">
        <ele>465</ele>
        <time>2014-11-16T11:06:54Z</time>
      </trkpt>
      <trkpt lat="45.85643" lon="4.77259">
        <ele>465</ele>
        <time>2014-11-16T11:07:00Z</time>
      </trkpt>
      <trkpt lat="45.85642" lon="4.77258">
        <ele>465</ele>
        <time>2014-11-16T11:07:01Z</time>
      </trkpt>
      <trkpt lat="45.85639" lon="4.77252">
        <ele>464</ele>
        <time>2014-11-16T11:07:06Z</time>
      </trkpt>
      <trkpt lat="45.85638" lon="4.7725">
        <ele>453</ele>
        <time>2014-11-16T11:07:10Z</time>
      </trkpt>
      <trkpt lat="45.85637" lon="4.7725">
        <ele>453</ele>
        <time>2014-11-16T11:07:12Z</time>
      </trkpt>
      <trkpt lat="45.85638" lon="4.77248">
        <ele>453</ele>
        <time>2014-11-16T11:07:19Z</time>
      </trkpt>
      <trkpt lat="45.85641" lon="4.77244">
        <ele>453</ele>
        <time>2014-11-16T11:07:24Z</time>
      </trkpt>
      <trkpt lat="45.85643" lon="4.77238">
        <ele>453</ele>
        <time>2014-11-16T11:07:28Z</time>
      </trkpt>
      <trkpt lat="45.85644" lon="4.77235">
        <ele>453</ele>
        <time>2014-11-16T11:07:30Z</time>
      </trkpt>
      <trkpt lat="45.85644" lon="4.77234">
        <ele>452</ele>
        <time>2014-11-16T11:07:31Z</time>
      </trkpt>
      <trkpt lat="45.85643" lon="4.7723">
        <ele>452</ele>
        <time>2014-11-16T11:07:34Z</time>
      </trkpt>
      <trkpt lat="45.85642" lon="4.77229">
        <ele>452</ele>
        <time>2014-11-16T11:07:35Z</time>
      </trkpt>
      <trkpt lat="45.85647" lon="4.77226">
        <ele>451</ele>
        <time>2014-11-16T11:07:59Z</time>
      </trkpt>
      <trkpt lat="45.8565" lon="4.77225">
        <ele>451</ele>
        <time>2014-11-16T11:08:03Z</time>
      </trkpt>
      <trkpt lat="45.85652" lon="4.77218">
        <ele>450</ele>
        <time>2014-11-16T11:08:07Z</time>
      </trkpt>
      <trkpt lat="45.85652" lon="4.77215">
        <ele>450</ele>
        <time>2014-11-16T11:08:10Z</time>
      </trkpt>
      <trkpt lat="45.85648" lon="4.77208">
        <ele>448</ele>
        <time>2014-11-16T11:08:14Z</time>
      </trkpt>
      <trkpt lat="45.85645" lon="4.77197">
        <ele>447</ele>
        <time>2014-11-16T11:08:19Z</time>
      </trkpt>
      <trkpt lat="45.85644" lon="4.77197">
        <ele>447</ele>
        <time>2014-11-16T11:08:20Z</time>
      </trkpt>
      <trkpt lat="45.85643" lon="4.77196">
        <ele>447</ele>
        <time>2014-11-16T11:08:43Z</time>
      </trkpt>
      <trkpt lat="45.85642" lon="4.77194">
        <ele>446</ele>
        <time>2014-11-16T11:08:58Z</time>
      </trkpt>
      <trkpt lat="45.85641" lon="4.77188">
        <ele>446</ele>
        <time>2014-11-16T11:09:22Z</time>
      </trkpt>
      <trkpt lat="45.85642" lon="4.77184">
        <ele>445</ele>
        <time>2014-11-16T11:09:25Z</time>
      </trkpt>
      <trkpt lat="45.85641" lon="4.77181">
        <ele>445</ele>
        <time>2014-11-16T11:09:28Z</time>
      </trkpt>
      <trkpt lat="45.8564" lon="4.77178">
        <ele>445</ele>
        <time>2014-11-16T11:09:30Z</time>
      </trkpt>
      <trkpt lat="45.85641" lon="4.77176">
        <ele>444</ele>
        <time>2014-11-16T11:09:32Z</time>
      </trkpt>
      <trkpt lat="45.85641" lon="4.77174">
        <ele>444</ele>
        <time>2014-11-16T11:09:33Z</time>
      </trkpt>
      <trkpt lat="45.85642" lon="4.7717">
        <ele>444</ele>
        <time>2014-11-16T11:09:36Z</time>
      </trkpt>
      <trkpt lat="45.85644" lon="4.77168">
        <ele>444</ele>
        <time>2014-11-16T11:09:39Z</time>
      </trkpt>
      <trkpt lat="45.85646" lon="4.77166">
        <ele>432</ele>
        <time>2014-11-16T11:09:42Z</time>
      </trkpt>
      <trkpt lat="45.85643" lon="4.77159">
        <ele>431</ele>
        <time>2014-11-16T11:09:47Z</time>
      </trkpt>
      <trkpt lat="45.85642" lon="4.77154">
        <ele>430</ele>
        <time>2014-11-16T11:09:51Z</time>
      </trkpt>
      <trkpt lat="45.85643" lon="4.77149">
        <ele>429</ele>
        <time>2014-11-16T11:09:54Z</time>
      </trkpt>
      <trkpt lat="45.85643" lon="4.77145">
        <ele>429</ele>
        <time>2014-11-16T11:09:58Z</time>
      </trkpt>
      <trkpt lat="45.85644" lon="4.77143">
        <ele>428</ele>
        <time>2014-11-16T11:10:00Z</time>
      </trkpt>
      <trkpt lat="45.85644" lon="4.7714">
        <ele>428</ele>
        <time>2014-11-16T11:10:04Z</time>
      </trkpt>
      <trkpt lat="45.85642" lon="4.77133">
        <ele>427</ele>
        <time>2014-11-16T11:10:09Z</time>
      </trkpt>
      <trkpt lat="45.85642" lon="4.77131">
        <ele>426</ele>
        <time>2014-11-16T11:10:10Z</time>
      </trkpt>
      <trkpt lat="45.85641" lon="4.77127">
        <ele>426</ele>
        <time>2014-11-16T11:10:14Z</time>
      </trkpt>
      <trkpt lat="45.8564" lon="4.77126">
        <ele>425</ele>
        <time>2014-11-16T11:10:16Z</time>
      </trkpt>
      <trkpt lat="45.8564" lon="4.77125">
        <ele>425</ele>
        <time>2014-11-16T11:10:17Z</time>
      </trkpt>
      <trkpt lat="45.85638" lon="4.77123">
        <ele>425</ele>
        <time>2014-11-16T11:10:20Z</time>
      </trkpt>
      <trkpt lat="45.85633" lon="4.77125">
        <ele>425</ele>
        <time>2014-11-16T11:10:27Z</time>
      </trkpt>
      <trkpt lat="45.85632" lon="4.77128">
        <ele>425</ele>
        <time>2014-11-16T11:10:29Z</time>
      </trkpt>
      <trkpt lat="45.85628" lon="4.77129">
        <ele>426</ele>
        <time>2014-11-16T11:10:33Z</time>
      </trkpt>
      <trkpt lat="45.85624" lon="4.77132">
        <ele>426</ele>
        <time>2014-11-16T11:10:37Z</time>
      </trkpt>
      <trkpt lat="45.85623" lon="4.77133">
        <ele>426</ele>
        <time>2014-11-16T11:10:38Z</time>
      </trkpt>
      <trkpt lat="45.85619" lon="4.77136">
        <ele>426</ele>
        <time>2014-11-16T11:10:42Z</time>
      </trkpt>
      <trkpt lat="45.85618" lon="4.77137">
        <ele>426</ele>
        <time>2014-11-16T11:10:44Z</time>
      </trkpt>
      <trkpt lat="45.85617" lon="4.77138">
        <ele>426</ele>
        <time>2014-11-16T11:10:45Z</time>
      </trkpt>
      <trkpt lat="45.85611" lon="4.77135">
        <ele>426</ele>
        <time>2014-11-16T11:10:52Z</time>
      </trkpt>
      <trkpt lat="45.8561" lon="4.77134">
        <ele>426</ele>
        <time>2014-11-16T11:11:18Z</time>
      </trkpt>
      <trkpt lat="45.8561" lon="4.77137">
        <ele>426</ele>
        <time>2014-11-16T11:11:23Z</time>
      </trkpt>
      <trkpt lat="45.85611" lon="4.77137">
        <ele>426</ele>
        <time>2014-11-16T11:11:28Z</time>
      </trkpt>
      <trkpt lat="45.85612" lon="4.77137">
        <ele>426</ele>
        <time>2014-11-16T11:11:29Z</time>
      </trkpt>
      <trkpt lat="45.85615" lon="4.77137">
        <ele>426</ele>
        <time>2014-11-16T11:11:31Z</time>
      </trkpt>
      <trkpt lat="45.85617" lon="4.77137">
        <ele>426</ele>
        <time>2014-11-16T11:11:33Z</time>
      </trkpt>
      <trkpt lat="45.85621" lon="4.77138">
        <ele>426</ele>
        <time>2014-11-16T11:11:36Z</time>
      </trkpt>
      <trkpt lat="45.85626" lon="4.77142">
        <ele>427</ele>
        <time>2014-11-16T11:11:41Z</time>
      </trkpt>
      <trkpt lat="45.85628" lon="4.77143">
        <ele>427</ele>
        <time>2014-11-16T11:11:43Z</time>
      </trkpt>
      <trkpt lat="45.85628" lon="4.77147">
        <ele>428</ele>
        <time>2014-11-16T11:11:46Z</time>
      </trkpt>
      <trkpt lat="45.85627" lon="4.77149">
        <ele>428</ele>
        <time>2014-11-16T11:11:48Z</time>
      </trkpt>
      <trkpt lat="45.85626" lon="4.7715">
        <ele>428</ele>
        <time>2014-11-16T11:11:49Z</time>
      </trkpt>
      <trkpt lat="45.85626" lon="4.77155">
        <ele>429</ele>
        <time>2014-11-16T11:11:53Z</time>
      </trkpt>
      <trkpt lat="45.85626" lon="4.77156">
        <ele>429</ele>
        <time>2014-11-16T11:11:54Z</time>
      </trkpt>
      <trkpt lat="45.85627" lon="4.77161">
        <ele>429</ele>
        <time>2014-11-16T11:12:00Z</time>
      </trkpt>
      <trkpt lat="45.85627" lon="4.77163">
        <ele>429</ele>
        <time>2014-11-16T11:12:09Z</time>
      </trkpt>
      <trkpt lat="45.85626" lon="4.77166">
        <ele>429</ele>
        <time>2014-11-16T11:12:12Z</time>
      </trkpt>
      <trkpt lat="45.85626" lon="4.77167">
        <ele>444</ele>
        <time>2014-11-16T11:12:13Z</time>
      </trkpt>
      <trkpt lat="45.85623" lon="4.77171">
        <ele>444</ele>
        <time>2014-11-16T11:12:17Z</time>
      </trkpt>
      <trkpt lat="45.85622" lon="4.77171">
        <ele>444</ele>
        <time>2014-11-16T11:12:19Z</time>
      </trkpt>
      <trkpt lat="45.8562" lon="4.77169">
        <ele>444</ele>
        <time>2014-11-16T11:12:35Z</time>
      </trkpt>
      <trkpt lat="45.85618" lon="4.77171">
        <ele>444</ele>
        <time>2014-11-16T11:12:38Z</time>
      </trkpt>
      <trkpt lat="45.85617" lon="4.77171">
        <ele>444</ele>
        <time>2014-11-16T11:12:39Z</time>
      </trkpt>
      <trkpt lat="45.85615" lon="4.7717">
        <ele>443</ele>
        <time>2014-11-16T11:12:44Z</time>
      </trkpt>
      <trkpt lat="45.85611" lon="4.77165">
        <ele>429</ele>
        <time>2014-11-16T11:12:51Z</time>
      </trkpt>
      <trkpt lat="45.85609" lon="4.77165">
        <ele>429</ele>
        <time>2014-11-16T11:12:56Z</time>
      </trkpt>
      <trkpt lat="45.85607" lon="4.77168">
        <ele>442</ele>
        <time>2014-11-16T11:12:58Z</time>
      </trkpt>
      <trkpt lat="45.85606" lon="4.77168">
        <ele>442</ele>
        <time>2014-11-16T11:13:00Z</time>
      </trkpt>
      <trkpt lat="45.85605" lon="4.77167">
        <ele>442</ele>
        <time>2014-11-16T11:13:01Z</time>
      </trkpt>
      <trkpt lat="45.85602" lon="4.77168">
        <ele>441</ele>
        <time>2014-11-16T11:13:05Z</time>
      </trkpt>
      <trkpt lat="45.85598" lon="4.77167">
        <ele>430</ele>
        <time>2014-11-16T11:13:09Z</time>
      </trkpt>
      <trkpt lat="45.85598" lon="4.77167">
        <ele>440</ele>
        <time>2014-11-16T11:13:11Z</time>
      </trkpt>
      <trkpt lat="45.85596" lon="4.77167">
        <ele>439</ele>
        <time>2014-11-16T11:13:15Z</time>
      </trkpt>
      <trkpt lat="45.85595" lon="4.77168">
        <ele>439</ele>
        <time>2014-11-16T11:13:18Z</time>
      </trkpt>
      <trkpt lat="45.85593" lon="4.77166">
        <ele>431</ele>
        <time>2014-11-16T11:13:25Z</time>
      </trkpt>
      <trkpt lat="45.85591" lon="4.77164">
        <ele>432</ele>
        <time>2014-11-16T11:13:28Z</time>
      </trkpt>
      <trkpt lat="45.85585" lon="4.77163">
        <ele>432</ele>
        <time>2014-11-16T11:13:35Z</time>
      </trkpt>
      <trkpt lat="45.85587" lon="4.77159">
        <ele>431</ele>
        <time>2014-11-16T11:13:40Z</time>
      </trkpt>
      <trkpt lat="45.85588" lon="4.77152">
        <ele>429</ele>
        <time>2014-11-16T11:13:44Z</time>
      </trkpt>
      <trkpt lat="45.85588" lon="4.77151">
        <ele>429</ele>
        <time>2014-11-16T11:13:45Z</time>
      </trkpt>
      <trkpt lat="45.8559" lon="4.77148">
        <ele>429</ele>
        <time>2014-11-16T11:13:49Z</time>
      </trkpt>
      <trkpt lat="45.85591" lon="4.77148">
        <ele>428</ele>
        <time>2014-11-16T11:13:50Z</time>
      </trkpt>
      <trkpt lat="45.85593" lon="4.77148">
        <ele>428</ele>
        <time>2014-11-16T11:13:52Z</time>
      </trkpt>
      <trkpt lat="45.85594" lon="4.77148">
        <ele>428</ele>
        <time>2014-11-16T11:13:53Z</time>
      </trkpt>
      <trkpt lat="45.85597" lon="4.77148">
        <ele>428</ele>
        <time>2014-11-16T11:13:56Z</time>
      </trkpt>
      <trkpt lat="45.85598" lon="4.77148">
        <ele>428</ele>
        <time>2014-11-16T11:13:57Z</time>
      </trkpt>
      <trkpt lat="45.85602" lon="4.77147">
        <ele>428</ele>
        <time>2014-11-16T11:14:01Z</time>
      </trkpt>
      <trkpt lat="45.85607" lon="4.77149">
        <ele>428</ele>
        <time>2014-11-16T11:14:08Z</time>
      </trkpt>
      <trkpt lat="45.85608" lon="4.7715">
        <ele>428</ele>
        <time>2014-11-16T11:14:09Z</time>
      </trkpt>
      <trkpt lat="45.8561" lon="4.77153">
        <ele>428</ele>
        <time>2014-11-16T11:14:13Z</time>
      </trkpt>
      <trkpt lat="45.85611" lon="4.77154">
        <ele>428</ele>
        <time>2014-11-16T11:14:15Z</time>
      </trkpt>
      <trkpt lat="45.85616" lon="4.77152">
        <ele>428</ele>
        <time>2014-11-16T11:14:19Z</time>
      </trkpt>
      <trkpt lat="45.85621" lon="4.77151">
        <ele>428</ele>
        <time>2014-11-16T11:14:24Z</time>
      </trkpt>
      <trkpt lat="45.85623" lon="4.77151">
        <ele>428</ele>
        <time>2014-11-16T11:14:25Z</time>
      </trkpt>
      <trkpt lat="45.85626" lon="4.7715">
        <ele>428</ele>
        <time>2014-11-16T11:14:26Z</time>
      </trkpt>
      <trkpt lat="45.85632" lon="4.77147">
        <ele>428</ele>
        <time>2014-11-16T11:14:30Z</time>
      </trkpt>
      <trkpt lat="45.85636" lon="4.77146">
        <ele>428</ele>
        <time>2014-11-16T11:14:33Z</time>
      </trkpt>
      <trkpt lat="45.8564" lon="4.77144">
        <ele>428</ele>
        <time>2014-11-16T11:14:36Z</time>
      </trkpt>
      <trkpt lat="45.85645" lon="4.77141">
        <ele>428</ele>
        <time>2014-11-16T11:14:40Z</time>
      </trkpt>
      <trkpt lat="45.85646" lon="4.7714">
        <ele>428</ele>
        <time>2014-11-16T11:14:41Z</time>
      </trkpt>
      <trkpt lat="45.8565" lon="4.77139">
        <ele>428</ele>
        <time>2014-11-16T11:14:44Z</time>
      </trkpt>
      <trkpt lat="45.85652" lon="4.77138">
        <ele>428</ele>
        <time>2014-11-16T11:14:46Z</time>
      </trkpt>
      <trkpt lat="45.85657" lon="4.77138">
        <ele>428</ele>
        <time>2014-11-16T11:14:51Z</time>
      </trkpt>
      <trkpt lat="45.85663" lon="4.77142">
        <ele>430</ele>
        <time>2014-11-16T11:14:57Z</time>
      </trkpt>
      <trkpt lat="45.85663" lon="4.77143">
        <ele>430</ele>
        <time>2014-11-16T11:14:58Z</time>
      </trkpt>
      <trkpt lat="45.85667" lon="4.77144">
        <ele>431</ele>
        <time>2014-11-16T11:15:04Z</time>
      </trkpt>
      <trkpt lat="45.85665" lon="4.77151">
        <ele>432</ele>
        <time>2014-11-16T11:15:52Z</time>
      </trkpt>
      <trkpt lat="45.85663" lon="4.77151">
        <ele>432</ele>
        <time>2014-11-16T11:15:53Z</time>
      </trkpt>
      <trkpt lat="45.85659" lon="4.77151">
        <ele>432</ele>
        <time>2014-11-16T11:15:56Z</time>
      </trkpt>
      <trkpt lat="45.85657" lon="4.7715">
        <ele>431</ele>
        <time>2014-11-16T11:15:58Z</time>
      </trkpt>
      <trkpt lat="45.85649" lon="4.77153">
        <ele>431</ele>
        <time>2014-11-16T11:16:03Z</time>
      </trkpt>
      <trkpt lat="45.85648" lon="4.77155">
        <ele>431</ele>
        <time>2014-11-16T11:16:05Z</time>
      </trkpt>
      <trkpt lat="45.85642" lon="4.77158">
        <ele>430</ele>
        <time>2014-11-16T11:16:09Z</time>
      </trkpt>
      <trkpt lat="45.85641" lon="4.7716">
        <ele>430</ele>
        <time>2014-11-16T11:16:10Z</time>
      </trkpt>
      <trkpt lat="45.85636" lon="4.77165">
        <ele>430</ele>
        <time>2014-11-16T11:16:13Z</time>
      </trkpt>
      <trkpt lat="45.85634" lon="4.77167">
        <ele>430</ele>
        <time>2014-11-16T11:16:14Z</time>
      </trkpt>
      <trkpt lat="45.85633" lon="4.77168">
        <ele>444</ele>
        <time>2014-11-16T11:16:15Z</time>
      </trkpt>
      <trkpt lat="45.85627" lon="4.77171">
        <ele>444</ele>
        <time>2014-11-16T11:16:18Z</time>
      </trkpt>
      <trkpt lat="45.85626" lon="4.77172">
        <ele>444</ele>
        <time>2014-11-16T11:16:19Z</time>
      </trkpt>
      <trkpt lat="45.85623" lon="4.77172">
        <ele>444</ele>
        <time>2014-11-16T11:16:23Z</time>
      </trkpt>
      <trkpt lat="45.85619" lon="4.77174">
        <ele>444</ele>
        <time>2014-11-16T11:16:27Z</time>
      </trkpt>
      <trkpt lat="45.85618" lon="4.77173">
        <ele>444</ele>
        <time>2014-11-16T11:16:28Z</time>
      </trkpt>
      <trkpt lat="45.85615" lon="4.77169">
        <ele>443</ele>
        <time>2014-11-16T11:16:31Z</time>
      </trkpt>
      <trkpt lat="45.85612" lon="4.77169">
        <ele>443</ele>
        <time>2014-11-16T11:16:33Z</time>
      </trkpt>
      <trkpt lat="45.85611" lon="4.77168">
        <ele>443</ele>
        <time>2014-11-16T11:16:34Z</time>
      </trkpt>
      <trkpt lat="45.85604" lon="4.77168">
        <ele>442</ele>
        <time>2014-11-16T11:16:38Z</time>
      </trkpt>
      <trkpt lat="45.85603" lon="4.77168">
        <ele>441</ele>
        <time>2014-11-16T11:16:39Z</time>
      </trkpt>
      <trkpt lat="45.856" lon="4.77169">
        <ele>441</ele>
        <time>2014-11-16T11:16:43Z</time>
      </trkpt>
      <trkpt lat="45.85599" lon="4.77169">
        <ele>440</ele>
        <time>2014-11-16T11:16:44Z</time>
      </trkpt>
      <trkpt lat="45.85597" lon="4.77168">
        <ele>440</ele>
        <time>2014-11-16T11:16:46Z</time>
      </trkpt>
      <trkpt lat="45.85591" lon="4.77169">
        <ele>438</ele>
        <time>2014-11-16T11:16:51Z</time>
      </trkpt>
      <trkpt lat="45.85587" lon="4.7717">
        <ele>437</ele>
        <time>2014-11-16T11:16:54Z</time>
      </trkpt>
      <trkpt lat="45.85583" lon="4.77169">
        <ele>435</ele>
        <time>2014-11-16T11:16:57Z</time>
      </trkpt>
      <trkpt lat="45.85581" lon="4.77168">
        <ele>435</ele>
        <time>2014-11-16T11:16:59Z</time>
      </trkpt>
      <trkpt lat="45.85579" lon="4.77168">
        <ele>436</ele>
        <time>2014-11-16T11:17:02Z</time>
      </trkpt>
      <trkpt lat="45.85577" lon="4.77167">
        <ele>437</ele>
        <time>2014-11-16T11:17:04Z</time>
      </trkpt>
      <trkpt lat="45.85571" lon="4.77168">
        <ele>439</ele>
        <time>2014-11-16T11:17:10Z</time>
      </trkpt>
      <trkpt lat="45.85567" lon="4.7717">
        <ele>440</ele>
        <time>2014-11-16T11:17:13Z</time>
      </trkpt>
      <trkpt lat="45.85564" lon="4.77171">
        <ele>441</ele>
        <time>2014-11-16T11:17:15Z</time>
      </trkpt>
      <trkpt lat="45.85562" lon="4.77173">
        <ele>441</ele>
        <time>2014-11-16T11:17:18Z</time>
      </trkpt>
      <trkpt lat="45.8556" lon="4.77174">
        <ele>442</ele>
        <time>2014-11-16T11:17:20Z</time>
      </trkpt>
      <trkpt lat="45.85559" lon="4.77174">
        <ele>442</ele>
        <time>2014-11-16T11:17:21Z</time>
      </trkpt>
      <trkpt lat="45.85553" lon="4.77178">
        <ele>443</ele>
        <time>2014-11-16T11:17:25Z</time>
      </trkpt>
      <trkpt lat="45.85547" lon="4.77184">
        <ele>444</ele>
        <time>2014-11-16T11:17:30Z</time>
      </trkpt>
      <trkpt lat="45.85544" lon="4.77185">
        <ele>444</ele>
        <time>2014-11-16T11:17:34Z</time>
      </trkpt>
      <trkpt lat="45.85543" lon="4.77185">
        <ele>444</ele>
        <time>2014-11-16T11:17:35Z</time>
      </trkpt>
      <trkpt lat="45.85535" lon="4.77178">
        <ele>444</ele>
        <time>2014-11-16T11:17:44Z</time>
      </trkpt>
      <trkpt lat="45.85531" lon="4.7718">
        <ele>444</ele>
        <time>2014-11-16T11:17:50Z</time>
      </trkpt>
      <trkpt lat="45.85526" lon="4.77179">
        <ele>443</ele>
        <time>2014-11-16T11:17:55Z</time>
      </trkpt>
      <trkpt lat="45.85525" lon="4.77178">
        <ele>443</ele>
        <time>2014-11-16T11:17:56Z</time>
      </trkpt>
      <trkpt lat="45.85524" lon="4.77178">
        <ele>443</ele>
        <time>2014-11-16T11:17:59Z</time>
      </trkpt>
      <trkpt lat="45.85522" lon="4.77178">
        <ele>443</ele>
        <time>2014-11-16T11:18:00Z</time>
      </trkpt>
      <trkpt lat="45.85521" lon="4.77178">
        <ele>442</ele>
        <time>2014-11-16T11:18:01Z</time>
      </trkpt>
      <trkpt lat="45.85519" lon="4.77176">
        <ele>442</ele>
        <time>2014-11-16T11:18:06Z</time>
      </trkpt>
      <trkpt lat="45.85518" lon="4.77178">
        <ele>442</ele>
        <time>2014-11-16T11:18:10Z</time>
      </trkpt>
      <trkpt lat="45.85518" lon="4.77182">
        <ele>443</ele>
        <time>2014-11-16T11:18:14Z</time>
      </trkpt>
      <trkpt lat="45.85517" lon="4.77182">
        <ele>443</ele>
        <time>2014-11-16T11:18:15Z</time>
      </trkpt>
      <trkpt lat="45.85516" lon="4.77183">
        <ele>443</ele>
        <time>2014-11-16T11:18:16Z</time>
      </trkpt>
      <trkpt lat="45.85513" lon="4.77186">
        <ele>443</ele>
        <time>2014-11-16T11:18:20Z</time>
      </trkpt>
      <trkpt lat="45.85509" lon="4.77187">
        <ele>443</ele>
        <time>2014-11-16T11:18:26Z</time>
      </trkpt>
      <trkpt lat="45.85507" lon="4.77186">
        <ele>442</ele>
        <time>2014-11-16T11:18:30Z</time>
      </trkpt>
      <trkpt lat="45.85506" lon="4.77186">
        <ele>442</ele>
        <time>2014-11-16T11:18:32Z</time>
      </trkpt>
      <trkpt lat="45.85503" lon="4.77183">
        <ele>442</ele>
        <time>2014-11-16T11:18:39Z</time>
      </trkpt>
      <trkpt lat="45.85501" lon="4.77181">
        <ele>441</ele>
        <time>2014-11-16T11:18:44Z</time>
      </trkpt>
      <trkpt lat="45.85496" lon="4.77172">
        <ele>439</ele>
        <time>2014-11-16T11:18:54Z</time>
      </trkpt>
      <trkpt lat="45.85496" lon="4.77167">
        <ele>437</ele>
        <time>2014-11-16T11:18:59Z</time>
      </trkpt>
      <trkpt lat="45.85496" lon="4.77165">
        <ele>434</ele>
        <time>2014-11-16T11:19:00Z</time>
      </trkpt>
      <trkpt lat="45.85495" lon="4.77162">
        <ele>433</ele>
        <time>2014-11-16T11:19:05Z</time>
      </trkpt>
      <trkpt lat="45.85492" lon="4.77156">
        <ele>432</ele>
        <time>2014-11-16T11:19:10Z</time>
      </trkpt>
      <trkpt lat="45.85488" lon="4.77156">
        <ele>432</ele>
        <time>2014-11-16T11:19:26Z</time>
      </trkpt>
      <trkpt lat="45.85486" lon="4.77159">
        <ele>432</ele>
        <time>2014-11-16T11:19:30Z</time>
      </trkpt>
      <trkpt lat="45.85485" lon="4.77166">
        <ele>432</ele>
        <time>2014-11-16T11:19:36Z</time>
      </trkpt>
      <trkpt lat="45.85482" lon="4.77168">
        <ele>442</ele>
        <time>2014-11-16T11:19:42Z</time>
      </trkpt>
      <trkpt lat="45.85479" lon="4.77176">
        <ele>443</ele>
        <time>2014-11-16T11:19:48Z</time>
      </trkpt>
      <trkpt lat="45.85479" lon="4.77177">
        <ele>444</ele>
        <time>2014-11-16T11:19:49Z</time>
      </trkpt>
      <trkpt lat="45.85477" lon="4.77179">
        <ele>444</ele>
        <time>2014-11-16T11:19:52Z</time>
      </trkpt>
      <trkpt lat="45.85476" lon="4.7718">
        <ele>444</ele>
        <time>2014-11-16T11:19:54Z</time>
      </trkpt>
      <trkpt lat="45.85475" lon="4.7718">
        <ele>445</ele>
        <time>2014-11-16T11:19:55Z</time>
      </trkpt>
      <trkpt lat="45.85471" lon="4.77182">
        <ele>445</ele>
        <time>2014-11-16T11:20:00Z</time>
      </trkpt>
      <trkpt lat="45.85467" lon="4.77184">
        <ele>446</ele>
        <time>2014-11-16T11:20:05Z</time>
      </trkpt>
      <trkpt lat="45.85461" lon="4.77193">
        <ele>447</ele>
        <time>2014-11-16T11:20:13Z</time>
      </trkpt>
      <trkpt lat="45.8546" lon="4.77195">
        <ele>447</ele>
        <time>2014-11-16T11:20:15Z</time>
      </trkpt>
      <trkpt lat="45.85459" lon="4.77195">
        <ele>448</ele>
        <time>2014-11-16T11:20:17Z</time>
      </trkpt>
      <trkpt lat="45.85457" lon="4.772">
        <ele>448</ele>
        <time>2014-11-16T11:20:21Z</time>
      </trkpt>
      <trkpt lat="45.85455" lon="4.77203">
        <ele>449</ele>
        <time>2014-11-16T11:20:24Z</time>
      </trkpt>
      <trkpt lat="45.85454" lon="4.77204">
        <ele>449</ele>
        <time>2014-11-16T11:20:25Z</time>
      </trkpt>
      <trkpt lat="45.85456" lon="4.77206">
        <ele>449</ele>
        <time>2014-11-16T11:20:32Z</time>
      </trkpt>
      <trkpt lat="45.85456" lon="4.77204">
        <ele>449</ele>
        <time>2014-11-16T11:20:44Z</time>
      </trkpt>
      <trkpt lat="45.85459" lon="4.77203">
        <ele>449</ele>
        <time>2014-11-16T11:20:51Z</time>
      </trkpt>
      <trkpt lat="45.8546" lon="4.77199">
        <ele>448</ele>
        <time>2014-11-16T11:20:58Z</time>
      </trkpt>
      <trkpt lat="45.85467" lon="4.772">
        <ele>448</ele>
        <time>2014-11-16T11:21:06Z</time>
      </trkpt>
      <trkpt lat="45.85476" lon="4.77202">
        <ele>448</ele>
        <time>2014-11-16T11:21:15Z</time>
      </trkpt>
      <trkpt lat="45.85479" lon="4.77203">
        <ele>448</ele>
        <time>2014-11-16T11:21:18Z</time>
      </trkpt>
      <trkpt lat="45.8548" lon="4.77203">
        <ele>448</ele>
        <time>2014-11-16T11:21:19Z</time>
      </trkpt>
      <trkpt lat="45.85482" lon="4.77206">
        <ele>449</ele>
        <time>2014-11-16T11:21:22Z</time>
      </trkpt>
      <trkpt lat="45.85484" lon="4.77209">
        <ele>449</ele>
        <time>2014-11-16T11:21:25Z</time>
      </trkpt>
      <trkpt lat="45.85487" lon="4.7721">
        <ele>450</ele>
        <time>2014-11-16T11:21:30Z</time>
      </trkpt>
      <trkpt lat="45.85491" lon="4.77215">
        <ele>451</ele>
        <time>2014-11-16T11:21:40Z</time>
      </trkpt>
      <trkpt lat="45.85493" lon="4.77218">
        <ele>451</ele>
        <time>2014-11-16T11:21:42Z</time>
      </trkpt>
      <trkpt lat="45.85496" lon="4.77223">
        <ele>453</ele>
        <time>2014-11-16T11:21:46Z</time>
      </trkpt>
      <trkpt lat="45.85499" lon="4.77228">
        <ele>454</ele>
        <time>2014-11-16T11:21:52Z</time>
      </trkpt>
      <trkpt lat="45.85502" lon="4.77227">
        <ele>453</ele>
        <time>2014-11-16T11:21:56Z</time>
      </trkpt>
      <trkpt lat="45.85505" lon="4.77225">
        <ele>452</ele>
        <time>2014-11-16T11:22:01Z</time>
      </trkpt>
      <trkpt lat="45.85508" lon="4.77226">
        <ele>452</ele>
        <time>2014-11-16T11:22:06Z</time>
      </trkpt>
      <trkpt lat="45.85513" lon="4.77231">
        <ele>453</ele>
        <time>2014-11-16T11:22:17Z</time>
      </trkpt>
      <trkpt lat="45.85512" lon="4.77235">
        <ele>454</ele>
        <time>2014-11-16T11:22:21Z</time>
      </trkpt>
      <trkpt lat="45.85511" lon="4.77239">
        <ele>455</ele>
        <time>2014-11-16T11:22:25Z</time>
      </trkpt>
      <trkpt lat="45.85511" lon="4.7724">
        <ele>456</ele>
        <time>2014-11-16T11:22:26Z</time>
      </trkpt>
      <trkpt lat="45.85511" lon="4.77246">
        <ele>457</ele>
        <time>2014-11-16T11:22:31Z</time>
      </trkpt>
      <trkpt lat="45.85516" lon="4.77248">
        <ele>456</ele>
        <time>2014-11-16T11:22:38Z</time>
      </trkpt>
      <trkpt lat="45.85518" lon="4.77249">
        <ele>455</ele>
        <time>2014-11-16T11:22:41Z</time>
      </trkpt>
      <trkpt lat="45.85522" lon="4.77252">
        <ele>467</ele>
        <time>2014-11-16T11:22:45Z</time>
      </trkpt>
      <trkpt lat="45.85524" lon="4.77257">
        <ele>467</ele>
        <time>2014-11-16T11:22:51Z</time>
      </trkpt>
      <trkpt lat="45.85527" lon="4.7726">
        <ele>468</ele>
        <time>2014-11-16T11:22:56Z</time>
      </trkpt>
      <trkpt lat="45.85529" lon="4.77263">
        <ele>468</ele>
        <time>2014-11-16T11:23:00Z</time>
      </trkpt>
      <trkpt lat="45.85531" lon="4.77265">
        <ele>468</ele>
        <time>2014-11-16T11:23:03Z</time>
      </trkpt>
      <trkpt lat="45.85533" lon="4.77267">
        <ele>468</ele>
        <time>2014-11-16T11:23:08Z</time>
      </trkpt>
      <trkpt lat="45.85533" lon="4.77268">
        <ele>468</ele>
        <time>2014-11-16T11:23:09Z</time>
      </trkpt>
      <trkpt lat="45.85534" lon="4.7727">
        <ele>469</ele>
        <time>2014-11-16T11:23:10Z</time>
      </trkpt>
      <trkpt lat="45.85535" lon="4.77272">
        <ele>469</ele>
        <time>2014-11-16T11:23:14Z</time>
      </trkpt>
      <trkpt lat="45.85534" lon="4.77282">
        <ele>470</ele>
        <time>2014-11-16T11:23:24Z</time>
      </trkpt>
      <trkpt lat="45.85536" lon="4.77287">
        <ele>471</ele>
        <time>2014-11-16T11:23:31Z</time>
      </trkpt>
      <trkpt lat="45.85539" lon="4.77291">
        <ele>471</ele>
        <time>2014-11-16T11:23:36Z</time>
      </trkpt>
      <trkpt lat="45.85542" lon="4.7729">
        <ele>471</ele>
        <time>2014-11-16T11:23:40Z</time>
      </trkpt>
      <trkpt lat="45.85543" lon="4.77291">
        <ele>471</ele>
        <time>2014-11-16T11:23:41Z</time>
      </trkpt>
      <trkpt lat="45.85544" lon="4.77291">
        <ele>471</ele>
        <time>2014-11-16T11:23:43Z</time>
      </trkpt>
      <trkpt lat="45.85545" lon="4.77292">
        <ele>471</ele>
        <time>2014-11-16T11:23:44Z</time>
      </trkpt>
      <trkpt lat="45.85548" lon="4.77292">
        <ele>471</ele>
        <time>2014-11-16T11:23:46Z</time>
      </trkpt>
      <trkpt lat="45.8555" lon="4.77292">
        <ele>471</ele>
        <time>2014-11-16T11:23:48Z</time>
      </trkpt>
      <trkpt lat="45.85554" lon="4.77289">
        <ele>470</ele>
        <time>2014-11-16T11:23:53Z</time>
      </trkpt>
      <trkpt lat="45.85558" lon="4.77288">
        <ele>470</ele>
        <time>2014-11-16T11:23:57Z</time>
      </trkpt>
      <trkpt lat="45.85559" lon="4.77289">
        <ele>470</ele>
        <time>2014-11-16T11:23:58Z</time>
      </trkpt>
      <trkpt lat="45.8556" lon="4.7729">
        <ele>470</ele>
        <time>2014-11-16T11:24:00Z</time>
      </trkpt>
      <trkpt lat="45.85565" lon="4.77289">
        <ele>470</ele>
        <time>2014-11-16T11:24:05Z</time>
      </trkpt>
      <trkpt lat="45.85566" lon="4.77289">
        <ele>470</ele>
        <time>2014-11-16T11:24:07Z</time>
      </trkpt>
      <trkpt lat="45.85574" lon="4.7729">
        <ele>470</ele>
        <time>2014-11-16T11:24:14Z</time>
      </trkpt>
      <trkpt lat="45.85579" lon="4.77288">
        <ele>469</ele>
        <time>2014-11-16T11:24:18Z</time>
      </trkpt>
      <trkpt lat="45.85583" lon="4.77286">
        <ele>469</ele>
        <time>2014-11-16T11:24:21Z</time>
      </trkpt>
      <trkpt lat="45.85594" lon="4.77285">
        <ele>467</ele>
        <time>2014-11-16T11:24:27Z</time>
      </trkpt>
      <trkpt lat="45.85597" lon="4.77285">
        <ele>467</ele>
        <time>2014-11-16T11:24:28Z</time>
      </trkpt>
      <trkpt lat="45.85607" lon="4.77284">
        <ele>467</ele>
        <time>2014-11-16T11:24:32Z</time>
      </trkpt>
      <trkpt lat="45.85617" lon="4.77283">
        <ele>467</ele>
        <time>2014-11-16T11:24:36Z</time>
      </trkpt>
      <trkpt lat="45.85619" lon="4.77283">
        <ele>467</ele>
        <time>2014-11-16T11:24:37Z</time>
      </trkpt>
      <trkpt lat="45.85633" lon="4.7728">
        <ele>467</ele>
        <time>2014-11-16T11:24:43Z</time>
      </trkpt>
      <trkpt lat="45.85635" lon="4.77278">
        <ele>466</ele>
        <time>2014-11-16T11:24:44Z</time>
      </trkpt>
      <trkpt lat="45.85644" lon="4.77277">
        <ele>466</ele>
        <time>2014-11-16T11:24:48Z</time>
      </trkpt>
      <trkpt lat="45.85646" lon="4.77278">
        <ele>466</ele>
        <time>2014-11-16T11:24:49Z</time>
      </trkpt>
      <trkpt lat="45.85655" lon="4.77279">
        <ele>466</ele>
        <time>2014-11-16T11:24:53Z</time>
      </trkpt>
      <trkpt lat="45.85657" lon="4.77279">
        <ele>466</ele>
        <time>2014-11-16T11:24:54Z</time>
      </trkpt>
      <trkpt lat="45.85669" lon="4.77281">
        <ele>463</ele>
        <time>2014-11-16T11:25:00Z</time>
      </trkpt>
      <trkpt lat="45.85673" lon="4.77286">
        <ele>464</ele>
        <time>2014-11-16T11:25:10Z</time>
      </trkpt>
      <trkpt lat="45.85676" lon="4.77285">
        <ele>464</ele>
        <time>2014-11-16T11:25:16Z</time>
      </trkpt>
      <trkpt lat="45.85682" lon="4.77283">
        <ele>463</ele>
        <time>2014-11-16T11:25:22Z</time>
      </trkpt>
      <trkpt lat="45.85683" lon="4.77284">
        <ele>463</ele>
        <time>2014-11-16T11:25:23Z</time>
      </trkpt>
      <trkpt lat="45.85686" lon="4.77286">
        <ele>464</ele>
        <time>2014-11-16T11:25:26Z</time>
      </trkpt>
      <trkpt lat="45.85687" lon="4.77286">
        <ele>464</ele>
        <time>2014-11-16T11:25:27Z</time>
      </trkpt>
      <trkpt lat="45.85688" lon="4.77286">
        <ele>463</ele>
        <time>2014-11-16T11:25:29Z</time>
      </trkpt>
      <trkpt lat="45.85689" lon="4.77285">
        <ele>463</ele>
        <time>2014-11-16T11:25:30Z</time>
      </trkpt>
      <trkpt lat="45.85692" lon="4.77284">
        <ele>463</ele>
        <time>2014-11-16T11:25:34Z</time>
      </trkpt>
      <trkpt lat="45.85697" lon="4.77287">
        <ele>463</ele>
        <time>2014-11-16T11:25:40Z</time>
      </trkpt>
      <trkpt lat="45.85702" lon="4.77293">
        <ele>463</ele>
        <time>2014-11-16T11:25:45Z</time>
      </trkpt>
      <trkpt lat="45.85703" lon="4.77294">
        <ele>464</ele>
        <time>2014-11-16T11:25:46Z</time>
      </trkpt>
      <trkpt lat="45.85703" lon="4.77296">
        <ele>464</ele>
        <time>2014-11-16T11:25:48Z</time>
      </trkpt>
      <trkpt lat="45.85703" lon="4.77299">
        <ele>464</ele>
        <time>2014-11-16T11:25:50Z</time>
      </trkpt>
      <trkpt lat="45.85704" lon="4.77301">
        <ele>464</ele>
        <time>2014-11-16T11:25:52Z</time>
      </trkpt>
      <trkpt lat="45.85707" lon="4.77306">
        <ele>464</ele>
        <time>2014-11-16T11:25:55Z</time>
      </trkpt>
      <trkpt lat="45.85709" lon="4.77307">
        <ele>464</ele>
        <time>2014-11-16T11:25:57Z</time>
      </trkpt>
      <trkpt lat="45.85713" lon="4.77309">
        <ele>464</ele>
        <time>2014-11-16T11:26:01Z</time>
      </trkpt>
      <trkpt lat="45.85718" lon="4.77313">
        <ele>464</ele>
        <time>2014-11-16T11:26:10Z</time>
      </trkpt>
      <trkpt lat="45.8572" lon="4.77323">
        <ele>465</ele>
        <time>2014-11-16T11:26:14Z</time>
      </trkpt>
      <trkpt lat="45.8572" lon="4.77326">
        <ele>465</ele>
        <time>2014-11-16T11:26:16Z</time>
      </trkpt>
      <trkpt lat="45.85722" lon="4.7733">
        <ele>465</ele>
        <time>2014-11-16T11:26:18Z</time>
      </trkpt>
      <trkpt lat="45.85723" lon="4.77334">
        <ele>473</ele>
        <time>2014-11-16T11:26:20Z</time>
      </trkpt>
      <trkpt lat="45.85724" lon="4.77335">
        <ele>473</ele>
        <time>2014-11-16T11:26:21Z</time>
      </trkpt>
      <trkpt lat="45.85724" lon="4.77337">
        <ele>473</ele>
        <time>2014-11-16T11:26:23Z</time>
      </trkpt>
      <trkpt lat="45.85725" lon="4.77338">
        <ele>473</ele>
        <time>2014-11-16T11:26:24Z</time>
      </trkpt>
      <trkpt lat="45.85726" lon="4.77339">
        <ele>473</ele>
        <time>2014-11-16T11:26:25Z</time>
      </trkpt>
      <trkpt lat="45.85729" lon="4.77341">
        <ele>473</ele>
        <time>2014-11-16T11:26:29Z</time>
      </trkpt>
      <trkpt lat="45.85733" lon="4.77349">
        <ele>473</ele>
        <time>2014-11-16T11:26:35Z</time>
      </trkpt>
      <trkpt lat="45.85734" lon="4.77351">
        <ele>473</ele>
        <time>2014-11-16T11:26:37Z</time>
      </trkpt>
      <trkpt lat="45.85736" lon="4.77352">
        <ele>473</ele>
        <time>2014-11-16T11:26:42Z</time>
      </trkpt>
      <trkpt lat="45.85739" lon="4.77354">
        <ele>473</ele>
        <time>2014-11-16T11:26:47Z</time>
      </trkpt>
      <trkpt lat="45.85742" lon="4.77355">
        <ele>473</ele>
        <time>2014-11-16T11:26:51Z</time>
      </trkpt>
      <trkpt lat="45.85745" lon="4.77357">
        <ele>473</ele>
        <time>2014-11-16T11:26:54Z</time>
      </trkpt>
      <trkpt lat="45.85747" lon="4.77356">
        <ele>473</ele>
        <time>2014-11-16T11:26:56Z</time>
      </trkpt>
      <trkpt lat="45.85751" lon="4.77354">
        <ele>468</ele>
        <time>2014-11-16T11:27:02Z</time>
      </trkpt>
      <trkpt lat="45.85754" lon="4.77352">
        <ele>468</ele>
        <time>2014-11-16T11:27:06Z</time>
      </trkpt>
      <trkpt lat="45.85756" lon="4.77351">
        <ele>468</ele>
        <time>2014-11-16T11:27:08Z</time>
      </trkpt>
      <trkpt lat="45.85759" lon="4.77349">
        <ele>468</ele>
        <time>2014-11-16T11:27:12Z</time>
      </trkpt>
      <trkpt lat="45.8576" lon="4.7735">
        <ele>468</ele>
        <time>2014-11-16T11:27:14Z</time>
      </trkpt>
      <trkpt lat="45.85762" lon="4.7735">
        <ele>468</ele>
        <time>2014-11-16T11:27:16Z</time>
      </trkpt>
      <trkpt lat="45.85767" lon="4.77349">
        <ele>468</ele>
        <time>2014-11-16T11:27:20Z</time>
      </trkpt>
      <trkpt lat="45.85774" lon="4.77355">
        <ele>468</ele>
        <time>2014-11-16T11:27:25Z</time>
      </trkpt>
      <trkpt lat="45.85781" lon="4.77356">
        <ele>468</ele>
        <time>2014-11-16T11:27:30Z</time>
      </trkpt>
      <trkpt lat="45.85789" lon="4.77364">
        <ele>468</ele>
        <time>2014-11-16T11:27:34Z</time>
      </trkpt>
      <trkpt lat="45.85794" lon="4.77365">
        <ele>468</ele>
        <time>2014-11-16T11:27:36Z</time>
      </trkpt>
      <trkpt lat="45.85802" lon="4.77368">
        <ele>468</ele>
        <time>2014-11-16T11:27:39Z</time>
      </trkpt>
      <trkpt lat="45.85807" lon="4.77369">
        <ele>468</ele>
        <time>2014-11-16T11:27:42Z</time>
      </trkpt>
      <trkpt lat="45.85808" lon="4.77369">
        <ele>467</ele>
        <time>2014-11-16T11:27:43Z</time>
      </trkpt>
      <trkpt lat="45.85809" lon="4.77369">
        <ele>467</ele>
        <time>2014-11-16T11:27:46Z</time>
      </trkpt>
      <trkpt lat="45.85808" lon="4.77369">
        <ele>467</ele>
        <time>2014-11-16T11:27:51Z</time>
      </trkpt>
      <trkpt lat="45.85812" lon="4.77373">
        <ele>468</ele>
        <time>2014-11-16T11:28:18Z</time>
      </trkpt>
      <trkpt lat="45.85807" lon="4.77377">
        <ele>468</ele>
        <time>2014-11-16T11:28:22Z</time>
      </trkpt>
      <trkpt lat="45.85807" lon="4.77377">
        <ele>468</ele>
        <time>2014-11-16T11:28:23Z</time>
      </trkpt>
      <trkpt lat="45.85805" lon="4.77377">
        <ele>468</ele>
        <time>2014-11-16T11:28:25Z</time>
      </trkpt>
      <trkpt lat="45.85803" lon="4.77376">
        <ele>468</ele>
        <time>2014-11-16T11:28:26Z</time>
      </trkpt>
      <trkpt lat="45.85801" lon="4.77377">
        <ele>468</ele>
        <time>2014-11-16T11:28:28Z</time>
      </trkpt>
      <trkpt lat="45.85798" lon="4.77377">
        <ele>469</ele>
        <time>2014-11-16T11:28:30Z</time>
      </trkpt>
      <trkpt lat="45.85793" lon="4.7738">
        <ele>469</ele>
        <time>2014-11-16T11:28:35Z</time>
      </trkpt>
      <trkpt lat="45.85788" lon="4.77382">
        <ele>469</ele>
        <time>2014-11-16T11:28:41Z</time>
      </trkpt>
      <trkpt lat="45.85788" lon="4.77381">
        <ele>469</ele>
        <time>2014-11-16T11:28:42Z</time>
      </trkpt>
      <trkpt lat="45.85784" lon="4.77382">
        <ele>470</ele>
        <time>2014-11-16T11:28:46Z</time>
      </trkpt>
      <trkpt lat="45.85782" lon="4.77382">
        <ele>470</ele>
        <time>2014-11-16T11:28:47Z</time>
      </trkpt>
      <trkpt lat="45.85781" lon="4.77381">
        <ele>470</ele>
        <time>2014-11-16T11:28:48Z</time>
      </trkpt>
      <trkpt lat="45.85778" lon="4.77381">
        <ele>470</ele>
        <time>2014-11-16T11:28:51Z</time>
      </trkpt>
      <trkpt lat="45.85774" lon="4.77382">
        <ele>470</ele>
        <time>2014-11-16T11:28:55Z</time>
      </trkpt>
      <trkpt lat="45.85773" lon="4.77382">
        <ele>470</ele>
        <time>2014-11-16T11:28:56Z</time>
      </trkpt>
      <trkpt lat="45.85769" lon="4.77383">
        <ele>471</ele>
        <time>2014-11-16T11:28:59Z</time>
      </trkpt>
      <trkpt lat="45.85766" lon="4.77384">
        <ele>471</ele>
        <time>2014-11-16T11:29:02Z</time>
      </trkpt>
      <trkpt lat="45.85765" lon="4.77385">
        <ele>471</ele>
        <time>2014-11-16T11:29:04Z</time>
      </trkpt>
      <trkpt lat="45.85763" lon="4.77385">
        <ele>471</ele>
        <time>2014-11-16T11:29:07Z</time>
      </trkpt>
      <trkpt lat="45.8576" lon="4.77389">
        <ele>472</ele>
        <time>2014-11-16T11:29:13Z</time>
      </trkpt>
      <trkpt lat="45.85757" lon="4.77393">
        <ele>473</ele>
        <time>2014-11-16T11:29:21Z</time>
      </trkpt>
      <trkpt lat="45.85755" lon="4.77394">
        <ele>473</ele>
        <time>2014-11-16T11:29:24Z</time>
      </trkpt>
      <trkpt lat="45.85752" lon="4.77393">
        <ele>473</ele>
        <time>2014-11-16T11:29:27Z</time>
      </trkpt>
      <trkpt lat="45.85751" lon="4.77394">
        <ele>473</ele>
        <time>2014-11-16T11:29:28Z</time>
      </trkpt>
      <trkpt lat="45.85748" lon="4.77394">
        <ele>478</ele>
        <time>2014-11-16T11:29:34Z</time>
      </trkpt>
      <trkpt lat="45.85748" lon="4.77394">
        <ele>478</ele>
        <time>2014-11-16T11:29:36Z</time>
      </trkpt>
      <trkpt lat="45.85747" lon="4.77394">
        <ele>478</ele>
        <time>2014-11-16T11:29:55Z</time>
      </trkpt>
      <trkpt lat="45.85743" lon="4.77397">
        <ele>478</ele>
        <time>2014-11-16T11:30:01Z</time>
      </trkpt>
      <trkpt lat="45.85738" lon="4.774">
        <ele>478</ele>
        <time>2014-11-16T11:30:06Z</time>
      </trkpt>
      <trkpt lat="45.85737" lon="4.774">
        <ele>478</ele>
        <time>2014-11-16T11:30:07Z</time>
      </trkpt>
      <trkpt lat="45.85734" lon="4.77401">
        <ele>478</ele>
        <time>2014-11-16T11:30:10Z</time>
      </trkpt>
      <trkpt lat="45.85733" lon="4.77401">
        <ele>478</ele>
        <time>2014-11-16T11:30:11Z</time>
      </trkpt>
      <trkpt lat="45.85732" lon="4.77402">
        <ele>478</ele>
        <time>2014-11-16T11:30:12Z</time>
      </trkpt>
      <trkpt lat="45.8573" lon="4.77405">
        <ele>478</ele>
        <time>2014-11-16T11:30:16Z</time>
      </trkpt>
      <trkpt lat="45.85729" lon="4.77406">
        <ele>478</ele>
        <time>2014-11-16T11:30:18Z</time>
      </trkpt>
      <trkpt lat="45.85727" lon="4.77407">
        <ele>479</ele>
        <time>2014-11-16T11:30:20Z</time>
      </trkpt>
      <trkpt lat="45.85725" lon="4.77407">
        <ele>479</ele>
        <time>2014-11-16T11:30:23Z</time>
      </trkpt>
      <trkpt lat="45.85723" lon="4.77408">
        <ele>479</ele>
        <time>2014-11-16T11:30:26Z</time>
      </trkpt>
      <trkpt lat="45.8572" lon="4.77412">
        <ele>479</ele>
        <time>2014-11-16T11:30:31Z</time>
      </trkpt>
      <trkpt lat="45.8572" lon="4.77415">
        <ele>479</ele>
        <time>2014-11-16T11:30:33Z</time>
      </trkpt>
      <trkpt lat="45.85718" lon="4.77413">
        <ele>479</ele>
        <time>2014-11-16T11:30:35Z</time>
      </trkpt>
      <trkpt lat="45.85716" lon="4.77411">
        <ele>479</ele>
        <time>2014-11-16T11:30:37Z</time>
      </trkpt>
      <trkpt lat="45.85712" lon="4.77409">
        <ele>479</ele>
        <time>2014-11-16T11:30:41Z</time>
      </trkpt>
      <trkpt lat="45.8571" lon="4.77409">
        <ele>480</ele>
        <time>2014-11-16T11:30:44Z</time>
      </trkpt>
      <trkpt lat="45.85707" lon="4.77411">
        <ele>480</ele>
        <time>2014-11-16T11:30:53Z</time>
      </trkpt>
      <trkpt lat="45.85703" lon="4.77409">
        <ele>480</ele>
        <time>2014-11-16T11:31:01Z</time>
      </trkpt>
      <trkpt lat="45.85694" lon="4.77402">
        <ele>481</ele>
        <time>2014-11-16T11:31:08Z</time>
      </trkpt>
      <trkpt lat="45.85686" lon="4.77399">
        <ele>481</ele>
        <time>2014-11-16T11:31:12Z</time>
      </trkpt>
      <trkpt lat="45.85684" lon="4.77399">
        <ele>482</ele>
        <time>2014-11-16T11:31:13Z</time>
      </trkpt>
      <trkpt lat="45.85671" lon="4.77396">
        <ele>482</ele>
        <time>2014-11-16T11:31:19Z</time>
      </trkpt>
      <trkpt lat="45.85667" lon="4.77394">
        <ele>482</ele>
        <time>2014-11-16T11:31:21Z</time>
      </trkpt>
      <trkpt lat="45.85662" lon="4.77392">
        <ele>486</ele>
        <time>2014-11-16T11:31:24Z</time>
      </trkpt>
      <trkpt lat="45.85661" lon="4.77391">
        <ele>485</ele>
        <time>2014-11-16T11:31:25Z</time>
      </trkpt>
      <trkpt lat="45.8566" lon="4.77391">
        <ele>485</ele>
        <time>2014-11-16T11:31:27Z</time>
      </trkpt>
      <trkpt lat="45.85659" lon="4.77392">
        <ele>486</ele>
        <time>2014-11-16T11:31:29Z</time>
      </trkpt>
      <trkpt lat="45.85664" lon="4.77393">
        <ele>486</ele>
        <time>2014-11-16T11:32:01Z</time>
      </trkpt>
      <trkpt lat="45.85666" lon="4.77393">
        <ele>486</ele>
        <time>2014-11-16T11:32:02Z</time>
      </trkpt>
      <trkpt lat="45.85672" lon="4.77395">
        <ele>482</ele>
        <time>2014-11-16T11:32:05Z</time>
      </trkpt>
      <trkpt lat="45.85685" lon="4.77398">
        <ele>481</ele>
        <time>2014-11-16T11:32:09Z</time>
      </trkpt>
      <trkpt lat="45.85689" lon="4.77399">
        <ele>481</ele>
        <time>2014-11-16T11:32:10Z</time>
      </trkpt>
      <trkpt lat="45.85703" lon="4.77404">
        <ele>480</ele>
        <time>2014-11-16T11:32:14Z</time>
      </trkpt>
      <trkpt lat="45.85712" lon="4.77416">
        <ele>480</ele>
        <time>2014-11-16T11:32:18Z</time>
      </trkpt>
      <trkpt lat="45.85717" lon="4.77427">
        <ele>483</ele>
        <time>2014-11-16T11:32:21Z</time>
      </trkpt>
      <trkpt lat="45.85719" lon="4.77431">
        <ele>483</ele>
        <time>2014-11-16T11:32:22Z</time>
      </trkpt>
      <trkpt lat="45.8572" lon="4.77452">
        <ele>483</ele>
        <time>2014-11-16T11:32:26Z</time>
      </trkpt>
      <trkpt lat="45.85719" lon="4.77465">
        <ele>483</ele>
        <time>2014-11-16T11:32:30Z</time>
      </trkpt>
      <trkpt lat="45.85716" lon="4.77478">
        <ele>483</ele>
        <time>2014-11-16T11:32:34Z</time>
      </trkpt>
      <trkpt lat="45.85714" lon="4.77482">
        <ele>483</ele>
        <time>2014-11-16T11:32:35Z</time>
      </trkpt>
      <trkpt lat="45.85709" lon="4.77502">
        <ele>482</ele>
        <time>2014-11-16T11:32:40Z</time>
      </trkpt>
      <trkpt lat="45.85707" lon="4.77505">
        <ele>482</ele>
        <time>2014-11-16T11:32:41Z</time>
      </trkpt>
      <trkpt lat="45.85701" lon="4.77522">
        <ele>482</ele>
        <time>2014-11-16T11:32:45Z</time>
      </trkpt>
      <trkpt lat="45.85699" lon="4.77529">
        <ele>482</ele>
        <time>2014-11-16T11:32:47Z</time>
      </trkpt>
      <trkpt lat="45.85697" lon="4.77541">
        <ele>482</ele>
        <time>2014-11-16T11:32:50Z</time>
      </trkpt>
      <trkpt lat="45.85692" lon="4.77556">
        <ele>482</ele>
        <time>2014-11-16T11:32:54Z</time>
      </trkpt>
      <trkpt lat="45.8569" lon="4.77565">
        <ele>483</ele>
        <time>2014-11-16T11:32:56Z</time>
      </trkpt>
      <trkpt lat="45.85687" lon="4.77585">
        <ele>481</ele>
        <time>2014-11-16T11:33:00Z</time>
      </trkpt>
      <trkpt lat="45.85686" lon="4.77612">
        <ele>478</ele>
        <time>2014-11-16T11:33:06Z</time>
      </trkpt>
      <trkpt lat="45.85686" lon="4.77634">
        <ele>477</ele>
        <time>2014-11-16T11:33:11Z</time>
      </trkpt>
      <trkpt lat="45.85684" lon="4.77642">
        <ele>477</ele>
        <time>2014-11-16T11:33:13Z</time>
      </trkpt>
      <trkpt lat="45.85682" lon="4.77651">
        <ele>477</ele>
        <time>2014-11-16T11:33:15Z</time>
      </trkpt>
      <trkpt lat="45.85681" lon="4.77669">
        <ele>475</ele>
        <time>2014-11-16T11:33:19Z</time>
      </trkpt>
      <trkpt lat="45.8568" lon="4.77674">
        <ele>475</ele>
        <time>2014-11-16T11:33:20Z</time>
      </trkpt>
      <trkpt lat="45.85679" lon="4.77691">
        <ele>472</ele>
        <time>2014-11-16T11:33:25Z</time>
      </trkpt>
      <trkpt lat="45.85679" lon="4.77697">
        <ele>471</ele>
        <time>2014-11-16T11:33:27Z</time>
      </trkpt>
      <trkpt lat="45.85679" lon="4.77704">
        <ele>470</ele>
        <time>2014-11-16T11:33:29Z</time>
      </trkpt>
      <trkpt lat="45.85676" lon="4.77725">
        <ele>470</ele>
        <time>2014-11-16T11:33:34Z</time>
      </trkpt>
      <trkpt lat="45.85672" lon="4.77743">
        <ele>472</ele>
        <time>2014-11-16T11:33:39Z</time>
      </trkpt>
      <trkpt lat="45.85671" lon="4.77748">
        <ele>473</ele>
        <time>2014-11-16T11:33:41Z</time>
      </trkpt>
      <trkpt lat="45.85671" lon="4.77751">
        <ele>472</ele>
        <time>2014-11-16T11:33:42Z</time>
      </trkpt>
      <trkpt lat="45.85671" lon="4.77757">
        <ele>470</ele>
        <time>2014-11-16T11:33:44Z</time>
      </trkpt>
      <trkpt lat="45.8567" lon="4.77764">
        <ele>467</ele>
        <time>2014-11-16T11:33:46Z</time>
      </trkpt>
      <trkpt lat="45.85667" lon="4.77771">
        <ele>465</ele>
        <time>2014-11-16T11:33:48Z</time>
      </trkpt>
      <trkpt lat="45.85666" lon="4.77778">
        <ele>476</ele>
        <time>2014-11-16T11:33:50Z</time>
      </trkpt>
      <trkpt lat="45.85664" lon="4.77787">
        <ele>476</ele>
        <time>2014-11-16T11:33:52Z</time>
      </trkpt>
      <trkpt lat="45.8566" lon="4.77804">
        <ele>474</ele>
        <time>2014-11-16T11:33:56Z</time>
      </trkpt>
      <trkpt lat="45.85659" lon="4.77808">
        <ele>474</ele>
        <time>2014-11-16T11:33:57Z</time>
      </trkpt>
      <trkpt lat="45.85654" lon="4.77827">
        <ele>471</ele>
        <time>2014-11-16T11:34:02Z</time>
      </trkpt>
      <trkpt lat="45.85652" lon="4.77831">
        <ele>472</ele>
        <time>2014-11-16T11:34:03Z</time>
      </trkpt>
      <trkpt lat="45.8565" lon="4.77838">
        <ele>468</ele>
        <time>2014-11-16T11:34:06Z</time>
      </trkpt>
      <trkpt lat="45.85647" lon="4.77843">
        <ele>468</ele>
        <time>2014-11-16T11:34:10Z</time>
      </trkpt>
      <trkpt lat="45.85646" lon="4.77844">
        <ele>468</ele>
        <time>2014-11-16T11:34:11Z</time>
      </trkpt>
      <trkpt lat="45.85643" lon="4.77849">
        <ele>468</ele>
        <time>2014-11-16T11:34:16Z</time>
      </trkpt>
      <trkpt lat="45.85639" lon="4.77852">
        <ele>468</ele>
        <time>2014-11-16T11:34:19Z</time>
      </trkpt>
      <trkpt lat="45.85638" lon="4.77855">
        <ele>468</ele>
        <time>2014-11-16T11:34:20Z</time>
      </trkpt>
      <trkpt lat="45.85637" lon="4.77858">
        <ele>468</ele>
        <time>2014-11-16T11:34:21Z</time>
      </trkpt>
      <trkpt lat="45.85632" lon="4.7787">
        <ele>468</ele>
        <time>2014-11-16T11:34:24Z</time>
      </trkpt>
      <trkpt lat="45.8563" lon="4.77874">
        <ele>468</ele>
        <time>2014-11-16T11:34:25Z</time>
      </trkpt>
      <trkpt lat="45.85625" lon="4.77881">
        <ele>468</ele>
        <time>2014-11-16T11:34:27Z</time>
      </trkpt>
      <trkpt lat="45.85624" lon="4.77887">
        <ele>468</ele>
        <time>2014-11-16T11:34:29Z</time>
      </trkpt>
      <trkpt lat="45.85626" lon="4.77891">
        <ele>467</ele>
        <time>2014-11-16T11:34:31Z</time>
      </trkpt>
      <trkpt lat="45.85626" lon="4.77899">
        <ele>467</ele>
        <time>2014-11-16T11:34:34Z</time>
      </trkpt>
      <trkpt lat="45.85628" lon="4.77904">
        <ele>466</ele>
        <time>2014-11-16T11:34:36Z</time>
      </trkpt>
      <trkpt lat="45.85632" lon="4.77906">
        <ele>466</ele>
        <time>2014-11-16T11:34:40Z</time>
      </trkpt>
      <trkpt lat="45.85634" lon="4.77905">
        <ele>465</ele>
        <time>2014-11-16T11:34:41Z</time>
      </trkpt>
      <trkpt lat="45.85636" lon="4.77903">
        <ele>465</ele>
        <time>2014-11-16T11:34:43Z</time>
      </trkpt>
      <trkpt lat="45.85637" lon="4.779">
        <ele>465</ele>
        <time>2014-11-16T11:34:46Z</time>
      </trkpt>
      <trkpt lat="45.85635" lon="4.77896">
        <ele>466</ele>
        <time>2014-11-16T11:34:50Z</time>
      </trkpt>
      <trkpt lat="45.85635" lon="4.77896">
        <ele>466</ele>
        <time>2014-11-16T11:34:51Z</time>
      </trkpt>
      <trkpt lat="45.85638" lon="4.77897">
        <ele>465</ele>
        <time>2014-11-16T11:34:57Z</time>
      </trkpt>
      <trkpt lat="45.85639" lon="4.77898">
        <ele>465</ele>
        <time>2014-11-16T11:35:04Z</time>
      </trkpt>
      <trkpt lat="45.8564" lon="4.77903">
        <ele>464</ele>
        <time>2014-11-16T11:35:10Z</time>
      </trkpt>
      <trkpt lat="45.85637" lon="4.77906">
        <ele>465</ele>
        <time>2014-11-16T11:35:15Z</time>
      </trkpt>
      <trkpt lat="45.85633" lon="4.77905">
        <ele>465</ele>
        <time>2014-11-16T11:35:22Z</time>
      </trkpt>
      <trkpt lat="45.8563" lon="4.77909">
        <ele>466</ele>
        <time>2014-11-16T11:35:31Z</time>
      </trkpt>
      <trkpt lat="45.85629" lon="4.77911">
        <ele>466</ele>
        <time>2014-11-16T11:35:35Z</time>
      </trkpt>
      <trkpt lat="45.85629" lon="4.77908">
        <ele>466</ele>
        <time>2014-11-16T11:35:42Z</time>
      </trkpt>
      <trkpt lat="45.85628" lon="4.77905">
        <ele>466</ele>
        <time>2014-11-16T11:35:45Z</time>
      </trkpt>
      <trkpt lat="45.85629" lon="4.779">
        <ele>466</ele>
        <time>2014-11-16T11:35:48Z</time>
      </trkpt>
      <trkpt lat="45.85628" lon="4.77898">
        <ele>467</ele>
        <time>2014-11-16T11:35:55Z</time>
      </trkpt>
      <trkpt lat="45.85629" lon="4.77906">
        <ele>466</ele>
        <time>2014-11-16T11:36:01Z</time>
      </trkpt>
      <trkpt lat="45.85629" lon="4.77909">
        <ele>466</ele>
        <time>2014-11-16T11:36:02Z</time>
      </trkpt>
      <trkpt lat="45.85629" lon="4.77913">
        <ele>466</ele>
        <time>2014-11-16T11:36:03Z</time>
      </trkpt>
      <trkpt lat="45.85628" lon="4.7792">
        <ele>463</ele>
        <time>2014-11-16T11:36:06Z</time>
      </trkpt>
      <trkpt lat="45.85626" lon="4.77933">
        <ele>464</ele>
        <time>2014-11-16T11:36:11Z</time>
      </trkpt>
      <trkpt lat="45.85625" lon="4.77935">
        <ele>464</ele>
        <time>2014-11-16T11:36:12Z</time>
      </trkpt>
      <trkpt lat="45.85624" lon="4.7794">
        <ele>464</ele>
        <time>2014-11-16T11:36:15Z</time>
      </trkpt>
      <trkpt lat="45.85624" lon="4.77944">
        <ele>464</ele>
        <time>2014-11-16T11:36:17Z</time>
      </trkpt>
      <trkpt lat="45.85623" lon="4.77953">
        <ele>464</ele>
        <time>2014-11-16T11:36:20Z</time>
      </trkpt>
      <trkpt lat="45.85625" lon="4.77957">
        <ele>464</ele>
        <time>2014-11-16T11:36:25Z</time>
      </trkpt>
      <trkpt lat="45.85626" lon="4.7796">
        <ele>464</ele>
        <time>2014-11-16T11:36:33Z</time>
      </trkpt>
      <trkpt lat="45.85627" lon="4.77961">
        <ele>464</ele>
        <time>2014-11-16T11:36:37Z</time>
      </trkpt>
      <trkpt lat="45.85629" lon="4.7796">
        <ele>464</ele>
        <time>2014-11-16T11:36:41Z</time>
      </trkpt>
      <trkpt lat="45.85632" lon="4.77962">
        <ele>463</ele>
        <time>2014-11-16T11:36:44Z</time>
      </trkpt>
      <trkpt lat="45.85633" lon="4.77962">
        <ele>463</ele>
        <time>2014-11-16T11:36:45Z</time>
      </trkpt>
      <trkpt lat="45.85634" lon="4.77962">
        <ele>463</ele>
        <time>2014-11-16T11:36:46Z</time>
      </trkpt>
      <trkpt lat="45.85636" lon="4.77962">
        <ele>463</ele>
        <time>2014-11-16T11:36:48Z</time>
      </trkpt>
      <trkpt lat="45.85639" lon="4.77961">
        <ele>463</ele>
        <time>2014-11-16T11:36:51Z</time>
      </trkpt>
      <trkpt lat="45.85639" lon="4.7796">
        <ele>463</ele>
        <time>2014-11-16T11:36:52Z</time>
      </trkpt>
      <trkpt lat="45.85644" lon="4.77961">
        <ele>462</ele>
        <time>2014-11-16T11:36:55Z</time>
      </trkpt>
      <trkpt lat="45.85647" lon="4.7796">
        <ele>462</ele>
        <time>2014-11-16T11:36:57Z</time>
      </trkpt>
      <trkpt lat="45.85649" lon="4.7796">
        <ele>462</ele>
        <time>2014-11-16T11:36:59Z</time>
      </trkpt>
      <trkpt lat="45.85652" lon="4.77961">
        <ele>461</ele>
        <time>2014-11-16T11:37:01Z</time>
      </trkpt>
      <trkpt lat="45.8566" lon="4.77961">
        <ele>461</ele>
        <time>2014-11-16T11:37:06Z</time>
      </trkpt>
      <trkpt lat="45.85662" lon="4.77962">
        <ele>461</ele>
        <time>2014-11-16T11:37:08Z</time>
      </trkpt>
      <trkpt lat="45.85664" lon="4.77962">
        <ele>461</ele>
        <time>2014-11-16T11:37:10Z</time>
      </trkpt>
      <trkpt lat="45.85665" lon="4.77963">
        <ele>461</ele>
        <time>2014-11-16T11:37:11Z</time>
      </trkpt>
      <trkpt lat="45.85666" lon="4.77963">
        <ele>461</ele>
        <time>2014-11-16T11:37:12Z</time>
      </trkpt>
      <trkpt lat="45.8567" lon="4.77965">
        <ele>449</ele>
        <time>2014-11-16T11:37:16Z</time>
      </trkpt>
      <trkpt lat="45.85679" lon="4.77968">
        <ele>448</ele>
        <time>2014-11-16T11:37:21Z</time>
      </trkpt>
      <trkpt lat="45.85681" lon="4.77967">
        <ele>448</ele>
        <time>2014-11-16T11:37:23Z</time>
      </trkpt>
      <trkpt lat="45.85684" lon="4.77966">
        <ele>448</ele>
        <time>2014-11-16T11:37:25Z</time>
      </trkpt>
      <trkpt lat="45.8569" lon="4.77966">
        <ele>447</ele>
        <time>2014-11-16T11:37:28Z</time>
      </trkpt>
      <trkpt lat="45.85692" lon="4.77968">
        <ele>447</ele>
        <time>2014-11-16T11:37:30Z</time>
      </trkpt>
      <trkpt lat="45.85697" lon="4.77972">
        <ele>447</ele>
        <time>2014-11-16T11:37:34Z</time>
      </trkpt>
      <trkpt lat="45.85701" lon="4.77977">
        <ele>446</ele>
        <time>2014-11-16T11:37:36Z</time>
      </trkpt>
      <trkpt lat="45.85705" lon="4.77978">
        <ele>446</ele>
        <time>2014-11-16T11:37:38Z</time>
      </trkpt>
      <trkpt lat="45.85712" lon="4.77979">
        <ele>445</ele>
        <time>2014-11-16T11:37:42Z</time>
      </trkpt>
      <trkpt lat="45.85714" lon="4.77982">
        <ele>445</ele>
        <time>2014-11-16T11:37:44Z</time>
      </trkpt>
      <trkpt lat="45.85719" lon="4.77984">
        <ele>444</ele>
        <time>2014-11-16T11:37:47Z</time>
      </trkpt>
      <trkpt lat="45.85725" lon="4.77987">
        <ele>443</ele>
        <time>2014-11-16T11:37:51Z</time>
      </trkpt>
      <trkpt lat="45.85727" lon="4.77986">
        <ele>443</ele>
        <time>2014-11-16T11:37:52Z</time>
      </trkpt>
      <trkpt lat="45.85734" lon="4.77991">
        <ele>442</ele>
        <time>2014-11-16T11:37:55Z</time>
      </trkpt>
      <trkpt lat="45.85736" lon="4.77992">
        <ele>441</ele>
        <time>2014-11-16T11:37:56Z</time>
      </trkpt>
      <trkpt lat="45.85741" lon="4.7799">
        <ele>441</ele>
        <time>2014-11-16T11:37:58Z</time>
      </trkpt>
      <trkpt lat="45.85746" lon="4.77988">
        <ele>441</ele>
        <time>2014-11-16T11:38:01Z</time>
      </trkpt>
      <trkpt lat="45.85756" lon="4.77987">
        <ele>431</ele>
        <time>2014-11-16T11:38:04Z</time>
      </trkpt>
      <trkpt lat="45.85759" lon="4.77985">
        <ele>431</ele>
        <time>2014-11-16T11:38:05Z</time>
      </trkpt>
      <trkpt lat="45.85765" lon="4.77981">
        <ele>429</ele>
        <time>2014-11-16T11:38:08Z</time>
      </trkpt>
      <trkpt lat="45.85768" lon="4.77978">
        <ele>428</ele>
        <time>2014-11-16T11:38:10Z</time>
      </trkpt>
      <trkpt lat="45.8577" lon="4.77977">
        <ele>427</ele>
        <time>2014-11-16T11:38:11Z</time>
      </trkpt>
      <trkpt lat="45.85773" lon="4.77977">
        <ele>427</ele>
        <time>2014-11-16T11:38:12Z</time>
      </trkpt>
      <trkpt lat="45.85782" lon="4.77977">
        <ele>425</ele>
        <time>2014-11-16T11:38:16Z</time>
      </trkpt>
      <trkpt lat="45.8579" lon="4.77979">
        <ele>424</ele>
        <time>2014-11-16T11:38:20Z</time>
      </trkpt>
      <trkpt lat="45.85792" lon="4.77978">
        <ele>423</ele>
        <time>2014-11-16T11:38:21Z</time>
      </trkpt>
      <trkpt lat="45.85801" lon="4.77972">
        <ele>421</ele>
        <time>2014-11-16T11:38:24Z</time>
      </trkpt>
      <trkpt lat="45.8581" lon="4.77971">
        <ele>420</ele>
        <time>2014-11-16T11:38:27Z</time>
      </trkpt>
      <trkpt lat="45.85816" lon="4.7797">
        <ele>419</ele>
        <time>2014-11-16T11:38:29Z</time>
      </trkpt>
      <trkpt lat="45.8583" lon="4.77966">
        <ele>418</ele>
        <time>2014-11-16T11:38:34Z</time>
      </trkpt>
      <trkpt lat="45.85833" lon="4.77966">
        <ele>418</ele>
        <time>2014-11-16T11:38:35Z</time>
      </trkpt>
      <trkpt lat="45.85845" lon="4.77967">
        <ele>407</ele>
        <time>2014-11-16T11:38:39Z</time>
      </trkpt>
      <trkpt lat="45.85848" lon="4.77968">
        <ele>407</ele>
        <time>2014-11-16T11:38:40Z</time>
      </trkpt>
      <trkpt lat="45.8585" lon="4.77968">
        <ele>407</ele>
        <time>2014-11-16T11:38:41Z</time>
      </trkpt>
      <trkpt lat="45.85852" lon="4.77968">
        <ele>407</ele>
        <time>2014-11-16T11:38:44Z</time>
      </trkpt>
      <trkpt lat="45.85853" lon="4.77968">
        <ele>407</ele>
        <time>2014-11-16T11:38:45Z</time>
      </trkpt>
      <trkpt lat="45.85857" lon="4.77968">
        <ele>407</ele>
        <time>2014-11-16T11:38:49Z</time>
      </trkpt>
      <trkpt lat="45.85861" lon="4.77965">
        <ele>406</ele>
        <time>2014-11-16T11:38:51Z</time>
      </trkpt>
      <trkpt lat="45.85864" lon="4.77971">
        <ele>406</ele>
        <time>2014-11-16T11:38:54Z</time>
      </trkpt>
      <trkpt lat="45.85866" lon="4.77975">
        <ele>406</ele>
        <time>2014-11-16T11:38:55Z</time>
      </trkpt>
      <trkpt lat="45.85867" lon="4.77978">
        <ele>406</ele>
        <time>2014-11-16T11:38:56Z</time>
      </trkpt>
      <trkpt lat="45.85867" lon="4.77981">
        <ele>406</ele>
        <time>2014-11-16T11:38:58Z</time>
      </trkpt>
      <trkpt lat="45.85873" lon="4.77985">
        <ele>406</ele>
        <time>2014-11-16T11:39:03Z</time>
      </trkpt>
      <trkpt lat="45.85878" lon="4.7799">
        <ele>406</ele>
        <time>2014-11-16T11:39:08Z</time>
      </trkpt>
      <trkpt lat="45.85878" lon="4.77991">
        <ele>406</ele>
        <time>2014-11-16T11:39:09Z</time>
      </trkpt>
      <trkpt lat="45.8588" lon="4.77991">
        <ele>405</ele>
        <time>2014-11-16T11:39:10Z</time>
      </trkpt>
      <trkpt lat="45.85883" lon="4.77992">
        <ele>405</ele>
        <time>2014-11-16T11:39:13Z</time>
      </trkpt>
      <trkpt lat="45.85885" lon="4.77992">
        <ele>405</ele>
        <time>2014-11-16T11:39:15Z</time>
      </trkpt>
      <trkpt lat="45.85891" lon="4.77993">
        <ele>405</ele>
        <time>2014-11-16T11:39:21Z</time>
      </trkpt>
      <trkpt lat="45.85893" lon="4.77994">
        <ele>404</ele>
        <time>2014-11-16T11:39:25Z</time>
      </trkpt>
      <trkpt lat="45.85896" lon="4.77995">
        <ele>404</ele>
        <time>2014-11-16T11:39:29Z</time>
      </trkpt>
      <trkpt lat="45.85901" lon="4.77998">
        <ele>404</ele>
        <time>2014-11-16T11:39:33Z</time>
      </trkpt>
      <trkpt lat="45.85912" lon="4.78003">
        <ele>406</ele>
        <time>2014-11-16T11:39:37Z</time>
      </trkpt>
      <trkpt lat="45.85918" lon="4.78006">
        <ele>406</ele>
        <time>2014-11-16T11:39:39Z</time>
      </trkpt>
      <trkpt lat="45.85923" lon="4.78008">
        <ele>407</ele>
        <time>2014-11-16T11:39:41Z</time>
      </trkpt>
      <trkpt lat="45.85925" lon="4.78008">
        <ele>408</ele>
        <time>2014-11-16T11:39:42Z</time>
      </trkpt>
      <trkpt lat="45.85933" lon="4.78007">
        <ele>410</ele>
        <time>2014-11-16T11:39:45Z</time>
      </trkpt>
      <trkpt lat="45.85938" lon="4.78007">
        <ele>411</ele>
        <time>2014-11-16T11:39:47Z</time>
      </trkpt>
      <trkpt lat="45.85949" lon="4.78005">
        <ele>412</ele>
        <time>2014-11-16T11:39:51Z</time>
      </trkpt>
      <trkpt lat="45.85957" lon="4.78003">
        <ele>413</ele>
        <time>2014-11-16T11:39:54Z</time>
      </trkpt>
      <trkpt lat="45.85964" lon="4.78004">
        <ele>413</ele>
        <time>2014-11-16T11:39:57Z</time>
      </trkpt>
      <trkpt lat="45.85972" lon="4.78008">
        <ele>413</ele>
        <time>2014-11-16T11:40:02Z</time>
      </trkpt>
      <trkpt lat="45.85975" lon="4.78009">
        <ele>413</ele>
        <time>2014-11-16T11:40:04Z</time>
      </trkpt>
      <trkpt lat="45.8598" lon="4.78009">
        <ele>412</ele>
        <time>2014-11-16T11:40:09Z</time>
      </trkpt>
      <trkpt lat="45.85988" lon="4.78008">
        <ele>410</ele>
        <time>2014-11-16T11:40:15Z</time>
      </trkpt>
      <trkpt lat="45.85991" lon="4.78008">
        <ele>410</ele>
        <time>2014-11-16T11:40:17Z</time>
      </trkpt>
      <trkpt lat="45.85994" lon="4.78009">
        <ele>409</ele>
        <time>2014-11-16T11:40:19Z</time>
      </trkpt>
      <trkpt lat="45.85995" lon="4.78009">
        <ele>409</ele>
        <time>2014-11-16T11:40:20Z</time>
      </trkpt>
      <trkpt lat="45.86006" lon="4.78012">
        <ele>414</ele>
        <time>2014-11-16T11:40:28Z</time>
      </trkpt>
      <trkpt lat="45.86006" lon="4.78012">
        <ele>414</ele>
        <time>2014-11-16T11:40:29Z</time>
      </trkpt>
      <trkpt lat="45.8601" lon="4.78013">
        <ele>416</ele>
        <time>2014-11-16T11:40:32Z</time>
      </trkpt>
      <trkpt lat="45.86012" lon="4.78014">
        <ele>417</ele>
        <time>2014-11-16T11:40:33Z</time>
      </trkpt>
      <trkpt lat="45.86013" lon="4.78015">
        <ele>417</ele>
        <time>2014-11-16T11:40:34Z</time>
      </trkpt>
      <trkpt lat="45.86022" lon="4.78014">
        <ele>420</ele>
        <time>2014-11-16T11:40:40Z</time>
      </trkpt>
      <trkpt lat="45.86031" lon="4.78011">
        <ele>421</ele>
        <time>2014-11-16T11:40:46Z</time>
      </trkpt>
      <trkpt lat="45.86033" lon="4.78011">
        <ele>422</ele>
        <time>2014-11-16T11:40:48Z</time>
      </trkpt>
      <trkpt lat="45.86039" lon="4.7801">
        <ele>423</ele>
        <time>2014-11-16T11:40:53Z</time>
      </trkpt>
      <trkpt lat="45.86041" lon="4.78005">
        <ele>423</ele>
        <time>2014-11-16T11:41:00Z</time>
      </trkpt>
      <trkpt lat="45.86047" lon="4.77999">
        <ele>405</ele>
        <time>2014-11-16T11:41:05Z</time>
      </trkpt>
      <trkpt lat="45.8605" lon="4.77998">
        <ele>405</ele>
        <time>2014-11-16T11:41:10Z</time>
      </trkpt>
      <trkpt lat="45.86055" lon="4.77996">
        <ele>406</ele>
        <time>2014-11-16T11:41:16Z</time>
      </trkpt>
      <trkpt lat="45.86059" lon="4.77996">
        <ele>408</ele>
        <time>2014-11-16T11:41:20Z</time>
      </trkpt>
      <trkpt lat="45.86061" lon="4.77995">
        <ele>408</ele>
        <time>2014-11-16T11:41:21Z</time>
      </trkpt>
      <trkpt lat="45.86064" lon="4.77993">
        <ele>409</ele>
        <time>2014-11-16T11:41:24Z</time>
      </trkpt>
      <trkpt lat="45.8607" lon="4.77988">
        <ele>409</ele>
        <time>2014-11-16T11:41:28Z</time>
      </trkpt>
      <trkpt lat="45.86072" lon="4.77978">
        <ele>406</ele>
        <time>2014-11-16T11:41:33Z</time>
      </trkpt>
      <trkpt lat="45.8607" lon="4.77973">
        <ele>404</ele>
        <time>2014-11-16T11:41:35Z</time>
      </trkpt>
      <trkpt lat="45.8607" lon="4.7797">
        <ele>404</ele>
        <time>2014-11-16T11:41:36Z</time>
      </trkpt>
      <trkpt lat="45.86071" lon="4.77967">
        <ele>403</ele>
        <time>2014-11-16T11:41:37Z</time>
      </trkpt>
      <trkpt lat="45.86072" lon="4.77964">
        <ele>402</ele>
        <time>2014-11-16T11:41:40Z</time>
      </trkpt>
      <trkpt lat="45.86072" lon="4.77961">
        <ele>401</ele>
        <time>2014-11-16T11:41:41Z</time>
      </trkpt>
      <trkpt lat="45.86074" lon="4.77954">
        <ele>399</ele>
        <time>2014-11-16T11:41:44Z</time>
      </trkpt>
      <trkpt lat="45.86074" lon="4.77954">
        <ele>399</ele>
        <time>2014-11-16T11:41:45Z</time>
      </trkpt>
      <trkpt lat="45.86076" lon="4.77955">
        <ele>400</ele>
        <time>2014-11-16T11:41:49Z</time>
      </trkpt>
      <trkpt lat="45.86076" lon="4.77955">
        <ele>400</ele>
        <time>2014-11-16T11:41:55Z</time>
      </trkpt>
      <trkpt lat="45.86072" lon="4.77952">
        <ele>399</ele>
        <time>2014-11-16T11:42:23Z</time>
      </trkpt>
      <trkpt lat="45.86074" lon="4.77951">
        <ele>399</ele>
        <time>2014-11-16T11:42:38Z</time>
      </trkpt>
      <trkpt lat="45.86077" lon="4.77952">
        <ele>399</ele>
        <time>2014-11-16T11:42:40Z</time>
      </trkpt>
      <trkpt lat="45.86079" lon="4.77953">
        <ele>399</ele>
        <time>2014-11-16T11:42:42Z</time>
      </trkpt>
      <trkpt lat="45.8608" lon="4.77953">
        <ele>399</ele>
        <time>2014-11-16T11:42:43Z</time>
      </trkpt>
      <trkpt lat="45.86082" lon="4.77952">
        <ele>399</ele>
        <time>2014-11-16T11:42:44Z</time>
      </trkpt>
      <trkpt lat="45.86086" lon="4.7795">
        <ele>403</ele>
        <time>2014-11-16T11:42:48Z</time>
      </trkpt>
      <trkpt lat="45.86087" lon="4.7795">
        <ele>403</ele>
        <time>2014-11-16T11:42:49Z</time>
      </trkpt>
      <trkpt lat="45.86089" lon="4.77949">
        <ele>403</ele>
        <time>2014-11-16T11:42:50Z</time>
      </trkpt>
      <trkpt lat="45.8609" lon="4.77947">
        <ele>402</ele>
        <time>2014-11-16T11:42:52Z</time>
      </trkpt>
      <trkpt lat="45.86091" lon="4.77946">
        <ele>401</ele>
        <time>2014-11-16T11:42:53Z</time>
      </trkpt>
      <trkpt lat="45.86097" lon="4.77941">
        <ele>400</ele>
        <time>2014-11-16T11:42:57Z</time>
      </trkpt>
      <trkpt lat="45.86097" lon="4.7794">
        <ele>400</ele>
        <time>2014-11-16T11:42:58Z</time>
      </trkpt>
      <trkpt lat="45.86095" lon="4.77935">
        <ele>398</ele>
        <time>2014-11-16T11:43:02Z</time>
      </trkpt>
      <trkpt lat="45.86095" lon="4.77932">
        <ele>398</ele>
        <time>2014-11-16T11:43:04Z</time>
      </trkpt>
      <trkpt lat="45.86097" lon="4.77929">
        <ele>397</ele>
        <time>2014-11-16T11:43:07Z</time>
      </trkpt>
      <trkpt lat="45.86098" lon="4.77928">
        <ele>397</ele>
        <time>2014-11-16T11:43:09Z</time>
      </trkpt>
      <trkpt lat="45.86099" lon="4.77927">
        <ele>397</ele>
        <time>2014-11-16T11:43:11Z</time>
      </trkpt>
      <trkpt lat="45.86101" lon="4.77926">
        <ele>397</ele>
        <time>2014-11-16T11:43:12Z</time>
      </trkpt>
      <trkpt lat="45.86103" lon="4.77921">
        <ele>397</ele>
        <time>2014-11-16T11:43:16Z</time>
      </trkpt>
      <trkpt lat="45.86104" lon="4.77911">
        <ele>382</ele>
        <time>2014-11-16T11:43:21Z</time>
      </trkpt>
      <trkpt lat="45.86102" lon="4.77905">
        <ele>381</ele>
        <time>2014-11-16T11:43:24Z</time>
      </trkpt>
      <trkpt lat="45.86102" lon="4.77904">
        <ele>381</ele>
        <time>2014-11-16T11:43:25Z</time>
      </trkpt>
      <trkpt lat="45.86103" lon="4.77901">
        <ele>381</ele>
        <time>2014-11-16T11:43:28Z</time>
      </trkpt>
      <trkpt lat="45.86105" lon="4.77901">
        <ele>381</ele>
        <time>2014-11-16T11:43:30Z</time>
      </trkpt>
      <trkpt lat="45.86107" lon="4.77887">
        <ele>378</ele>
        <time>2014-11-16T11:43:39Z</time>
      </trkpt>
      <trkpt lat="45.8611" lon="4.7788">
        <ele>377</ele>
        <time>2014-11-16T11:43:51Z</time>
      </trkpt>
      <trkpt lat="45.86109" lon="4.77875">
        <ele>376</ele>
        <time>2014-11-16T11:43:55Z</time>
      </trkpt>
      <trkpt lat="45.86108" lon="4.77874">
        <ele>376</ele>
        <time>2014-11-16T11:43:56Z</time>
      </trkpt>
      <trkpt lat="45.86108" lon="4.77872">
        <ele>376</ele>
        <time>2014-11-16T11:43:57Z</time>
      </trkpt>
      <trkpt lat="45.86106" lon="4.77864">
        <ele>374</ele>
        <time>2014-11-16T11:44:01Z</time>
      </trkpt>
      <trkpt lat="45.86106" lon="4.7786">
        <ele>373</ele>
        <time>2014-11-16T11:44:04Z</time>
      </trkpt>
      <trkpt lat="45.86105" lon="4.77857">
        <ele>373</ele>
        <time>2014-11-16T11:44:06Z</time>
      </trkpt>
      <trkpt lat="45.86104" lon="4.77857">
        <ele>373</ele>
        <time>2014-11-16T11:44:07Z</time>
      </trkpt>
      <trkpt lat="45.861" lon="4.77853">
        <ele>371</ele>
        <time>2014-11-16T11:44:12Z</time>
      </trkpt>
      <trkpt lat="45.86098" lon="4.77853">
        <ele>371</ele>
        <time>2014-11-16T11:44:14Z</time>
      </trkpt>
      <trkpt lat="45.86097" lon="4.77852">
        <ele>371</ele>
        <time>2014-11-16T11:44:15Z</time>
      </trkpt>
      <trkpt lat="45.86096" lon="4.77848">
        <ele>369</ele>
        <time>2014-11-16T11:44:18Z</time>
      </trkpt>
      <trkpt lat="45.86098" lon="4.77844">
        <ele>369</ele>
        <time>2014-11-16T11:44:22Z</time>
      </trkpt>
      <trkpt lat="45.86099" lon="4.77843">
        <ele>369</ele>
        <time>2014-11-16T11:44:24Z</time>
      </trkpt>
      <trkpt lat="45.86102" lon="4.77838">
        <ele>369</ele>
        <time>2014-11-16T11:44:28Z</time>
      </trkpt>
      <trkpt lat="45.86105" lon="4.77835">
        <ele>369</ele>
        <time>2014-11-16T11:44:31Z</time>
      </trkpt>
      <trkpt lat="45.86108" lon="4.77832">
        <ele>358</ele>
        <time>2014-11-16T11:44:34Z</time>
      </trkpt>
      <trkpt lat="45.86109" lon="4.77829">
        <ele>358</ele>
        <time>2014-11-16T11:44:36Z</time>
      </trkpt>
      <trkpt lat="45.86113" lon="4.77824">
        <ele>358</ele>
        <time>2014-11-16T11:44:40Z</time>
      </trkpt>
      <trkpt lat="45.86116" lon="4.7782">
        <ele>357</ele>
        <time>2014-11-16T11:44:43Z</time>
      </trkpt>
      <trkpt lat="45.86121" lon="4.77813">
        <ele>357</ele>
        <time>2014-11-16T11:44:46Z</time>
      </trkpt>
      <trkpt lat="45.86122" lon="4.77812">
        <ele>357</ele>
        <time>2014-11-16T11:44:47Z</time>
      </trkpt>
      <trkpt lat="45.86125" lon="4.7781">
        <ele>357</ele>
        <time>2014-11-16T11:44:49Z</time>
      </trkpt>
      <trkpt lat="45.86131" lon="4.77802">
        <ele>356</ele>
        <time>2014-11-16T11:44:53Z</time>
      </trkpt>
      <trkpt lat="45.86137" lon="4.77796">
        <ele>356</ele>
        <time>2014-11-16T11:44:57Z</time>
      </trkpt>
      <trkpt lat="45.86138" lon="4.77794">
        <ele>356</ele>
        <time>2014-11-16T11:44:58Z</time>
      </trkpt>
      <trkpt lat="45.86147" lon="4.77781">
        <ele>354</ele>
        <time>2014-11-16T11:45:03Z</time>
      </trkpt>
      <trkpt lat="45.86152" lon="4.77776">
        <ele>353</ele>
        <time>2014-11-16T11:45:05Z</time>
      </trkpt>
      <trkpt lat="45.86157" lon="4.77771">
        <ele>352</ele>
        <time>2014-11-16T11:45:08Z</time>
      </trkpt>
      <trkpt lat="45.86162" lon="4.77765">
        <ele>350</ele>
        <time>2014-11-16T11:45:14Z</time>
      </trkpt>
      <trkpt lat="45.86164" lon="4.77756">
        <ele>348</ele>
        <time>2014-11-16T11:45:23Z</time>
      </trkpt>
      <trkpt lat="45.86165" lon="4.77752">
        <ele>347</ele>
        <time>2014-11-16T11:45:25Z</time>
      </trkpt>
      <trkpt lat="45.86169" lon="4.77743">
        <ele>345</ele>
        <time>2014-11-16T11:45:29Z</time>
      </trkpt>
      <trkpt lat="45.86162" lon="4.77728">
        <ele>348</ele>
        <time>2014-11-16T11:45:44Z</time>
      </trkpt>
      <trkpt lat="45.86165" lon="4.77724">
        <ele>349</ele>
        <time>2014-11-16T11:45:48Z</time>
      </trkpt>
      <trkpt lat="45.8617" lon="4.77722">
        <ele>344</ele>
        <time>2014-11-16T11:45:50Z</time>
      </trkpt>
      <trkpt lat="45.86177" lon="4.77719">
        <ele>344</ele>
        <time>2014-11-16T11:45:53Z</time>
      </trkpt>
      <trkpt lat="45.86181" lon="4.77717">
        <ele>344</ele>
        <time>2014-11-16T11:45:56Z</time>
      </trkpt>
      <trkpt lat="45.86181" lon="4.77717">
        <ele>343</ele>
        <time>2014-11-16T11:45:58Z</time>
      </trkpt>
      <trkpt lat="45.86183" lon="4.77714">
        <ele>343</ele>
        <time>2014-11-16T11:46:01Z</time>
      </trkpt>
      <trkpt lat="45.86185" lon="4.77711">
        <ele>343</ele>
        <time>2014-11-16T11:46:03Z</time>
      </trkpt>
      <trkpt lat="45.86186" lon="4.77708">
        <ele>343</ele>
        <time>2014-11-16T11:46:06Z</time>
      </trkpt>
      <trkpt lat="45.86187" lon="4.77697">
        <ele>343</ele>
        <time>2014-11-16T11:46:13Z</time>
      </trkpt>
      <trkpt lat="45.8619" lon="4.77693">
        <ele>343</ele>
        <time>2014-11-16T11:46:17Z</time>
      </trkpt>
      <trkpt lat="45.86192" lon="4.7769">
        <ele>343</ele>
        <time>2014-11-16T11:46:20Z</time>
      </trkpt>
      <trkpt lat="45.86193" lon="4.77685">
        <ele>343</ele>
        <time>2014-11-16T11:46:23Z</time>
      </trkpt>
      <trkpt lat="45.86194" lon="4.7768">
        <ele>343</ele>
        <time>2014-11-16T11:46:26Z</time>
      </trkpt>
      <trkpt lat="45.86196" lon="4.77672">
        <ele>343</ele>
        <time>2014-11-16T11:46:31Z</time>
      </trkpt>
      <trkpt lat="45.86199" lon="4.77665">
        <ele>349</ele>
        <time>2014-11-16T11:46:36Z</time>
      </trkpt>
      <trkpt lat="45.86199" lon="4.77665">
        <ele>349</ele>
        <time>2014-11-16T11:46:37Z</time>
      </trkpt>
      <trkpt lat="45.86206" lon="4.77655">
        <ele>349</ele>
        <time>2014-11-16T11:46:43Z</time>
      </trkpt>
      <trkpt lat="45.86207" lon="4.77653">
        <ele>350</ele>
        <time>2014-11-16T11:46:44Z</time>
      </trkpt>
      <trkpt lat="45.86217" lon="4.77646">
        <ele>349</ele>
        <time>2014-11-16T11:46:50Z</time>
      </trkpt>
      <trkpt lat="45.86221" lon="4.77643">
        <ele>349</ele>
        <time>2014-11-16T11:46:52Z</time>
      </trkpt>
      <trkpt lat="45.8623" lon="4.77642">
        <ele>348</ele>
        <time>2014-11-16T11:46:55Z</time>
      </trkpt>
      <trkpt lat="45.86232" lon="4.77641">
        <ele>348</ele>
        <time>2014-11-16T11:46:57Z</time>
      </trkpt>
      <trkpt lat="45.86234" lon="4.77639">
        <ele>348</ele>
        <time>2014-11-16T11:46:59Z</time>
      </trkpt>
      <trkpt lat="45.86234" lon="4.77637">
        <ele>349</ele>
        <time>2014-11-16T11:47:03Z</time>
      </trkpt>
      <trkpt lat="45.86235" lon="4.77636">
        <ele>349</ele>
        <time>2014-11-16T11:47:04Z</time>
      </trkpt>
      <trkpt lat="45.86235" lon="4.77635">
        <ele>349</ele>
        <time>2014-11-16T11:47:05Z</time>
      </trkpt>
      <trkpt lat="45.86236" lon="4.77633">
        <ele>350</ele>
        <time>2014-11-16T11:47:07Z</time>
      </trkpt>
      <trkpt lat="45.86236" lon="4.77632">
        <ele>350</ele>
        <time>2014-11-16T11:47:08Z</time>
      </trkpt>
      <trkpt lat="45.86237" lon="4.77629">
        <ele>351</ele>
        <time>2014-11-16T11:47:10Z</time>
      </trkpt>
      <trkpt lat="45.86238" lon="4.77626">
        <ele>351</ele>
        <time>2014-11-16T11:47:12Z</time>
      </trkpt>
      <trkpt lat="45.86238" lon="4.77624">
        <ele>352</ele>
        <time>2014-11-16T11:47:13Z</time>
      </trkpt>
      <trkpt lat="45.86239" lon="4.7762">
        <ele>352</ele>
        <time>2014-11-16T11:47:16Z</time>
      </trkpt>
      <trkpt lat="45.8624" lon="4.77619">
        <ele>353</ele>
        <time>2014-11-16T11:47:18Z</time>
      </trkpt>
      <trkpt lat="45.86241" lon="4.77617">
        <ele>353</ele>
        <time>2014-11-16T11:47:20Z</time>
      </trkpt>
      <trkpt lat="45.86243" lon="4.77614">
        <ele>354</ele>
        <time>2014-11-16T11:47:24Z</time>
      </trkpt>
      <trkpt lat="45.86244" lon="4.77612">
        <ele>354</ele>
        <time>2014-11-16T11:47:25Z</time>
      </trkpt>
      <trkpt lat="45.86247" lon="4.77608">
        <ele>355</ele>
        <time>2014-11-16T11:47:30Z</time>
      </trkpt>
      <trkpt lat="45.86249" lon="4.77604">
        <ele>355</ele>
        <time>2014-11-16T11:47:33Z</time>
      </trkpt>
      <trkpt lat="45.86249" lon="4.776">
        <ele>356</ele>
        <time>2014-11-16T11:47:36Z</time>
      </trkpt>
      <trkpt lat="45.86249" lon="4.77598">
        <ele>357</ele>
        <time>2014-11-16T11:47:40Z</time>
      </trkpt>
      <trkpt lat="45.86252" lon="4.77596">
        <ele>354</ele>
        <time>2014-11-16T11:47:46Z</time>
      </trkpt>
      <trkpt lat="45.86252" lon="4.77592">
        <ele>355</ele>
        <time>2014-11-16T11:47:51Z</time>
      </trkpt>
      <trkpt lat="45.86254" lon="4.77588">
        <ele>357</ele>
        <time>2014-11-16T11:48:01Z</time>
      </trkpt>
      <trkpt lat="45.86254" lon="4.77586">
        <ele>357</ele>
        <time>2014-11-16T11:48:11Z</time>
      </trkpt>
      <trkpt lat="45.86255" lon="4.77583">
        <ele>361</ele>
        <time>2014-11-16T11:48:16Z</time>
      </trkpt>
      <trkpt lat="45.86255" lon="4.77582">
        <ele>362</ele>
        <time>2014-11-16T11:48:17Z</time>
      </trkpt>
      <trkpt lat="45.86256" lon="4.77581">
        <ele>362</ele>
        <time>2014-11-16T11:48:20Z</time>
      </trkpt>
      <trkpt lat="45.86256" lon="4.77582">
        <ele>362</ele>
        <time>2014-11-16T11:48:33Z</time>
      </trkpt>
      <trkpt lat="45.86256" lon="4.77581">
        <ele>362</ele>
        <time>2014-11-16T11:48:37Z</time>
      </trkpt>
      <trkpt lat="45.86257" lon="4.77579">
        <ele>362</ele>
        <time>2014-11-16T11:48:39Z</time>
      </trkpt>
      <trkpt lat="45.86259" lon="4.77576">
        <ele>363</ele>
        <time>2014-11-16T11:48:45Z</time>
      </trkpt>
      <trkpt lat="45.8626" lon="4.77576">
        <ele>363</ele>
        <time>2014-11-16T11:48:51Z</time>
      </trkpt>
      <trkpt lat="45.86261" lon="4.77571">
        <ele>364</ele>
        <time>2014-11-16T11:49:08Z</time>
      </trkpt>
      <trkpt lat="45.86264" lon="4.77569">
        <ele>364</ele>
        <time>2014-11-16T11:49:15Z</time>
      </trkpt>
      <trkpt lat="45.86269" lon="4.7757">
        <ele>365</ele>
        <time>2014-11-16T11:49:20Z</time>
      </trkpt>
      <trkpt lat="45.86277" lon="4.77572">
        <ele>365</ele>
        <time>2014-11-16T11:49:26Z</time>
      </trkpt>
      <trkpt lat="45.86279" lon="4.77572">
        <ele>365</ele>
        <time>2014-11-16T11:49:27Z</time>
      </trkpt>
      <trkpt lat="45.86282" lon="4.77574">
        <ele>365</ele>
        <time>2014-11-16T11:49:29Z</time>
      </trkpt>
      <trkpt lat="45.86286" lon="4.77574">
        <ele>365</ele>
        <time>2014-11-16T11:49:32Z</time>
      </trkpt>
      <trkpt lat="45.86295" lon="4.77575">
        <ele>364</ele>
        <time>2014-11-16T11:49:37Z</time>
      </trkpt>
      <trkpt lat="45.86297" lon="4.77574">
        <ele>364</ele>
        <time>2014-11-16T11:49:38Z</time>
      </trkpt>
      <trkpt lat="45.86301" lon="4.77574">
        <ele>364</ele>
        <time>2014-11-16T11:49:40Z</time>
      </trkpt>
      <trkpt lat="45.86307" lon="4.77573">
        <ele>363</ele>
        <time>2014-11-16T11:49:43Z</time>
      </trkpt>
      <trkpt lat="45.86315" lon="4.7757">
        <ele>362</ele>
        <time>2014-11-16T11:49:47Z</time>
      </trkpt>
      <trkpt lat="45.86317" lon="4.77569">
        <ele>362</ele>
        <time>2014-11-16T11:49:48Z</time>
      </trkpt>
      <trkpt lat="45.8632" lon="4.77568">
        <ele>362</ele>
        <time>2014-11-16T11:49:50Z</time>
      </trkpt>
      <trkpt lat="45.86326" lon="4.77565">
        <ele>362</ele>
        <time>2014-11-16T11:49:54Z</time>
      </trkpt>
      <trkpt lat="45.86334" lon="4.7756">
        <ele>358</ele>
        <time>2014-11-16T11:50:00Z</time>
      </trkpt>
      <trkpt lat="45.86338" lon="4.77558">
        <ele>358</ele>
        <time>2014-11-16T11:50:04Z</time>
      </trkpt>
      <trkpt lat="45.8634" lon="4.77558">
        <ele>358</ele>
        <time>2014-11-16T11:50:06Z</time>
      </trkpt>
      <trkpt lat="45.86347" lon="4.77554">
        <ele>358</ele>
        <time>2014-11-16T11:50:11Z</time>
      </trkpt>
      <trkpt lat="45.86351" lon="4.77552">
        <ele>358</ele>
        <time>2014-11-16T11:50:13Z</time>
      </trkpt>
      <trkpt lat="45.86355" lon="4.77551">
        <ele>358</ele>
        <time>2014-11-16T11:50:16Z</time>
      </trkpt>
      <trkpt lat="45.86357" lon="4.77549">
        <ele>358</ele>
        <time>2014-11-16T11:50:18Z</time>
      </trkpt>
      <trkpt lat="45.86362" lon="4.77547">
        <ele>358</ele>
        <time>2014-11-16T11:50:22Z</time>
      </trkpt>
      <trkpt lat="45.86365" lon="4.77544">
        <ele>358</ele>
        <time>2014-11-16T11:50:25Z</time>
      </trkpt>
      <trkpt lat="45.86366" lon="4.77544">
        <ele>358</ele>
        <time>2014-11-16T11:50:26Z</time>
      </trkpt>
      <trkpt lat="45.86368" lon="4.77544">
        <ele>358</ele>
        <time>2014-11-16T11:50:27Z</time>
      </trkpt>
      <trkpt lat="45.8637" lon="4.77543">
        <ele>358</ele>
        <time>2014-11-16T11:50:30Z</time>
      </trkpt>
      <trkpt lat="45.86376" lon="4.77538">
        <ele>358</ele>
        <time>2014-11-16T11:50:37Z</time>
      </trkpt>
      <trkpt lat="45.86382" lon="4.77532">
        <ele>358</ele>
        <time>2014-11-16T11:50:43Z</time>
      </trkpt>
      <trkpt lat="45.86384" lon="4.77531">
        <ele>358</ele>
        <time>2014-11-16T11:50:45Z</time>
      </trkpt>
      <trkpt lat="45.86388" lon="4.77528">
        <ele>358</ele>
        <time>2014-11-16T11:50:48Z</time>
      </trkpt>
      <trkpt lat="45.8639" lon="4.77527">
        <ele>358</ele>
        <time>2014-11-16T11:50:49Z</time>
      </trkpt>
      <trkpt lat="45.86394" lon="4.77527">
        <ele>357</ele>
        <time>2014-11-16T11:50:53Z</time>
      </trkpt>
      <trkpt lat="45.86395" lon="4.77527">
        <ele>357</ele>
        <time>2014-11-16T11:50:54Z</time>
      </trkpt>
      <trkpt lat="45.86401" lon="4.77523">
        <ele>357</ele>
        <time>2014-11-16T11:50:59Z</time>
      </trkpt>
      <trkpt lat="45.86403" lon="4.77523">
        <ele>357</ele>
        <time>2014-11-16T11:51:00Z</time>
      </trkpt>
      <trkpt lat="45.86405" lon="4.77523">
        <ele>357</ele>
        <time>2014-11-16T11:51:01Z</time>
      </trkpt>
      <trkpt lat="45.86414" lon="4.77529">
        <ele>356</ele>
        <time>2014-11-16T11:51:05Z</time>
      </trkpt>
      <trkpt lat="45.86417" lon="4.77531">
        <ele>349</ele>
        <time>2014-11-16T11:51:06Z</time>
      </trkpt>
      <trkpt lat="45.86423" lon="4.77535">
        <ele>348</ele>
        <time>2014-11-16T11:51:09Z</time>
      </trkpt>
      <trkpt lat="45.8643" lon="4.77534">
        <ele>348</ele>
        <time>2014-11-16T11:51:11Z</time>
      </trkpt>
      <trkpt lat="45.86433" lon="4.77532">
        <ele>348</ele>
        <time>2014-11-16T11:51:12Z</time>
      </trkpt>
      <trkpt lat="45.86436" lon="4.7753">
        <ele>348</ele>
        <time>2014-11-16T11:51:13Z</time>
      </trkpt>
      <trkpt lat="45.86444" lon="4.77526">
        <ele>348</ele>
        <time>2014-11-16T11:51:18Z</time>
      </trkpt>
      <trkpt lat="45.86445" lon="4.77526">
        <ele>348</ele>
        <time>2014-11-16T11:51:20Z</time>
      </trkpt>
      <trkpt lat="45.86448" lon="4.77526">
        <ele>347</ele>
        <time>2014-11-16T11:51:25Z</time>
      </trkpt>
      <trkpt lat="45.86449" lon="4.77525">
        <ele>347</ele>
        <time>2014-11-16T11:51:27Z</time>
      </trkpt>
      <trkpt lat="45.86451" lon="4.77523">
        <ele>347</ele>
        <time>2014-11-16T11:51:29Z</time>
      </trkpt>
      <trkpt lat="45.86453" lon="4.77522">
        <ele>347</ele>
        <time>2014-11-16T11:51:30Z</time>
      </trkpt>
      <trkpt lat="45.86461" lon="4.77516">
        <ele>347</ele>
        <time>2014-11-16T11:51:35Z</time>
      </trkpt>
      <trkpt lat="45.8647" lon="4.77515">
        <ele>346</ele>
        <time>2014-11-16T11:51:38Z</time>
      </trkpt>
      <trkpt lat="45.86472" lon="4.77514">
        <ele>346</ele>
        <time>2014-11-16T11:51:39Z</time>
      </trkpt>
      <trkpt lat="45.86475" lon="4.77513">
        <ele>346</ele>
        <time>2014-11-16T11:51:40Z</time>
      </trkpt>
      <trkpt lat="45.86488" lon="4.77512">
        <ele>346</ele>
        <time>2014-11-16T11:51:44Z</time>
      </trkpt>
      <trkpt lat="45.86491" lon="4.77512">
        <ele>346</ele>
        <time>2014-11-16T11:51:45Z</time>
      </trkpt>
      <trkpt lat="45.86504" lon="4.77508">
        <ele>341</ele>
        <time>2014-11-16T11:51:49Z</time>
      </trkpt>
      <trkpt lat="45.8651" lon="4.77508">
        <ele>340</ele>
        <time>2014-11-16T11:51:51Z</time>
      </trkpt>
      <trkpt lat="45.86515" lon="4.77509">
        <ele>338</ele>
        <time>2014-11-16T11:51:53Z</time>
      </trkpt>
      <trkpt lat="45.86526" lon="4.77505">
        <ele>336</ele>
        <time>2014-11-16T11:51:58Z</time>
      </trkpt>
      <trkpt lat="45.86529" lon="4.77505">
        <ele>336</ele>
        <time>2014-11-16T11:51:59Z</time>
      </trkpt>
      <trkpt lat="45.86539" lon="4.77499">
        <ele>337</ele>
        <time>2014-11-16T11:52:03Z</time>
      </trkpt>
      <trkpt lat="45.86546" lon="4.77498">
        <ele>336</ele>
        <time>2014-11-16T11:52:05Z</time>
      </trkpt>
      <trkpt lat="45.86551" lon="4.77496">
        <ele>336</ele>
        <time>2014-11-16T11:52:07Z</time>
      </trkpt>
      <trkpt lat="45.86556" lon="4.77494">
        <ele>335</ele>
        <time>2014-11-16T11:52:09Z</time>
      </trkpt>
      <trkpt lat="45.86563" lon="4.77491">
        <ele>334</ele>
        <time>2014-11-16T11:52:13Z</time>
      </trkpt>
      <trkpt lat="45.86565" lon="4.7749">
        <ele>334</ele>
        <time>2014-11-16T11:52:14Z</time>
      </trkpt>
      <trkpt lat="45.86568" lon="4.77487">
        <ele>334</ele>
        <time>2014-11-16T11:52:17Z</time>
      </trkpt>
      <trkpt lat="45.86568" lon="4.77486">
        <ele>334</ele>
        <time>2014-11-16T11:52:18Z</time>
      </trkpt>
      <trkpt lat="45.86568" lon="4.77481">
        <ele>334</ele>
        <time>2014-11-16T11:52:23Z</time>
      </trkpt>
      <trkpt lat="45.86567" lon="4.77472">
        <ele>335</ele>
        <time>2014-11-16T11:52:28Z</time>
      </trkpt>
      <trkpt lat="45.8657" lon="4.77467">
        <ele>334</ele>
        <time>2014-11-16T11:52:30Z</time>
      </trkpt>
      <trkpt lat="45.8657" lon="4.77461">
        <ele>335</ele>
        <time>2014-11-16T11:52:33Z</time>
      </trkpt>
      <trkpt lat="45.86571" lon="4.77455">
        <ele>334</ele>
        <time>2014-11-16T11:52:39Z</time>
      </trkpt>
      <trkpt lat="45.86575" lon="4.77448">
        <ele>334</ele>
        <time>2014-11-16T11:52:44Z</time>
      </trkpt>
      <trkpt lat="45.86574" lon="4.77443">
        <ele>334</ele>
        <time>2014-11-16T11:52:47Z</time>
      </trkpt>
      <trkpt lat="45.86573" lon="4.77441">
        <ele>334</ele>
        <time>2014-11-16T11:52:48Z</time>
      </trkpt>
      <trkpt lat="45.86573" lon="4.7744">
        <ele>334</ele>
        <time>2014-11-16T11:52:49Z</time>
      </trkpt>
      <trkpt lat="45.86573" lon="4.77441">
        <ele>334</ele>
        <time>2014-11-16T11:52:54Z</time>
      </trkpt>
      <trkpt lat="45.86577" lon="4.77446">
        <ele>334</ele>
        <time>2014-11-16T11:52:59Z</time>
      </trkpt>
      <trkpt lat="45.86583" lon="4.7745">
        <ele>334</ele>
        <time>2014-11-16T11:53:03Z</time>
      </trkpt>
      <trkpt lat="45.86584" lon="4.77453">
        <ele>326</ele>
        <time>2014-11-16T11:53:04Z</time>
      </trkpt>
      <trkpt lat="45.86588" lon="4.77464">
        <ele>326</ele>
        <time>2014-11-16T11:53:08Z</time>
      </trkpt>
      <trkpt lat="45.86591" lon="4.77468">
        <ele>326</ele>
        <time>2014-11-16T11:53:11Z</time>
      </trkpt>
      <trkpt lat="45.86595" lon="4.77472">
        <ele>326</ele>
        <time>2014-11-16T11:53:13Z</time>
      </trkpt>
      <trkpt lat="45.86597" lon="4.77472">
        <ele>326</ele>
        <time>2014-11-16T11:53:14Z</time>
      </trkpt>
      <trkpt lat="45.86602" lon="4.77468">
        <ele>325</ele>
        <time>2014-11-16T11:53:17Z</time>
      </trkpt>
      <trkpt lat="45.86614" lon="4.77458">
        <ele>324</ele>
        <time>2014-11-16T11:53:21Z</time>
      </trkpt>
      <trkpt lat="45.8662" lon="4.77453">
        <ele>324</ele>
        <time>2014-11-16T11:53:23Z</time>
      </trkpt>
      <trkpt lat="45.86633" lon="4.77444">
        <ele>323</ele>
        <time>2014-11-16T11:53:27Z</time>
      </trkpt>
      <trkpt lat="45.86636" lon="4.77442">
        <ele>322</ele>
        <time>2014-11-16T11:53:28Z</time>
      </trkpt>
      <trkpt lat="45.86647" lon="4.77435">
        <ele>321</ele>
        <time>2014-11-16T11:53:31Z</time>
      </trkpt>
      <trkpt lat="45.86651" lon="4.77431">
        <ele>321</ele>
        <time>2014-11-16T11:53:33Z</time>
      </trkpt>
      <trkpt lat="45.86655" lon="4.77427">
        <ele>320</ele>
        <time>2014-11-16T11:53:35Z</time>
      </trkpt>
      <trkpt lat="45.86665" lon="4.77419">
        <ele>318</ele>
        <time>2014-11-16T11:53:39Z</time>
      </trkpt>
      <trkpt lat="45.86667" lon="4.77414">
        <ele>317</ele>
        <time>2014-11-16T11:53:40Z</time>
      </trkpt>
      <trkpt lat="45.86678" lon="4.77397">
        <ele>313</ele>
        <time>2014-11-16T11:53:44Z</time>
      </trkpt>
      <trkpt lat="45.8668" lon="4.77393">
        <ele>313</ele>
        <time>2014-11-16T11:53:45Z</time>
      </trkpt>
      <trkpt lat="45.86682" lon="4.77385">
        <ele>312</ele>
        <time>2014-11-16T11:53:47Z</time>
      </trkpt>
      <trkpt lat="45.86683" lon="4.77381">
        <ele>312</ele>
        <time>2014-11-16T11:53:48Z</time>
      </trkpt>
      <trkpt lat="45.86685" lon="4.77367">
        <ele>311</ele>
        <time>2014-11-16T11:53:51Z</time>
      </trkpt>
      <trkpt lat="45.86689" lon="4.77355">
        <ele>311</ele>
        <time>2014-11-16T11:53:54Z</time>
      </trkpt>
      <trkpt lat="45.86691" lon="4.77347">
        <ele>310</ele>
        <time>2014-11-16T11:53:57Z</time>
      </trkpt>
      <trkpt lat="45.86692" lon="4.77345">
        <ele>310</ele>
        <time>2014-11-16T11:53:58Z</time>
      </trkpt>
      <trkpt lat="45.86691" lon="4.7734">
        <ele>310</ele>
        <time>2014-11-16T11:54:01Z</time>
      </trkpt>
      <trkpt lat="45.86692" lon="4.77339">
        <ele>310</ele>
        <time>2014-11-16T11:54:02Z</time>
      </trkpt>
      <trkpt lat="45.86694" lon="4.77338">
        <ele>310</ele>
        <time>2014-11-16T11:54:03Z</time>
      </trkpt>
      <trkpt lat="45.86703" lon="4.77323">
        <ele>306</ele>
        <time>2014-11-16T11:54:08Z</time>
      </trkpt>
      <trkpt lat="45.86703" lon="4.7732">
        <ele>306</ele>
        <time>2014-11-16T11:54:09Z</time>
      </trkpt>
      <trkpt lat="45.86702" lon="4.77308">
        <ele>305</ele>
        <time>2014-11-16T11:54:11Z</time>
      </trkpt>
      <trkpt lat="45.86703" lon="4.77304">
        <ele>305</ele>
        <time>2014-11-16T11:54:12Z</time>
      </trkpt>
      <trkpt lat="45.86701" lon="4.77294">
        <ele>305</ele>
        <time>2014-11-16T11:54:14Z</time>
      </trkpt>
      <trkpt lat="45.86698" lon="4.7728">
        <ele>305</ele>
        <time>2014-11-16T11:54:16Z</time>
      </trkpt>
      <trkpt lat="45.86696" lon="4.77267">
        <ele>304</ele>
        <time>2014-11-16T11:54:18Z</time>
      </trkpt>
      <trkpt lat="45.86693" lon="4.77248">
        <ele>298</ele>
        <time>2014-11-16T11:54:21Z</time>
      </trkpt>
      <trkpt lat="45.86692" lon="4.77242">
        <ele>298</ele>
        <time>2014-11-16T11:54:22Z</time>
      </trkpt>
      <trkpt lat="45.86691" lon="4.77228">
        <ele>297</ele>
        <time>2014-11-16T11:54:25Z</time>
      </trkpt>
    </trkseg>
  </trk>
</gpx>